[[{"header":{"parameterUnit":"m.s-1","parameterCategory":1,"la1":30.6,"la2":28.766,"lo1":-90.7593,"lo2":-88.6598,"dy":0.0162,"dx":0.0183,"nx":116,"ny":114,"refTime":"2024-04-15T06:00:00:Z","depth":0,"parameterNumber":2,"parameterNumberName":"U-component_of_WINDS"},"data":[0.0,0.0,0.0,0.0,0.0,0.0,0.0,0.0,0.0,0.0,0.0,0.0,0.0,0.0,0.0,0.0,0.0,0.0,0.0,0.0,0.0,0.0,0.0,0.0,0.0,0.0,0.0,0.0,0.0,0.0,0.0,0.0,0.0,0.0,0.0,0.0,0.0,0.0,0.0,0.0,0.0,0.0,0.0,0.0,0.0,0.0,0.0,0.0,0.0,0.0,0.0,0.0,0.0,0.0,0.0,0.0,0.0,0.0,0.0,0.0,0.0,0.0,0.0,0.0,0.0,0.0,0.0,0.0,0.0,0.0,0.0,0.0,0.0,0.0,0.0,0.0,0.0,0.0,0.0,0.0,0.0,0.0,0.0,0.0,0.0,0.0,0.0,0.0,0.0,0.0,0.0,0.0,0.0,0.0,0.0,0.0,0.0,0.0,0.0,0.0,0.0,0.0,0.0,0.0,0.0,0.0,0.0,0.0,0.0,0.0,0.0,0.0,0.0,0.0,0.0,0.0,0.0,0.0,0.0,0.0,0.0,0.0,0.0,0.0,0.0,0.0,0.0,0.0,0.0,0.0,0.0,0.0,0.0,0.0,0.0,0.0,0.0,0.0,0.0,0.0,0.0,0.0,0.0,0.0,0.0,0.0,0.0,0.0,0.0,0.0,0.0,0.0,0.0,0.0,0.0,0.0,0.0,0.0,0.0,0.0,0.0,0.0,0.0,0.0,0.0,0.0,0.0,0.0,0.0,0.0,0.0,0.0,0.0,0.0,0.0,0.0,0.0,0.0,0.0,0.0,0.0,0.0,0.0,0.0,0.0,0.0,0.0,0.0,0.0,0.0,0.0,0.0,0.0,0.0,0.0,0.0,0.0,0.0,0.0,0.0,0.0,0.0,0.0,0.0,0.0,0.0,0.0,0.0,0.0,0.0,0.0,0.0,0.0,0.0,0.0,0.0,0.0,0.0,0.0,0.0,0.0,0.0,0.0,0.0,0.0,0.0,0.0,0.0,0.0,0.0,0.0,0.0,0.0,0.0,0.0,0.0,0.0,0.0,0.0,0.0,0.0,0.0,0.0,0.0,0.0,0.0,0.0,0.0,0.0,0.0,0.0,0.0,0.0,0.0,0.0,0.0,0.0,0.0,0.0,0.0,0.0,0.0,0.0,0.0,0.0,0.0,0.0,0.0,0.0,0.0,0.0,0.0,0.0,0.0,0.0,0.0,0.0,0.0,0.0,0.0,0.0,0.0,0.0,0.0,0.0,0.0,0.0,0.0,0.0,0.0,0.0,0.0,0.0,0.0,0.0,0.0,0.0,0.0,0.0,0.0,0.0,0.0,0.0,0.0,0.0,0.0,0.0,0.0,0.0,0.0,0.0,0.0,0.0,0.0,0.0,0.0,0.0,0.0,0.0,0.0,0.0,0.0,0.0,0.0,0.0,0.0,0.0,0.0,0.0,0.0,0.0,0.0,0.0,0.0,0.0,0.0,0.0,0.0,0.0,0.0,0.0,0.0,0.0,0.0,0.0,0.0,0.0,0.0,0.0,0.0,0.0,0.0,0.0,0.0,0.0,0.0,0.0,0.0,0.0,0.0,0.0,0.0,0.0,0.0,0.0,0.0,0.0,0.0,0.0,0.0,0.0,0.0,0.0,0.0,0.0,0.0,0.0,0.0,0.0,0.0,0.0,0.0,0.0,0.0,0.0,0.0,0.0,0.0,0.0,0.0,0.0,0.0,0.0,0.0,0.0,0.0,0.0,0.0,0.0,0.0,0.0,0.0,0.0,0.0,0.0,0.0,0.0,0.0,0.0,0.0,0.0,0.0,0.0,0.0,0.0,0.0,0.0,0.0,0.0,0.0,0.0,0.0,0.0,0.0,0.0,0.0,0.0,0.0,0.0,0.0,0.0,0.0,0.0,0.0,0.0,0.0,0.0,0.0,0.0,0.0,0.0,0.0,0.0,0.0,0.0,0.0,0.0,0.0,0.0,0.0,0.0,0.0,0.0,0.0,0.0,0.0,0.0,0.0,0.0,0.0,0.0,0.0,0.0,0.0,0.0,0.0,0.0,0.0,0.0,0.0,0.0,0.0,0.0,0.0,0.0,0.0,0.0,0.0,0.0,0.0,0.0,0.0,0.0,0.0,0.0,0.0,0.0,0.0,0.0,0.0,0.0,0.0,0.0,0.0,0.0,0.0,0.0,0.0,0.0,0.0,0.0,0.0,0.0,0.0,0.0,0.0,0.0,0.0,0.0,0.0,0.0,0.0,0.0,0.0,0.0,0.0,0.0,0.0,0.0,0.0,0.0,0.0,0.0,0.0,0.0,0.0,0.0,0.0,0.0,0.0,0.0,0.0,0.0,0.0,0.0,0.0,0.0,0.0,0.0,0.0,0.0,0.0,0.0,0.0,0.0,0.0,0.0,0.0,0.0,0.0,0.0,0.0,0.0,0.0,0.0,0.0,0.0,0.0,0.0,0.0,0.0,0.0,0.0,0.0,0.0,0.0,0.0,0.0,0.0,0.0,0.0,0.0,0.0,0.0,0.0,0.0,0.0,0.0,0.0,0.0,0.0,0.0,0.0,0.0,0.0,0.0,0.0,0.0,0.0,0.0,0.0,0.0,0.0,0.0,0.0,0.0,0.0,0.0,0.0,0.0,0.0,0.0,0.0,0.0,0.0,0.0,0.0,0.0,0.0,0.0,0.0,0.0,0.0,0.0,0.0,0.0,0.0,0.0,0.0,0.0,0.0,0.0,0.0,0.0,0.0,0.0,0.0,0.0,0.0,0.0,0.0,0.0,0.0,0.0,0.0,0.0,0.0,0.0,0.0,0.0,0.0,0.0,0.0,0.0,0.0,0.0,0.0,0.0,0.0,0.0,0.0,0.0,0.0,0.0,0.0,0.0,0.0,0.0,0.0,0.0,0.0,0.0,0.0,0.0,0.0,0.0,0.0,0.0,0.0,0.0,0.0,0.0,0.0,0.0,0.0,0.0,0.0,0.0,0.0,0.0,0.0,0.0,0.0,0.0,0.0,0.0,0.0,0.0,0.0,0.0,0.0,0.0,0.0,0.0,0.0,0.0,0.0,0.0,0.0,0.0,0.0,0.0,0.0,0.0,0.0,0.0,0.0,0.0,0.0,0.0,0.0,0.0,0.0,0.0,0.0,0.0,0.0,0.0,0.0,0.0,0.0,0.0,0.0,0.0,0.0,0.0,0.0,0.0,0.0,0.0,0.0,0.0,0.0,0.0,0.0,0.0,0.0,0.0,0.0,0.0,0.0,0.0,0.0,0.0,0.0,0.0,0.0,0.0,0.0,0.0,0.0,0.0,0.0,0.0,0.0,0.0,0.0,0.0,0.0,0.0,0.0,0.0,0.0,0.0,0.0,0.0,0.0,0.0,0.0,0.0,0.0,0.0,0.0,0.0,0.0,0.0,0.0,0.0,0.0,0.0,0.0,0.0,0.0,0.0,0.0,0.0,0.0,0.0,0.0,0.0,0.0,0.0,0.0,0.0,0.0,0.0,0.0,0.0,0.0,0.0,0.0,0.0,0.0,0.0,0.0,0.0,0.0,0.0,0.0,0.0,0.0,0.0,0.0,0.0,0.0,0.0,0.0,0.0,0.0,0.0,0.0,0.0,0.0,0.0,0.0,0.0,0.0,0.0,0.0,0.0,0.0,0.0,0.0,0.0,0.0,0.0,0.0,0.0,0.0,0.0,0.0,0.0,0.0,0.0,0.0,0.0,0.0,0.0,0.0,0.0,0.0,0.0,0.0,0.0,0.0,0.0,0.0,0.0,0.0,0.0,0.0,0.0,0.0,0.0,0.0,0.0,0.0,0.0,0.0,0.0,0.0,0.0,0.0,0.0,0.0,0.0,0.0,0.0,0.0,0.0,0.0,0.0,0.0,0.0,0.0,0.0,0.0,0.0,0.0,0.0,0.0,0.0,0.0,0.0,0.0,0.0,0.0,0.0,0.0,0.0,0.0,0.0,0.0,0.0,0.0,0.0,0.0,0.0,0.0,0.0,0.0,0.0,0.0,0.0,0.0,0.0,0.0,0.0,0.0,0.0,0.0,0.0,0.0,0.0,0.0,0.0,0.0,0.0,0.0,0.0,0.0,0.0,0.0,0.0,0.0,0.0,0.0,0.0,0.0,0.0,0.0,0.0,0.0,0.0,0.0,0.0,0.0,0.0,0.0,0.0,0.0,0.0,0.0,0.0,0.0,0.0,0.0,0.0,0.0,0.0,0.0,0.0,0.0,0.0,0.0,0.0,0.0,0.0,0.0,0.0,0.0,0.0,0.0,0.0,0.0,0.0,0.0,0.0,0.0,0.0,0.0,0.0,0.0,0.0,0.0,0.0,0.0,0.0,0.0,0.0,0.0,0.0,0.0,0.0,0.0,0.0,0.0,0.0,0.0,0.0,0.0,0.0,0.0,0.0,0.0,0.0,0.0,0.0,0.0,0.0,0.0,0.0,0.0,0.0,0.0,0.0,0.0,0.0,0.0,0.0,0.0,0.0,0.0,0.0,0.0,0.0,0.0,0.0,0.0,0.0,0.0,0.0,0.0,0.0,0.0,0.0,0.0,0.0,0.0,0.0,0.0,0.0,0.0,0.0,0.0,0.0,0.0,0.0,0.0,0.0,0.0,0.0,0.0,0.0,0.0,0.0,0.0,0.0,0.0,0.0,0.0,0.0,0.0,0.0,0.0,0.0,0.0,0.0,0.0,0.0,0.0,0.0,0.0,0.0,0.0,0.0,0.0,0.0,0.0,0.0,0.0,0.0,0.0,0.0,0.0,0.0,0.0,0.0,0.0,0.0,0.0,0.0,0.0,0.0,0.0,0.0,0.0,0.0,0.0,0.0,0.0,0.0,0.0,0.0,0.0,0.0,0.0,0.0,0.0,0.0,0.0,0.0,0.0,0.0,0.0,0.0,0.0,0.0,0.0,0.0,0.0,0.0,0.0,0.0,0.0,0.0,0.0,0.0,0.0,0.0,0.0,0.0,0.0,0.0,0.0,0.0,0.0,0.0,0.0,0.0,0.0,0.0,0.0,0.0,0.0,0.0,0.0,0.0,0.0,0.0,0.0,0.0,0.0,0.0,0.0,0.0,0.0,0.0,0.0,0.0,0.0,0.0,0.0,0.0,0.0,0.0,0.0,0.0,0.0,0.0,0.0,0.0,0.0,0.0,0.0,0.0,0.0,0.0,0.0,0.0,0.0,0.0,0.0,0.0,0.0,0.0,0.0,0.0,0.0,0.0,0.0,0.0,0.0,0.0,0.0,0.0,0.0,0.0,0.0,0.0,0.0,0.0,0.0,0.0,0.0,0.0,0.0,0.0,0.0,0.0,0.0,0.0,0.0,0.0,0.0,0.0,0.0,0.0,0.0,0.0,0.0,0.0,0.0,0.0,0.0,0.0,0.0,0.0,0.0,0.0,0.0,0.0,0.0,0.0,0.0,0.0,0.0,0.0,0.0,0.0,0.0,0.0,0.0,0.0,0.0,0.0,0.0,0.0,0.0,0.0,0.0,0.0,0.0,0.0,0.0,0.0,0.0,0.0,0.0,0.0,0.0,0.0,0.0,0.0,0.0,0.0,0.0,0.0,0.0,0.0,0.0,0.0,0.0,0.0,0.0,0.0,0.0,0.0,0.0,0.0,0.0,0.0,0.0,0.0,0.0,0.0,0.0,0.0,0.0,0.0,0.0,0.0,0.0,0.0,0.0,0.0,0.0,0.0,0.0,0.0,0.0,0.0,0.0,0.0,0.0,0.0,0.0,0.0,0.0,0.0,0.0,0.0,0.0,0.0,0.0,0.0,0.0,0.0,0.0,0.0,0.0,0.0,0.0,0.0,0.0,0.0,0.0,0.0,0.0,0.0,0.0,0.0,0.0,0.0,0.0,0.0,0.0,0.0,0.0,0.0,0.0,0.0,0.0,0.0,0.0,0.0,0.0,0.0,0.0,0.0,0.0,0.0,0.0,0.0,0.0,0.0,0.0,0.0,0.0,0.0,0.0,0.0,0.0,0.0,0.0,0.0,0.0,0.0,0.0,0.0,0.0,0.0,0.0,0.0,0.0,0.0,0.0,0.0,0.0,0.0,-4.3778,0.0,0.0,0.0,0.0,0.0,0.0,0.0,0.0,0.0,0.0,0.0,0.0,0.0,0.0,0.0,0.0,0.0,0.0,0.0,0.0,0.0,0.0,0.0,0.0,-4.4701,-4.4979,-4.494,-4.5325,-4.5402,-4.4932,-4.4979,0.0,0.0,0.0,0.0,-4.3124,-4.3318,-4.3309,-4.3085,-4.4,-4.445,-4.444,-4.4235,-4.4335,-4.4574,0.0,0.0,0.0,0.0,0.0,0.0,0.0,0.0,0.0,0.0,0.0,0.0,0.0,0.0,0.0,0.0,0.0,0.0,0.0,0.0,0.0,0.0,0.0,0.0,0.0,0.0,0.0,0.0,0.0,0.0,0.0,0.0,0.0,0.0,0.0,0.0,0.0,0.0,0.0,0.0,0.0,0.0,0.0,0.0,0.0,0.0,0.0,0.0,0.0,0.0,0.0,0.0,0.0,0.0,0.0,0.0,0.0,0.0,0.0,0.0,0.0,0.0,0.0,0.0,0.0,0.0,0.0,0.0,0.0,0.0,0.0,-4.5316,0.0,0.0,0.0,0.0,0.0,0.0,0.0,0.0,0.0,0.0,0.0,0.0,0.0,0.0,0.0,0.0,0.0,0.0,0.0,0.0,0.0,-4.2624,-4.4124,-4.4432,-4.4816,-4.5556,-4.5594,-4.5594,-4.5594,-4.494,-4.4509,-4.4509,-4.3893,-4.3547,-4.3547,-4.3915,-4.3915,-4.3547,-4.4652,-4.5168,-4.5104,-4.5677,-4.5821,-4.5509,-4.4874,0.0,0.0,0.0,0.0,0.0,0.0,0.0,0.0,0.0,0.0,0.0,0.0,0.0,0.0,0.0,0.0,0.0,0.0,0.0,0.0,0.0,0.0,0.0,0.0,0.0,0.0,0.0,0.0,0.0,0.0,0.0,0.0,0.0,0.0,0.0,0.0,0.0,0.0,0.0,0.0,0.0,0.0,0.0,0.0,0.0,0.0,0.0,0.0,0.0,0.0,0.0,0.0,0.0,0.0,0.0,0.0,0.0,0.0,0.0,0.0,0.0,0.0,0.0,-5.0433,-5.1135,-5.1164,-5.1818,-5.2115,-5.1962,-4.9346,-4.7163,-4.5432,0.0,0.0,0.0,0.0,0.0,0.0,0.0,0.0,0.0,0.0,0.0,0.0,0.0,0.0,0.0,0.0,0.0,0.0,0.0,0.0,-4.3278,-4.4201,-4.4979,-4.5479,-4.5594,-4.5594,-4.5594,-4.5594,-4.5479,-4.5441,-4.5441,-4.5325,-4.5287,-4.5287,-4.5328,-4.5328,-4.5287,-4.6868,-4.7465,-4.716,-4.8629,-4.9367,-4.923,-4.6017,-4.5481,-4.6789,0.0,0.0,0.0,0.0,0.0,0.0,0.0,0.0,0.0,0.0,0.0,0.0,0.0,0.0,0.0,0.0,0.0,0.0,0.0,0.0,0.0,0.0,0.0,0.0,0.0,0.0,0.0,0.0,0.0,0.0,0.0,0.0,0.0,0.0,0.0,0.0,0.0,0.0,0.0,0.0,0.0,-4.2508,-4.1885,0.0,0.0,0.0,0.0,0.0,0.0,0.0,0.0,0.0,0.0,0.0,0.0,0.0,-4.9586,-5.1038,-5.1933,-5.2433,-5.2549,-5.2779,-5.2856,-5.2856,-5.2972,-5.3049,-5.3049,-5.3356,0.0,-4.975,-4.8355,0.0,0.0,0.0,0.0,0.0,0.0,0.0,0.0,0.0,0.0,0.0,0.0,0.0,0.0,0.0,0.0,0.0,0.0,0.0,0.0,0.0,-4.5817,-4.6317,-4.6317,-4.8048,-4.8355,-4.6432,-4.7663,-4.7595,-4.5671,-4.5133,-4.5094,-4.5594,-4.495,-4.5303,-4.673,-4.8644,-4.958,-4.9606,-5.0837,-5.1277,-5.0979,-4.9348,-4.8178,-4.7239,-4.5335,0.0,0.0,0.0,0.0,0.0,0.0,0.0,0.0,0.0,0.0,0.0,0.0,0.0,0.0,0.0,0.0,0.0,0.0,0.0,0.0,0.0,0.0,0.0,0.0,0.0,0.0,0.0,0.0,0.0,0.0,0.0,0.0,0.0,0.0,0.0,0.0,0.0,0.0,0.0,-4.3124,-4.4162,-4.3316,-4.5124,-4.5932,0.0,0.0,0.0,0.0,0.0,0.0,0.0,0.0,0.0,-5.0192,-5.1548,-5.2626,-5.3356,-5.4203,-5.4857,-5.5346,-5.5818,-5.6088,-5.6088,-5.6549,-5.6742,-5.678,-5.7126,-5.6434,-5.4741,-5.1548,-4.8971,-4.6894,0.0,0.0,0.0,0.0,-4.3778,-4.3855,0.0,0.0,0.0,0.0,0.0,0.0,0.0,0.0,0.0,0.0,0.0,0.0,-4.6009,-4.7009,-4.7702,-4.8154,-5.0077,-5.0192,-4.7702,-4.8702,-4.8249,-4.571,-4.4979,-4.494,-4.5594,-4.5131,-4.5959,-4.8083,-5.0507,-5.1842,-5.2208,-5.3194,-5.349,-5.3253,-5.2908,-5.1285,-4.8678,-4.704,-4.5513,-4.4048,0.0,0.0,0.0,0.0,0.0,0.0,0.0,0.0,0.0,0.0,0.0,0.0,0.0,0.0,0.0,0.0,0.0,0.0,0.0,0.0,0.0,0.0,0.0,0.0,0.0,0.0,0.0,0.0,0.0,0.0,0.0,0.0,0.0,0.0,0.0,0.0,0.0,-4.4547,-4.6018,-4.447,-4.7124,-4.8163,0.0,0.0,0.0,0.0,0.0,0.0,-4.9356,-5.0625,-5.1895,-5.3164,-5.4664,-5.578,-5.6434,-5.7242,-5.7857,-5.8319,-5.8973,-5.9165,-5.8973,-5.955,-5.9819,-5.9819,-5.9819,-5.9358,-5.8319,-5.4472,-5.151,-4.9317,-4.8279,-4.6932,-4.5624,-4.5855,-4.5733,-4.5563,0.0,0.0,0.0,0.0,0.0,0.0,0.0,0.0,0.0,0.0,0.0,-4.4355,-4.7625,-4.874,-4.9933,-5.15,-5.0356,-4.9433,-4.9279,-4.7134,-4.5787,-4.5594,-4.5556,-4.5556,-4.5594,-4.7115,-4.8337,-4.9298,-5.2664,-5.4511,-5.4941,-5.6125,-5.6865,-5.7168,-5.5934,-5.4658,-5.3106,-4.9259,-4.8233,-4.8839,-4.4158,0.0,0.0,0.0,0.0,0.0,0.0,0.0,0.0,0.0,0.0,0.0,0.0,0.0,0.0,0.0,0.0,0.0,0.0,0.0,0.0,0.0,0.0,0.0,0.0,0.0,0.0,0.0,0.0,0.0,0.0,0.0,0.0,0.0,0.0,0.0,0.0,0.0,0.0,-4.4701,-4.8702,0.0,0.0,0.0,0.0,-4.9163,-5.001,-5.1202,-5.2856,-5.3049,-5.4203,-5.6676,-5.7627,-5.9281,-6.1678,-6.2512,-6.2551,-6.1831,-6.1908,-6.1485,-6.0666,-6.0704,-6.0742,-6.0742,-6.0742,-6.0242,-5.9242,-5.6588,-5.4511,-5.2779,-5.1164,-4.9933,-4.924,-5.0058,-4.9597,-4.8636,0.0,0.0,0.0,0.0,0.0,-3.7661,-3.9092,-3.9554,-4.0554,-4.2816,-4.3547,-4.5393,-4.9356,-5.101,-5.251,-5.4203,-5.4818,-5.3972,-5.1202,-5.0164,-4.8702,-4.6547,-4.5355,-4.5278,-4.6394,-4.8625,-5.0741,-5.2664,-5.5549,-5.7119,-5.7496,-5.8192,-5.8425,-5.8246,-5.7457,-5.6581,-5.5481,-5.1962,-4.982,-4.8526,-4.5736,-4.4305,0.0,0.0,0.0,0.0,0.0,0.0,0.0,0.0,0.0,0.0,0.0,0.0,0.0,0.0,0.0,0.0,0.0,0.0,0.0,0.0,0.0,0.0,0.0,0.0,0.0,0.0,0.0,0.0,0.0,0.0,0.0,0.0,0.0,0.0,0.0,0.0,0.0,-5.0164,-5.3587,0.0,-5.1625,-5.1356,-5.1741,-5.2626,-5.2972,-5.4126,-5.6357,-5.6973,-5.8165,-6.0215,-6.1627,-6.2781,-6.3705,-6.3435,-6.3435,-6.3705,-6.205,-6.1408,-6.1639,-6.105,-6.0781,-6.0781,-6.0781,-6.0627,-6.0204,-5.8742,-5.6511,-5.3933,-5.2741,-5.1471,-5.0289,-5.0596,-5.0758,-5.0818,0.0,0.0,0.0,0.0,0.0,-3.7199,-3.8623,-3.913,-4.02,-4.2777,-4.4047,-4.6355,-5.0625,-5.2856,-5.4857,-5.6819,-5.7011,-5.5703,-5.2538,-5.1,-4.8962,-4.6163,-4.5201,-4.5547,-4.7278,-5.0087,-5.2664,-5.4895,-5.7473,-5.8971,-5.9469,-5.9409,-5.923,-5.8913,-5.8282,-5.7703,-5.7042,-5.4656,-5.205,-4.937,-4.7168,-4.6324,-4.5957,0.0,0.0,0.0,0.0,0.0,0.0,0.0,0.0,0.0,0.0,0.0,0.0,0.0,0.0,0.0,0.0,0.0,0.0,0.0,0.0,0.0,0.0,0.0,0.0,0.0,0.0,0.0,0.0,0.0,0.0,0.0,0.0,0.0,0.0,0.0,-5.3933,-5.3664,-5.6896,-5.8011,-5.5164,-5.4895,-5.528,-5.6126,-5.6472,-5.7627,-5.9858,-6.0512,-6.1435,-6.2897,-6.4012,-6.4743,-6.5051,-6.4166,-6.3897,-6.4128,-6.2166,-6.1408,-6.1639,-6.105,-6.0781,-6.0781,-6.0781,-6.0781,-6.0742,-6.0165,-5.8473,-5.6088,-5.4934,-5.3626,-5.2405,-5.2405,-5.2448,-5.2532,0.0,0.0,0.0,0.0,0.0,-3.6962,-3.7853,-3.87,-4.0162,-4.2777,-4.4586,-4.724,-5.15,-5.428,-5.678,-5.9319,-5.6472,-5.4164,-5.328,-4.924,-4.6086,-4.4355,-4.521,-4.6471,-4.8202,-5.1548,-5.4126,-5.5818,-5.8319,-5.9973,-6.0769,-5.9839,-5.9389,-5.9392,-5.8418,-5.7997,-5.7997,-5.7189,-5.5023,-5.1867,-4.8544,-4.8196,-4.917,0.0,0.0,0.0,0.0,0.0,0.0,0.0,0.0,0.0,0.0,0.0,0.0,0.0,0.0,0.0,0.0,0.0,0.0,0.0,0.0,0.0,0.0,0.0,0.0,0.0,0.0,0.0,0.0,0.0,0.0,0.0,0.0,0.0,-4.8317,-5.2664,-5.5549,-5.4895,-5.8434,-5.9627,-5.6357,-5.7511,-5.8819,-5.9665,-6.0435,-6.1627,-6.332,-6.3346,-6.3743,-6.4628,-6.4628,-6.5013,-6.5859,-6.4974,-6.4128,-6.3269,-6.2474,-6.1639,-6.0819,-6.0819,-6.0781,-6.0781,-6.0781,-6.0781,-6.0781,-6.0781,-6.0281,-5.9358,-5.7715,-5.6522,-5.5742,-5.5703,-5.4898,-5.3783,0.0,0.0,0.0,-3.55,-3.5692,-3.6308,-3.7777,-3.82,-3.9508,-4.2662,-4.5124,-4.8394,-5.328,-5.6049,-5.8357,-6.0281,-5.7319,-5.4741,-5.3318,-4.8663,-4.547,-4.4355,-4.6317,-4.8509,-5.0808,-5.3587,-5.6126,-5.8473,-5.9781,-6.055,-6.0769,-5.9839,-5.9729,-6.0186,-5.8677,-5.8327,-5.8841,-5.7997,-5.6822,-5.5207,-5.1977,-5.0215,-4.928,0.0,0.0,0.0,0.0,0.0,0.0,0.0,0.0,0.0,0.0,0.0,0.0,0.0,0.0,0.0,0.0,0.0,0.0,0.0,0.0,0.0,0.0,0.0,0.0,0.0,0.0,0.0,0.0,0.0,0.0,0.0,0.0,-5.2933,-5.351,-5.6395,-5.9281,-6.155,-6.2858,-6.3666,-6.3935,-6.2743,-6.2781,-6.4859,-6.3512,-6.3628,-6.5936,-6.4897,-6.4628,-6.5513,-6.5551,-6.5359,-6.4974,-6.4089,-6.3538,-6.3269,-6.1858,-6.1358,-6.1716,-6.1089,-6.0781,-6.0781,-6.0781,-6.0781,-6.0781,-6.0781,-6.0666,-6.0281,-5.8588,-5.7396,-5.656,-5.5934,-5.5281,-5.4672,0.0,0.0,0.0,-3.55,-3.55,-3.5923,-3.7276,-3.7777,-3.9084,-4.2162,-4.5393,-4.9086,-5.3472,-5.5895,-5.7742,-5.9088,-5.6088,-5.3241,-5.1202,-4.7278,-4.5316,-4.5855,-4.8009,-5.0394,-5.2933,-5.5472,-5.7665,-5.9511,-6.0742,-6.1331,-6.1308,-6.0713,-6.071,-6.109,-5.9641,-5.9281,-5.9625,-5.8841,-5.8437,-5.8107,-5.5537,-5.3739,-5.227,-4.915,-4.8306,-4.8563,-4.7095,-4.7021,-4.7333,-4.559,0.0,0.0,0.0,0.0,0.0,0.0,0.0,0.0,0.0,0.0,0.0,0.0,0.0,0.0,0.0,0.0,0.0,0.0,0.0,0.0,0.0,0.0,0.0,0.0,-5.4395,-5.7242,-5.9165,-6.0396,-6.2243,-6.5282,-6.5667,-6.6167,-6.7513,-6.5974,-6.5513,-6.6974,-6.5743,-6.5397,-6.6551,-6.5667,-6.5397,-6.5859,-6.5897,-6.5474,-6.4628,-6.3743,-6.3128,-6.2781,-6.1435,-6.105,-6.1562,-6.1012,-6.0781,0.0,-6.0781,-6.0589,-6.0281,-6.0666,-6.0589,0.0,0.0,0.0,0.0,0.0,-5.5287,-5.5053,0.0,0.0,0.0,-3.55,-3.55,-3.5769,-3.6577,-3.743,-3.8892,-4.1316,-4.524,-4.9048,-5.2279,-5.4203,-5.5626,-5.6522,-5.3549,-5.0538,-4.7971,-4.5893,-4.5778,-4.8125,-5.0087,-5.2289,-5.4741,-5.728,-5.8934,-5.9665,-6.1396,-6.2178,-6.2089,-6.1967,-6.1955,-6.1976,-6.09,-6.0456,-6.0493,-5.9588,-5.9685,-6.0272,-5.8731,-5.7593,-5.6381,-5.2637,-5.2417,-5.3849,-5.161,-5.0031,-4.8857,-4.7846,0.0,0.0,0.0,0.0,0.0,0.0,0.0,0.0,0.0,0.0,0.0,0.0,0.0,0.0,0.0,0.0,0.0,0.0,0.0,0.0,0.0,0.0,0.0,0.0,-5.7912,-6.132,-6.482,-6.4589,-6.4859,-6.7128,-6.7321,-6.759,-6.8475,-6.7744,-6.7282,-6.7398,-6.7205,-6.6821,-6.6205,0.0,0.0,0.0,0.0,-6.5436,-6.4474,-6.3705,-6.2858,-6.1947,-6.1166,-6.0781,-6.0781,-6.0781,-6.0781,-6.0781,-6.0781,-6.0358,-5.9704,-6.0473,-6.0281,-5.9473,-5.9396,-5.8819,-5.7785,-5.5861,-5.5147,-5.5067,0.0,0.0,0.0,-3.55,-3.55,-3.5769,-3.6577,-3.743,-3.8661,-4.0516,-4.3863,-4.6855,-4.8856,-5.1202,-5.301,-5.3857,-5.1433,-4.8817,-4.6249,-4.6894,-4.7894,-4.9086,-5.2125,-5.4626,-5.6483,-5.9011,-6.0396,-6.055,-6.2243,-6.2743,-6.2089,-6.1967,-6.2239,-6.2805,-6.1159,-6.075,-6.1263,-5.9808,-5.9685,-6.0309,-5.9331,-5.8107,-5.6565,-5.4509,-5.3188,-5.2307,-5.1206,-5.183,-5.2894,-5.0802,-5.0765,-5.0949,-4.7592,-4.6011,0.0,0.0,0.0,0.0,0.0,0.0,0.0,0.0,0.0,0.0,0.0,0.0,0.0,0.0,0.0,0.0,0.0,0.0,0.0,-5.8304,-6.1608,-6.5013,-6.9129,-6.8975,-6.8667,-6.9129,-6.859,-6.8475,-6.936,-6.8667,-6.8436,-6.9129,-6.7898,-6.7321,-6.7898,-6.6628,0.0,-6.5897,-6.5897,-6.5128,-6.3589,-6.3397,-6.2551,-6.105,0.0,0.0,-6.0781,-6.0781,-6.0781,-6.0781,-6.0781,-6.0704,-6.055,-6.0742,-6.0281,-5.9435,-5.8781,-5.7588,-5.6165,-5.5764,-5.5387,-5.5107,0.0,0.0,0.0,-3.55,-3.55,-3.5654,-3.6038,-3.7199,-3.8469,-3.9746,-4.2863,-4.5586,-4.7317,-4.8654,-4.9577,-5.001,-4.774,-4.624,-4.624,-4.7817,-4.9702,-5.1856,-5.4818,-5.6973,-5.8204,-6.0358,-6.1447,-6.1447,-6.3128,-6.3743,-6.3346,-6.3024,-6.2942,-6.305,-6.1853,-6.1218,-6.0933,-6.0162,-6.0272,-6.0933,-6.0126,-5.9318,-5.8474,-5.7262,-5.6051,-5.495,-5.4546,-5.4399,-5.4216,-5.3004,-5.2344,-5.1614,-4.9325,-4.7629,-4.6287,0.0,0.0,0.0,0.0,0.0,0.0,0.0,0.0,0.0,0.0,0.0,0.0,0.0,0.0,-4.7627,-5.0267,0.0,-5.7335,-6.1106,-6.4756,-6.7898,-7.0014,-7.0667,-7.0937,-7.0937,-6.9821,-6.9398,-7.0206,-6.9552,-6.9244,-6.9667,-6.8898,-6.8205,-6.7782,-6.6974,-6.632,-6.5897,-6.5897,-6.5282,-6.3974,-6.3512,-6.2666,-6.1447,-6.1012,-6.0781,-6.0781,-6.0781,-6.0781,-6.0781,-6.0781,-6.055,-6.0165,-6.0165,-5.9896,-5.9473,-5.905,-5.7857,-5.6269,-5.5612,-5.5262,-5.508,0.0,0.0,0.0,-3.55,-3.55,-3.55,-3.55,-3.6769,-3.8046,-3.8931,-4.1662,-4.4162,-4.5731,-4.6038,-4.6163,-4.6163,-4.4586,-4.4586,-4.6971,-4.8856,-5.1395,-5.4818,-5.7242,-5.9011,-5.9973,-6.1358,-6.2178,-6.232,-6.3858,-6.4589,-6.4577,-6.4211,-6.3856,-6.3459,-6.2824,-6.1893,-6.0793,-6.0504,-6.086,-6.152,-6.0566,-6.0272,-6.0309,-5.9515,-5.8694,-5.796,-5.7629,-5.6161,-5.4363,-5.4216,-5.2784,-5.0936,-5.0417,-4.903,-4.7408,-4.6564,-4.506,0.0,0.0,0.0,0.0,0.0,0.0,0.0,0.0,0.0,-4.5626,-4.6434,-4.8344,-5.0675,-5.3392,-5.6983,-6.0533,-6.3496,-6.719,-6.9833,-7.021,-7.1241,-7.1937,-7.1937,-7.0629,-6.9937,-7.0591,-7.009,-6.9706,-6.9706,-6.9706,-6.909,-6.7667,-6.7436,-6.6974,-6.6167,-6.6128,-6.5628,-6.4628,-6.3897,-6.3128,-6.232,-6.1473,-6.105,-6.105,-6.0858,-6.0781,-6.0781,-6.0781,-6.0396,-5.9742,-5.9742,-5.9665,-5.9473,-5.9319,-5.8319,-5.6912,-5.6039,-5.5594,-5.5389,0.0,0.0,0.0,0.0,0.0,-3.55,-3.55,-3.6269,-3.7161,-3.8046,-3.9785,-4.1277,-4.2269,-4.3047,-4.3547,-4.3547,-4.4624,-4.6047,-4.7855,-5.0269,-5.3164,-5.656,-5.8434,-6.0127,-6.1793,-6.1985,-6.2435,-6.3166,-6.4128,-6.4589,-6.4615,-6.4838,-6.4931,-6.4851,-6.3869,-6.2991,-6.2107,-6.0913,-6.086,-6.1484,-5.9942,-5.9735,-6.0309,-5.9515,-5.8694,-5.7813,-5.6381,-5.5244,-5.4289,-5.3592,-5.2674,-5.174,-5.0973,-5.0071,-4.8876,-4.6599,-4.5295,-4.4415,-4.3681,-4.3515,-4.3478,-4.3404,-4.3975,-4.4745,0.0,0.0,-4.8159,-4.9023,-5.1417,-5.3886,-5.5641,-5.9436,-6.3161,-6.5953,-6.8257,-7.0311,-7.2028,-7.1551,-7.1052,-7.1052,-7.0244,-6.9744,-6.9821,-6.9744,-6.9706,-6.9706,-6.9706,-6.9629,-6.9436,-6.8667,-6.7859,-6.6974,-6.6974,-6.6205,-6.4628,-6.4512,-6.4012,-6.3166,-6.232,-6.1947,-6.1947,-6.1127,-6.0781,-6.0781,-6.0781,-6.0742,-6.0666,-6.0666,-6.0204,-5.9435,-5.8704,-5.7857,-5.7088,-5.7708,-5.7466,-5.6741,0.0,0.0,0.0,0.0,0.0,-3.55,-3.55,-3.6192,-3.6846,-3.7199,-3.8738,-3.9938,-4.0315,-4.1085,-4.1593,-4.1593,-4.3162,-4.5278,-4.7932,-5.0971,-5.4164,-5.7627,-5.9358,-6.0589,-6.132,-6.2281,-6.2974,-6.3308,-6.4666,-6.5089,-6.4589,-6.4205,-6.3643,-6.2925,-6.2484,-6.1938,-6.1336,-6.0487,-6.0619,-6.1248,-5.9789,-5.9404,-5.9551,-5.829,-5.7005,-5.5831,-5.5133,-5.3775,0.0,-5.194,-5.1242,-5.0472,-5.0198,-4.9187,-4.7865,-4.6324,-4.5002,-4.3953,-4.3816,-4.3996,-4.4485,-4.5665,-4.6375,-4.7131,-4.8453,-4.9627,-5.0755,-5.186,-5.4223,-5.6631,-5.852,-6.1873,-6.5014,0.0,-6.9191,-7.0923,-7.1521,-7.0787,-6.9821,-6.8821,-6.7513,-6.7513,-6.9513,-6.9706,-6.9898,-7.036,-7.0398,-7.0206,-6.9744,-6.936,-6.8513,-6.7128,-6.759,-6.7051,-6.5359,-6.5359,-6.4936,-6.4051,-6.3205,-6.2551,-6.2101,-6.1716,-6.1293,-6.0781,-6.0781,-6.0781,-6.0742,-6.0242,-6.0127,-6.0165,-5.9319,-5.9088,-5.9011,-5.7396,-5.6549,-5.6231,0.0,0.0,0.0,0.0,0.0,-3.55,-3.55,-3.6192,-3.6692,-3.6692,-3.8238,-3.94,-3.9631,-4.0169,-4.0516,-4.0516,-4.1854,-4.4085,-4.7201,-5.0394,-5.378,-5.7434,-5.9204,-6.0435,-6.1127,-6.2127,-6.2858,-6.3308,-6.432,-6.4628,-6.4243,-6.3589,-6.281,-6.1917,-6.1963,-6.1511,-6.0672,-6.0352,-6.0417,-6.0565,-5.9501,-5.8923,-5.8532,-5.6934,-5.5038,-5.3154,-5.2826,-5.1316,-4.9407,-4.9187,-4.871,-4.8269,-4.8746,-4.8086,-4.6929,-4.614,-4.4745,-4.3657,-4.4325,-4.4915,0.0,-4.7714,-4.8919,-4.9994,-5.1206,-5.2541,-5.378,-5.4689,-5.6799,-5.8915,-6.0428,-6.3308,-6.5874,-6.7186,-6.9365,-7.0875,-7.0714,-6.9715,-6.8321,-6.6628,-6.4936,-6.4974,-6.7667,-6.8359,-6.909,-7.0129,-7.0437,-7.0398,-7.0052,-7.0014,-6.936,-6.7859,-6.8205,-6.7821,-6.659,-6.6128,-6.5705,-6.5282,-6.4166,-6.3243,-6.2397,-6.1935,-6.1408,-6.0781,-6.0781,-6.0781,-6.0742,-6.0127,-6.0242,-6.0704,-5.9858,-5.9896,-6.0127,-5.7396,-5.6434,-5.6385,0.0,0.0,0.0,0.0,0.0,-3.55,-3.55,-3.6192,-3.6692,-3.6692,-3.8238,-3.9592,-4.0362,-4.0477,-4.0516,-4.0516,-4.1316,-4.2931,-4.5518,-4.8086,-5.1395,-5.5588,-5.7434,-5.9511,-6.2024,-6.1281,-6.1666,-6.3308,-6.2551,-6.2589,-6.3346,-6.3308,-6.3269,-6.3245,-6.3585,-6.2591,-6.071,-6.1028,-6.0425,-5.9241,-5.8837,-5.8206,-5.7289,-5.5751,-5.3125,-5.0077,-4.8918,-4.7425,-4.592,-4.5149,-4.4874,-4.5112,-4.6672,-4.7149,-4.6929,-4.614,-4.4745,-4.3845,-4.5424,-4.6434,-4.7406,-4.9023,-5.1242,-5.3057,-5.3093,-5.532,-5.7335,-5.7372,-5.9121,-6.0614,-6.067,-6.3182,-6.5558,-6.6673,-6.846,-6.9822,-7.009,-6.8416,-6.6551,-6.4897,-6.3205,-6.2512,0.0,-6.5013,-6.6705,-6.8359,-6.9244,-7.0052,-7.0821,-7.086,-7.0475,-6.9667,-6.8821,-6.8385,-6.8321,-6.6705,-6.6282,-6.7013,-6.5359,-6.4128,-6.3205,-6.1589,-6.0819,-6.0781,-6.0781,-6.0781,-6.0781,-6.0781,-6.0781,-6.0704,-5.9858,-5.9511,-5.9435,-5.855,-5.8204,-5.8158,0.0,0.0,0.0,0.0,0.0,0.0,-3.55,-3.5731,-3.6115,-3.6615,-3.8238,0.0,0.0,0.0,0.0,0.0,-4.1316,-4.2624,-4.4624,-4.7124,-4.9702,-5.2289,-5.4549,-5.6434,-5.7819,-5.8704,-5.9665,-6.0781,-6.1666,-6.1935,-6.1666,-6.2243,-6.2204,-6.1666,-6.1774,-6.1747,-6.1587,-6.0789,-6.0071,-5.9213,-5.7134,-5.5769,-5.4611,-5.1711,-4.9342,-4.7363,0.0,-4.4305,-4.4158,-4.3387,-4.313,-4.3314,-4.4378,-4.4709,-4.4672,-4.4378,-4.4895,-4.579,-4.682,-4.8859,-5.125,-5.3341,-5.5128,-5.6603,-5.745,-5.8384,-5.8868,-5.8108,-5.8093,-5.7993,-5.7115,-5.8957,-6.1065,-6.2571,-6.5427,-6.7814,-6.8829,-6.7895,-6.6051,-6.3281,-6.2447,0.0,0.0,0.0,0.0,-6.7359,-6.8359,-6.9206,-7.0052,-7.0591,-7.0514,-6.9744,-6.9937,-6.9244,-6.7552,-6.7552,-6.7128,-6.6282,-6.5166,-6.4128,-6.3281,-6.2166,-6.137,-6.0781,-6.0781,-6.0781,-6.0742,-6.0165,-6.0281,-6.0704,-5.9858,-5.9858,-6.0319,-6.005,-5.9242,-5.8181,0.0,0.0,0.0,0.0,0.0,0.0,0.0,0.0,0.0,0.0,0.0,0.0,0.0,0.0,0.0,0.0,0.0,-4.1931,-4.3316,-4.524,-4.7201,-4.924,-5.1471,-5.3049,-5.3895,-5.5588,-5.6588,-5.678,-5.8204,-5.8627,-5.8088,-5.8665,-5.8627,-5.8127,-5.8704,-5.9031,-5.9102,-5.8522,-5.7787,-5.6807,-5.4473,-5.2933,-5.1676,-4.8788,-4.7006,0.0,-4.3188,-4.2616,-4.2947,-4.2139,-4.1882,-4.2066,-4.3167,-4.358,-4.3788,-4.4412,-4.5844,-4.7634,-4.9396,-5.1858,-5.4522,-5.6883,-5.8307,-5.9316,-6.003,-5.9962,-5.9272,-5.7674,-5.6585,-5.5457,-5.4073,-5.501,-5.676,-5.9055,-6.1675,-6.4298,-6.6705,-6.5782,-6.4166,-6.2332,-6.155,-6.0512,0.0,0.0,0.0,-6.6013,-6.7282,-6.8436,-6.9629,-7.0475,-7.0667,-7.0167,-7.0052,-6.936,-6.8052,-6.7667,-6.6974,-6.5897,-6.4705,-6.3858,-6.3281,-6.2127,-6.132,-6.0781,-6.0781,-6.0781,-6.0742,-6.0204,-6.0281,-6.0742,-6.0165,-6.0319,-6.0781,-6.0781,-5.9742,-5.8204,0.0,0.0,0.0,0.0,0.0,0.0,0.0,0.0,0.0,0.0,0.0,0.0,0.0,0.0,0.0,0.0,0.0,0.0,-4.17,-4.2547,-4.4124,-4.6538,-4.824,-4.9548,-5.0404,-5.2049,-5.25,-5.1692,-5.2587,-5.301,-5.301,-5.3087,-5.3126,-5.3203,-5.4857,-5.4921,-5.3823,-5.4598,-5.3944,-5.2304,-5.1086,-4.9859,-4.8597,-4.6999,-4.5879,-4.4929,-4.2984,-4.2286,-4.2139,-4.1389,-4.1185,-4.1548,-4.3125,-4.3828,-4.4453,-4.6246,-4.7657,-4.9451,-5.3027,-5.5286,-5.7226,-5.9594,-6.0729,-6.1188,-6.0789,-5.9935,-5.8576,-5.608,-5.4487,-5.303,0.0,0.0,-5.2839,-5.622,-5.7682,-5.9835,-6.4012,-6.2589,-6.1358,0.0,0.0,0.0,0.0,0.0,0.0,-6.4474,0.0,-6.7782,-6.9552,-7.0437,-7.0898,-7.0898,-6.9321,-6.8846,-6.9602,-6.7102,-6.5885,-6.5859,-6.4166,-6.3346,-6.3231,-6.1627,-6.0819,-6.0781,-6.0781,-6.0781,-6.0781,-6.0781,-6.0781,-6.0781,-6.0781,-6.0781,-6.0781,-6.0781,-5.9781,-5.8357,0.0,0.0,0.0,0.0,0.0,0.0,0.0,0.0,0.0,0.0,0.0,0.0,0.0,0.0,0.0,0.0,0.0,0.0,-4.0823,-4.1662,-4.2423,-4.3077,-4.4701,-4.6009,-4.6864,-4.7971,-4.8692,-4.9086,-4.9933,-5.0356,-5.0394,-5.1664,-5.2231,-5.2269,-5.3356,-5.3661,-5.3382,-5.3574,-5.273,-5.1064,-4.8891,-4.7657,-4.6764,-4.4313,-4.3394,-4.3349,-4.2562,-4.1919,-4.1462,-4.1882,-4.2574,-4.3482,-4.4818,-4.5275,-4.581,-4.814,-5.0319,-5.2639,-5.5716,-5.8896,-6.1562,-6.247,-6.3127,-6.305,-6.1125,-5.9101,-5.6639,-5.329,-5.0385,-4.7868,0.0,0.0,0.0,-5.2847,-5.6972,0.0,-6.4141,-6.5128,0.0,-6.272,0.0,-6.3374,-6.1048,-6.2541,0.0,0.0,-6.5974,-6.6936,-6.8629,-7.0129,-7.0898,-7.0898,-6.9898,-6.8967,-6.8135,-6.6262,-6.5489,-6.5897,-6.4782,-6.3935,-6.3281,-6.2243,-6.1408,-6.0781,-6.0781,-6.0781,-6.0781,-6.0781,-6.0781,-6.0781,-6.0781,-6.0781,-6.0781,-6.0781,-6.0127,-5.9127,0.0,0.0,0.0,0.0,0.0,0.0,0.0,0.0,0.0,0.0,0.0,0.0,0.0,0.0,0.0,0.0,0.0,0.0,0.0,-4.0969,-4.1239,-4.1239,-4.2508,-4.3239,-4.3363,-4.4586,-4.5278,-4.5355,-4.6201,-4.6624,-4.6663,-4.7586,-4.8038,-4.8077,-4.8933,-4.951,-4.9856,-4.9856,-4.9455,0.0,0.0,-4.5388,-4.5111,-4.3078,-4.2712,-4.3282,-4.293,-4.264,-4.2575,-4.3943,-4.4827,-4.5608,-4.7,-4.7818,-4.8821,-5.176,-5.4045,-5.6236,-5.9121,-6.2033,-6.4237,-6.4428,-6.4049,-6.2876,-6.0058,-5.7065,-5.3714,-4.9669,-4.6908,-4.4675,-4.2794,-4.3646,0.0,0.0,0.0,0.0,-6.2257,-6.354,-6.3995,0.0,-6.4953,0.0,-6.3441,-6.4211,-6.5158,0.0,-6.6306,-6.7063,-6.8493,-7.0032,-7.0527,-6.9715,-6.9069,-6.8059,-6.6526,-6.5572,-6.5388,-6.5859,-6.4628,-6.3782,-6.3281,-6.205,-6.1243,-6.0781,0.0,-6.0781,-6.0781,-6.0781,-6.0781,-6.0781,-6.0781,-6.0781,-6.0781,-6.0781,-6.0242,-5.9435,0.0,0.0,0.0,0.0,0.0,0.0,0.0,0.0,0.0,0.0,-3.8815,-3.9631,0.0,0.0,0.0,0.0,0.0,0.0,0.0,0.0,-4.0516,-4.0516,-4.1239,-4.1277,-4.0516,-4.2085,-4.2508,-4.1623,-4.2508,-4.2854,-4.2777,-4.3008,-4.3085,-4.3124,-4.4047,-4.4893,-4.5594,-4.5594,-4.5793,-4.5981,-4.413,-4.3649,-4.3877,0.0,-4.3056,-4.3952,-4.366,-4.3758,-4.4319,-4.6529,-4.7297,-4.7678,-4.9627,-5.1053,-5.2676,-5.6218,-5.8162,-5.9885,-6.2859,-6.4823,-6.5974,-6.5784,-6.4165,-6.1682,-5.8165,-5.433,-5.0274,-4.5881,-4.3939,-4.2543,-4.1058,-4.1421,-4.3389,-4.7702,0.0,-5.3196,-5.9799,-6.0592,-6.1793,-6.5279,-6.5581,-6.5581,-6.5841,-6.5543,-6.5612,-6.6303,-6.6719,-6.7376,-6.8502,-6.9797,-6.9671,-6.7825,-6.7443,-6.6531,-6.5019,-6.4916,-6.5184,-6.569,-6.4064,-6.3233,-6.3169,-6.1593,-6.0861,-6.0781,0.0,0.0,-6.0781,-6.0781,-6.0781,-6.0781,-6.0781,-6.0781,-6.0781,-6.0781,-6.0319,-5.9665,0.0,0.0,0.0,0.0,0.0,0.0,0.0,0.0,0.0,0.0,-3.9207,-3.9631,0.0,0.0,0.0,0.0,0.0,0.0,0.0,0.0,0.0,-4.0516,-4.0631,-4.0669,-4.0516,-4.1508,-4.1585,-4.0746,-4.1585,-4.1662,-4.0977,-4.2431,-4.3085,-4.3162,-4.4701,-4.5479,-4.5594,-4.5594,-4.5486,-4.523,-4.4217,-4.3882,-4.3908,-4.3044,0.0,0.0,-4.3943,-4.3974,-4.4446,-4.7222,-4.8364,-4.9196,-5.2587,-5.426,-5.5764,-5.9915,-6.1488,-6.2709,-6.6182,-6.7713,-6.8022,-6.6823,-6.4579,-6.1353,-5.6329,-5.1737,0.0,-4.3619,-4.1597,-4.023,-3.9276,-4.0304,-4.285,-4.77,-5.0413,-5.3892,-5.9449,-6.191,-6.3524,0.0,-6.6333,-6.7014,-6.5762,0.0,0.0,0.0,0.0,-6.6218,-6.7108,-6.8035,-6.7789,-6.6106,-6.5619,-6.5113,-6.4537,-6.4079,-6.4119,-6.4643,-6.3623,-6.2976,-6.2695,-6.1664,-6.1067,-6.0781,-6.0781,0.0,-6.0781,-6.0781,-6.0781,-6.0781,-6.0781,-6.0781,-6.0781,-6.0781,-6.0704,-6.0473,0.0,0.0,0.0,0.0,0.0,0.0,0.0,-3.7507,-3.8661,-4.0392,-4.1008,-4.1239,-4.1162,-4.0785,-4.0516,0.0,0.0,0.0,0.0,0.0,0.0,0.0,-4.0516,-4.0516,-4.0516,-4.1354,-4.1585,-4.1162,0.0,-4.2277,-4.1854,-4.2701,-4.3085,-4.3124,-4.3932,-4.4509,-4.4932,-4.4932,-4.51,-4.5323,-4.4732,-4.4445,-4.4252,0.0,0.0,0.0,-4.4233,-4.4304,-4.4646,-4.6938,-4.8251,-4.9698,-5.432,-5.6665,-5.8357,-6.1743,-6.3598,-6.4916,-6.6862,-6.8772,-6.9535,-6.6767,-6.3894,-6.0148,-5.4112,0.0,0.0,-4.1199,-3.9827,-3.9166,-3.8762,-3.9829,0.0,-4.5063,-4.747,-5.0889,-5.6466,-5.8765,0.0,-6.4423,-6.5765,-6.6455,0.0,0.0,0.0,0.0,0.0,-6.5493,-6.6973,-6.6396,-6.5776,-6.5253,-6.4316,-6.3884,-6.3995,-6.3723,-6.3647,-6.3709,-6.2898,-6.2176,-6.1581,-6.0951,-6.0571,-6.0456,-6.0671,0.0,-6.0781,-6.0781,-6.0781,-6.0781,-6.0781,-6.0781,-6.0781,-6.0781,-6.0781,-6.0742,0.0,0.0,0.0,0.0,0.0,0.0,-3.7738,-3.8738,-3.9969,-4.1816,-4.2662,-4.2854,-4.2162,-4.1123,-4.0516,0.0,0.0,0.0,0.0,0.0,0.0,0.0,0.0,0.0,0.0,0.0,0.0,0.0,-4.2931,0.0,0.0,0.0,0.0,0.0,-4.3547,-4.397,-4.4586,-4.4586,-4.4979,0.0,0.0,-4.4954,0.0,0.0,0.0,0.0,0.0,-4.4521,-4.4718,-4.6416,-4.768,-4.9337,-5.4173,-5.7201,-5.9473,-6.2012,-6.4405,-6.6303,-6.6673,-6.8883,-7.0112,-6.6201,-6.2601,-5.8375,-5.214,-4.7332,0.0,-3.9467,-3.8689,-3.8689,-3.8689,-3.9453,-4.0654,0.0,-4.4363,-4.748,-5.3132,-5.5432,-5.8484,0.0,-6.4715,0.0,0.0,0.0,0.0,0.0,0.0,0.0,-6.6513,-6.4832,-6.4009,-6.4419,-6.337,-6.3014,-6.3431,-6.3431,-6.3227,-6.2782,-6.2124,-6.1394,-6.0527,-6.0177,-6.0007,-5.9962,-6.0338,0.0,0.0,-6.061,-6.0647,-6.0647,-6.0757,-6.0781,-6.0781,-6.0781,-6.0781,-6.0781,0.0,0.0,0.0,0.0,0.0,0.0,-3.7623,-3.8738,-4.02,-4.2662,-4.3047,-4.3085,-4.3008,-4.1516,-4.0516,0.0,0.0,0.0,0.0,0.0,0.0,0.0,0.0,0.0,0.0,0.0,0.0,-4.297,0.0,0.0,0.0,0.0,0.0,0.0,0.0,0.0,-4.5479,-4.5479,0.0,0.0,0.0,0.0,0.0,0.0,0.0,0.0,0.0,-4.4359,-4.4319,-4.6075,-4.6905,-4.7778,-5.0585,-5.4129,-5.7753,-6.0281,0.0,0.0,-6.6616,-6.8274,-6.8982,-6.5236,-6.0891,-5.6194,-5.0992,0.0,-4.1777,-3.9218,-3.8689,-3.8689,-3.8689,-3.8793,-3.9763,-4.2482,-4.3675,-4.5978,-5.1011,-5.4932,-5.8361,-6.1249,0.0,0.0,0.0,0.0,0.0,0.0,0.0,0.0,-6.4375,-6.3454,-6.294,-6.299,-6.2867,-6.283,-6.288,-6.288,-6.2487,-6.175,-6.1677,-6.1047,-5.9946,-5.9933,-5.974,-5.9458,-5.9509,0.0,0.0,-5.9977,-6.0161,-6.0203,-6.0634,-6.0781,-6.0781,-6.0781,-6.0781,-6.0781,0.0,0.0,0.0,0.0,0.0,0.0,-3.77,-3.8738,-4.02,-4.2777,-4.3508,-4.3816,-4.3816,-4.1824,-4.0516,-4.0516,-3.9746,0.0,0.0,0.0,0.0,0.0,0.0,0.0,0.0,0.0,-4.3816,-4.3816,-4.4662,0.0,0.0,0.0,0.0,0.0,0.0,0.0,0.0,-4.5594,0.0,0.0,0.0,0.0,0.0,0.0,0.0,0.0,0.0,0.0,-4.4472,-4.5162,-4.5021,-4.4773,-4.624,-4.8031,-5.0744,-5.6524,-6.0545,-6.3321,-6.4273,-6.6826,-6.8279,-6.4443,-6.0101,-5.5517,-5.0792,0.0,-4.1258,-3.9139,-3.8689,-3.8689,-3.8689,-3.8689,-3.9059,-4.0193,-4.0629,0.0,-4.6109,-4.8845,-5.2417,-5.7617,0.0,0.0,0.0,0.0,0.0,0.0,0.0,0.0,-6.3319,-6.2989,-6.278,-6.278,-6.278,-6.278,-6.278,-6.278,-6.2401,-6.1594,-6.1117,-6.0391,-5.9479,-5.9255,-5.9074,-5.9009,-5.9266,0.0,0.0,-5.9592,-5.9855,-6.0103,-5.9977,-6.0311,-6.0757,-6.0482,-6.0585,-6.0781,0.0,0.0,0.0,0.0,0.0,-3.5385,-3.7315,-3.8584,-4.0123,-4.2431,-4.3201,-4.3662,-4.3932,-4.1431,-4.0054,-4.0816,-3.9662,0.0,0.0,0.0,0.0,0.0,0.0,0.0,0.0,0.0,-4.4432,-4.4662,-4.5287,-4.5594,0.0,0.0,0.0,0.0,0.0,0.0,0.0,0.0,0.0,0.0,0.0,0.0,0.0,0.0,0.0,0.0,0.0,0.0,0.0,0.0,0.0,-4.2557,-4.3215,-4.3491,-4.4903,-5.1738,-5.6466,-5.9718,-6.0751,-6.4086,-6.6351,-6.2654,-5.844,-5.4175,0.0,0.0,-4.0652,-3.9044,-3.8689,-3.8689,-3.8689,-3.8689,-3.8689,-3.8689,-3.8909,-4.0084,-4.3074,-4.5076,-4.8366,0.0,0.0,0.0,0.0,0.0,0.0,0.0,0.0,0.0,0.0,-6.278,-6.278,-6.278,-6.2585,-6.2585,-6.278,-6.2585,-6.2034,-6.1227,-6.0676,-5.9869,-5.8841,-5.8606,-5.8503,-5.8487,0.0,0.0,0.0,-5.9121,-5.9372,-5.9696,-5.9475,-5.9808,-6.0338,-5.9991,-6.0103,-6.0378,0.0,0.0,0.0,0.0,0.0,-3.3776,-3.6346,-3.82,-3.9892,-4.1577,-4.1808,-4.2162,-4.3008,-4.0085,-3.9046,-4.1577,-3.9469,0.0,0.0,0.0,0.0,0.0,0.0,0.0,0.0,0.0,-4.4701,-4.5594,-4.5594,-4.5594,-4.5594,-4.5594,-4.5594,-4.5594,0.0,0.0,0.0,0.0,0.0,0.0,0.0,0.0,-4.5044,0.0,0.0,0.0,0.0,0.0,0.0,0.0,0.0,0.0,0.0,-4.1696,-4.1742,-4.5974,-5.109,-5.5524,-5.6179,-5.9792,-6.2615,-5.9534,-5.5457,-5.1456,0.0,-4.3706,-3.9696,-3.8872,-3.8689,-3.8689,-3.8689,-3.8689,-3.8689,-3.8689,-3.935,0.0,-4.3184,-4.559,0.0,0.0,0.0,0.0,0.0,0.0,0.0,0.0,0.0,0.0,0.0,-6.278,-6.278,-6.278,-6.2034,-6.1998,-6.278,-6.1998,-6.119,-6.0419,-6.0419,-5.9575,-5.7997,-5.7997,-5.802,0.0,0.0,0.0,0.0,-5.8545,-5.8733,-5.8756,-5.9212,-5.9407,-5.9407,-5.9407,-5.9407,-5.9407,0.0,0.0,0.0,0.0,0.0,0.0,-3.4853,-3.643,-3.793,-3.9046,-3.9738,-4.0392,-4.1247,-3.9315,-3.8777,-4.0739,-3.9123,0.0,0.0,0.0,0.0,0.0,0.0,0.0,0.0,-4.3893,-4.4739,-4.5594,-4.5594,-4.5594,-4.5594,-4.5594,-4.5594,-4.5594,-4.5594,0.0,0.0,0.0,0.0,0.0,0.0,-4.4676,-4.4751,0.0,0.0,0.0,0.0,0.0,0.0,0.0,0.0,0.0,0.0,0.0,0.0,-4.1616,-4.5544,-4.9618,-5.1608,-5.405,-5.5692,-5.4145,-5.1482,-4.8566,-4.5926,-4.2536,-3.968,-3.8872,-3.8689,-3.8689,-3.8689,-3.8689,-3.8872,-3.9423,-3.9717,0.0,0.0,0.0,0.0,0.0,0.0,0.0,0.0,0.0,0.0,0.0,0.0,0.0,0.0,-6.2291,-6.2218,-6.278,-6.2548,-6.2291,-6.1998,-6.1741,-6.119,-6.0382,-5.9832,-5.9294,-5.8804,-5.8253,0.0,0.0,0.0,0.0,0.0,-5.8164,-5.8418,-5.8693,-5.8487,-5.8835,-5.9354,-5.9065,-5.9102,-5.9314,0.0,0.0,0.0,0.0,0.0,0.0,-3.3705,-3.543,-3.6885,-3.743,-3.7969,-3.8738,-3.9938,-3.8277,-3.7853,-3.9861,-3.8777,0.0,0.0,0.0,0.0,0.0,0.0,0.0,-4.3085,-4.3893,-4.4739,-4.5594,-4.5594,-4.5594,-4.5594,-4.5594,-4.5594,-4.5594,-4.5594,-4.5594,0.0,0.0,0.0,0.0,-4.4872,-4.48,-4.4788,0.0,0.0,0.0,0.0,0.0,0.0,0.0,0.0,0.0,0.0,0.0,0.0,0.0,-4.1378,-4.4172,-4.7282,-4.9575,-5.0911,-5.0058,-4.8149,-4.5993,-4.3952,-4.1382,-3.9313,-3.8799,-3.8689,-3.8689,-3.8689,-3.8689,-3.8872,-3.935,-3.946,0.0,0.0,0.0,0.0,0.0,0.0,0.0,0.0,0.0,0.0,0.0,0.0,0.0,0.0,-6.2034,-6.1814,-6.2328,-6.1753,-6.1374,-6.1153,-6.086,-6.0456,-5.9942,-5.9441,-5.9038,-5.8731,-5.8217,0.0,0.0,0.0,0.0,0.0,-5.7997,-5.8186,-5.8397,-5.8119,-5.8169,-5.8387,-5.8083,-5.7962,-5.7884,0.0,0.0,0.0,0.0,0.0,0.0,0.0,-3.5007,-3.6615,-3.6615,-3.6615,-3.7238,-3.8854,-3.693,-3.65,-3.8977,-3.8469,0.0,0.0,0.0,0.0,0.0,0.0,0.0,-4.3008,-4.3816,-4.4624,-4.5518,-4.5556,-4.5594,-4.5594,-4.5594,-4.5594,-4.5594,-4.5594,-4.5594,-4.5594,-4.5577,-4.539,-4.5115,-4.5055,-4.5094,0.0,0.0,0.0,0.0,0.0,0.0,0.0,0.0,0.0,0.0,0.0,0.0,0.0,0.0,0.0,0.0,0.0,-4.6035,-4.7683,-4.6797,-4.523,-4.358,-4.2345,-4.0304,0.0,-3.8689,-3.8689,-3.8726,-3.8762,-3.8726,-3.8726,-3.8872,0.0,0.0,0.0,0.0,0.0,0.0,0.0,0.0,0.0,0.0,0.0,0.0,0.0,0.0,0.0,-6.1998,-6.152,-6.152,-5.9942,-5.9478,-6.0309,-5.9551,-5.9148,-5.9111,-5.9111,-5.8731,-5.7997,-5.7997,0.0,0.0,0.0,0.0,0.0,-5.7997,-5.7997,-5.7997,-5.7997,-5.7519,-5.6822,-5.6859,-5.6381,-5.5684,0.0,0.0,0.0,0.0,0.0,0.0,0.0,0.0,0.0,0.0,-3.5769,-3.5923,-3.6346,-3.5846,-3.6269,0.0,0.0,0.0,0.0,0.0,0.0,0.0,0.0,0.0,-4.2085,-4.2931,-4.3778,-4.4624,-4.5287,-4.5594,-4.5594,-4.5594,-4.5594,-4.5594,-4.5594,-4.5594,-4.5577,-4.5341,-4.518,-4.5094,-4.4825,-4.4872,0.0,0.0,0.0,0.0,-4.3002,-4.2193,0.0,0.0,0.0,0.0,0.0,0.0,0.0,0.0,-3.8689,-3.8909,-3.9863,0.0,-4.185,-4.1654,-4.1261,-4.0661,0.0,-3.9129,-3.8689,-3.8689,-3.8689,-3.8909,-3.9496,-3.9129,-3.9093,-4.0325,0.0,0.0,0.0,0.0,0.0,0.0,0.0,0.0,0.0,0.0,0.0,0.0,0.0,0.0,0.0,-6.1447,-6.0676,-6.0676,-5.9134,-5.8657,-5.9478,-5.9294,-5.8914,-5.829,-5.829,-5.818,-5.7997,-5.7997,0.0,0.0,0.0,0.0,-5.7997,-5.7997,-5.7997,-5.7997,-5.7997,-5.7519,-5.6859,-5.7483,-5.7226,-5.6528,0.0,0.0,0.0,0.0,0.0,0.0,0.0,0.0,0.0,0.0,-3.55,-3.55,-3.55,-3.55,-3.6,0.0,0.0,0.0,0.0,0.0,0.0,0.0,0.0,-4.1093,-4.2354,-4.2854,-4.3701,-4.4893,-4.5364,-4.5594,-4.5594,-4.5594,-4.5594,-4.5594,-4.5594,-4.5594,-4.5586,-4.541,-4.5232,-4.5115,-4.5055,0.0,0.0,0.0,0.0,0.0,-4.1698,-4.1061,0.0,-4.0104,-3.9717,-3.935,0.0,0.0,0.0,0.0,-3.8689,-3.8689,-3.8689,-3.9019,-3.935,-3.935,-3.935,-3.9239,-3.8799,-3.8689,-3.8689,-3.8689,-3.8689,-3.8836,-3.9276,-3.9313,-3.9533,0.0,-4.0838,0.0,0.0,0.0,0.0,0.0,0.0,0.0,0.0,0.0,0.0,0.0,0.0,0.0,0.0,-6.086,-6.0236,-5.9869,-5.8657,-5.8217,-5.8657,-5.8657,-5.8437,-5.7997,-5.7997,-5.7997,-5.7997,-5.7997,-5.7997,0.0,0.0,0.0,-5.7997,-5.7997,-5.7997,-5.7997,-5.7997,-5.7519,-5.6859,-5.7299,-5.6932,-5.6235,0.0,0.0,0.0,0.0,0.0,0.0,0.0,0.0,0.0,0.0,0.0,0.0,0.0,0.0,0.0,0.0,0.0,0.0,0.0,0.0,0.0,0.0,-4.0516,-4.1247,-4.2854,-4.3047,-4.3855,-4.5402,-4.5518,-4.5594,-4.5594,-4.5594,-4.5594,-4.5594,-4.5594,-4.5594,-4.5594,-4.555,-4.54,-4.5201,-4.5237,0.0,0.0,0.0,0.0,0.0,0.0,0.0,0.0,-3.8946,-3.8689,-3.8689,-3.8689,0.0,0.0,0.0,0.0,0.0,-3.8689,-3.8799,-3.8836,-3.8726,-3.8689,-3.8689,-3.8689,-3.8689,-3.8689,-3.8689,-3.8689,-3.8726,-3.8872,-3.9423,0.0,0.0,0.0,0.0,0.0,0.0,0.0,0.0,0.0,0.0,0.0,0.0,0.0,0.0,0.0,0.0,0.0,-6.0272,-5.9905,-5.9221,-5.8437,-5.7997,-5.7997,-5.7997,-5.7997,-5.7997,-5.7997,-5.7997,-5.7997,-5.7997,-5.7997,0.0,0.0,0.0,-5.7997,-5.7997,-5.7997,-5.7997,-5.7997,-5.7519,-5.6822,-5.6932,-5.6455,-5.5757,0.0,0.0,0.0,0.0,0.0,0.0,0.0,0.0,0.0,0.0,0.0,0.0,0.0,0.0,0.0,0.0,0.0,0.0,0.0,0.0,0.0,-4.0516,-4.0516,-4.0969,-4.1962,-4.2739,-4.3547,-4.4509,-4.5248,-4.5594,-4.5594,-4.5594,-4.5594,-4.5594,-4.5594,-4.5594,-4.5577,-4.5283,-4.5293,-4.5428,-4.4178,0.0,0.0,0.0,0.0,0.0,0.0,0.0,0.0,-3.8726,-3.8689,-3.8689,-3.8689,0.0,0.0,0.0,0.0,0.0,-3.8689,-3.9203,-3.9533,-3.8872,-3.8689,-3.8689,-3.8689,-3.8689,-3.8689,-3.8689,-3.8689,-3.8909,-3.957,-3.9827,-4.0341,0.0,0.0,0.0,0.0,0.0,0.0,0.0,0.0,0.0,0.0,0.0,0.0,0.0,0.0,0.0,0.0,0.0,-5.9331,-5.9184,-5.8437,-5.7997,-5.7997,-5.7997,-5.7997,-5.7997,-5.7997,-5.7997,-5.7997,-5.7997,-5.7997,0.0,0.0,-5.7997,-5.7997,-5.7997,-5.7997,-5.7997,-5.7997,-5.7519,-5.6895,-5.7556,-5.7299,-5.6528,0.0,0.0,0.0,0.0,0.0,0.0,0.0,0.0,0.0,0.0,0.0,0.0,0.0,0.0,0.0,0.0,0.0,0.0,0.0,0.0,-4.0708,-4.1162,-4.12,-4.1623,-4.247,-4.3316,-4.4162,-4.5017,-4.5402,-4.5594,-4.5594,-4.5594,-4.5594,-4.5594,-4.5594,-4.5594,-4.5586,-4.5429,-4.5112,-4.4624,0.0,0.0,0.0,0.0,0.0,0.0,0.0,0.0,0.0,0.0,-3.8689,-3.8689,-3.8689,0.0,0.0,0.0,0.0,0.0,-3.8689,-3.8982,-3.9276,-3.9313,-3.968,-3.9884,-3.946,-3.968,-3.9994,-3.9994,-3.9994,-4.012,0.0,0.0,-4.3314,-4.5847,0.0,0.0,0.0,0.0,0.0,0.0,0.0,0.0,0.0,0.0,0.0,0.0,0.0,0.0,0.0,0.0,-5.9001,-5.8584,-5.818,-5.7997,-5.7997,-5.7997,-5.7997,-5.7997,-5.7556,-5.7336,-5.7336,-5.7336,-5.7336,-5.7373,0.0,-5.774,-5.7336,-5.7336,-5.7336,-5.7299,-5.6859,-5.7005,-5.7483,-5.785,-5.7483,-5.6675,0.0,0.0,0.0,0.0,0.0,0.0,0.0,0.0,0.0,0.0,0.0,0.0,0.0,0.0,0.0,0.0,0.0,0.0,0.0,-4.0516,-4.0893,-4.1769,-4.2,-4.2508,-4.3355,-4.397,-4.4739,-4.5594,-4.5594,-4.5594,-4.5594,-4.5594,-4.5594,-4.5594,-4.5594,-4.5594,-4.5594,-4.5364,-4.4777,-4.3861,0.0,0.0,0.0,0.0,0.0,0.0,0.0,0.0,0.0,0.0,0.0,0.0,0.0,0.0,0.0,-3.8689,-3.8689,-3.8689,-3.8689,-3.8836,-3.9093,-3.9496,-4.0084,-4.0561,-4.0708,-4.1075,-4.1535,-4.2086,-4.2049,-4.1866,0.0,-4.3627,0.0,0.0,0.0,0.0,0.0,0.0,0.0,0.0,0.0,0.0,0.0,0.0,0.0,0.0,0.0,0.0,0.0,0.0,-5.8657,-5.8033,-5.7997,-5.7997,-5.7997,-5.7997,-5.7997,-5.7997,-5.7189,-5.6895,-5.7079,-5.6895,-5.6822,-5.6822,-5.7446,-5.7262,-5.6528,-5.6528,-5.6528,-5.6455,-5.5831,-5.6455,-5.7703,-5.7703,-5.7336,-5.6675,0.0,0.0,0.0,0.0,0.0,0.0,0.0,0.0,0.0,0.0,0.0,0.0,0.0,0.0,0.0,0.0,0.0,0.0,0.0,-4.0516,-4.0893,-4.1769,-4.2585,-4.3393,-4.4201,-4.4278,-4.4739,-4.5594,-4.5594,-4.5594,-4.5594,-4.5594,-4.5594,-4.5594,-4.5594,-4.5594,-4.5556,-4.4739,-4.4192,-4.3736,-4.1855,0.0,0.0,0.0,0.0,0.0,0.0,0.0,0.0,0.0,0.0,0.0,0.0,0.0,-3.8689,-3.8689,-3.8689,-3.8689,-3.8689,-3.9239,-3.9643,-3.8946,-3.8836,-3.9643,-4.258,-4.269,-4.2837,-4.5076,-4.4966,-4.4232,0.0,-4.5296,0.0,0.0,0.0,0.0,0.0,0.0,0.0,0.0,0.0,0.0,0.0,0.0,0.0,0.0,0.0,0.0,0.0,0.0,0.0,-5.7997,-5.7997,-5.7997,-5.7997,-5.7997,-5.7997,-5.7997,-5.7189,-5.7189,-5.7886,-5.7152,-5.6822,-5.6822,-5.6859,-5.6418,-5.5684,-5.5684,-5.5684,-5.5706,-5.5611,-5.6124,-5.6895,-5.6895,-5.6859,-5.6675,0.0,0.0,0.0,0.0,0.0,0.0,0.0,0.0,0.0,0.0,0.0,0.0,0.0,0.0,0.0,0.0,0.0,0.0,0.0,-4.0785,-4.1362,-4.3278,-4.3201,-4.3739,-4.5094,-4.5094,-4.5287,-4.5594,-4.5594,-4.5594,-4.5594,-4.5594,-4.5594,-4.5594,-4.5594,-4.5594,-4.5547,-4.4489,-4.3545,-4.2651,-4.1193,-4.01,0.0,0.0,0.0,0.0,0.0,0.0,0.0,0.0,-3.7624,-3.7294,-3.7808,-3.7955,-3.8028,-3.8542,-3.8689,-3.8689,-3.8689,-3.9276,-3.9827,-3.9533,-3.9827,-4.0891,-4.3644,-4.4415,-4.5076,-4.6985,-4.7572,-4.7498,-4.6654,0.0,0.0,0.0,0.0,0.0,0.0,0.0,0.0,0.0,0.0,0.0,0.0,0.0,0.0,0.0,0.0,0.0,0.0,0.0,0.0,-5.7226,-5.7262,-5.7262,-5.7262,-5.7262,-5.7005,-5.6492,-5.6198,-5.5941,-5.5757,-5.5464,-5.5317,-5.5354,-5.5831,-5.5611,-5.484,-5.484,-5.484,-5.4913,-5.539,-5.5794,-5.6088,-5.6638,-5.6822,-5.6675,0.0,0.0,0.0,0.0,0.0,0.0,0.0,0.0,0.0,0.0,0.0,0.0,0.0,0.0,0.0,0.0,0.0,0.0,-4.2162,-4.1393,-4.1816,-4.3816,-4.3124,-4.347,-4.5171,-4.521,-4.5325,-4.5594,-4.5594,-4.5594,-4.5594,-4.5594,-4.5594,-4.5594,-4.5594,-4.555,-4.5352,-4.4047,-4.2883,-4.1819,-4.052,-3.9466,0.0,0.0,0.0,0.0,0.0,0.0,0.0,0.0,-3.6758,-3.645,-3.7235,-3.7492,-3.7676,-3.8469,-3.8689,-3.8689,-3.8689,-3.9093,-3.957,-3.9827,-4.0487,-4.1976,-4.5443,-4.6434,-4.7352,-4.9738,-4.9884,-4.9444,-4.915,0.0,0.0,0.0,0.0,0.0,0.0,0.0,0.0,0.0,0.0,0.0,0.0,0.0,0.0,0.0,0.0,0.0,0.0,0.0,0.0,0.0,-5.6418,-5.6418,-5.6418,-5.6418,-5.6014,-5.5207,-5.5207,-5.506,-5.4766,-5.4509,-5.4399,-5.4436,-5.4987,-5.4766,-5.4032,-5.4032,-5.4179,-5.4436,-5.4987,-5.5354,-5.5684,-5.6492,-5.6638,-5.6345,0.0,0.0,0.0,0.0,0.0,0.0,0.0,0.0,-4.0477,-4.0516,-4.0516,0.0,0.0,0.0,0.0,0.0,0.0,0.0,-4.3047,-4.2316,-4.22,-4.3085,-4.2277,-4.2585,-4.4239,-4.4316,-4.4739,-4.5594,-4.5594,-4.5594,-4.5594,-4.5594,-4.5594,-4.5594,-4.5594,-4.541,-4.4963,-4.3306,-4.2214,-4.1455,-3.9764,-3.8933,-3.8689,0.0,0.0,0.0,0.0,0.0,0.0,0.0,-3.6303,-3.6413,-3.7235,-3.7492,-3.7639,-3.8469,-3.8689,-3.8689,-3.8689,-3.8726,-3.8909,-3.9717,-4.0524,-4.2599,-4.8233,-4.8893,-4.9481,-5.3555,-5.1793,-4.9811,-5.0655,-5.0839,0.0,0.0,0.0,0.0,0.0,0.0,0.0,0.0,0.0,0.0,0.0,0.0,0.0,0.0,0.0,0.0,0.0,0.0,0.0,0.0,-5.5574,-5.5574,-5.5574,-5.5574,-5.517,-5.4399,-5.4399,-5.4803,-5.5559,-5.473,-5.4399,-5.4399,-5.4399,-5.3959,-5.3203,-5.3203,-5.3665,-5.4399,-5.4399,-5.4876,-5.5684,-5.6492,-5.6271,-5.5596,0.0,0.0,0.0,0.0,0.0,0.0,0.0,0.0,-3.9861,-4.0439,-4.0516,0.0,0.0,0.0,0.0,0.0,0.0,0.0,-4.3893,-4.3162,-4.3085,-4.3893,-4.3162,-4.297,-4.3431,-4.4008,-4.4739,-4.5594,-4.5594,-4.5594,-4.5594,-4.5594,-4.5594,-4.5586,-4.5371,-4.4868,-4.4183,-4.2811,-4.1682,-4.0649,-3.9541,-3.8933,-3.8689,0.0,0.0,0.0,0.0,0.0,0.0,0.0,0.0,0.0,-3.6193,-3.6684,-3.6927,-3.8285,-3.8689,-3.8689,-3.8689,-3.9129,-3.9753,-4.0561,-4.2196,-4.4672,-4.86,-4.8893,-4.9481,-5.3555,-5.3188,-5.2197,-5.2454,0.0,0.0,0.0,0.0,0.0,0.0,0.0,0.0,0.0,0.0,0.0,0.0,0.0,0.0,0.0,0.0,0.0,0.0,0.0,0.0,0.0,-5.4766,-5.4766,-5.4766,-5.4766,-5.4363,-5.3555,-5.3555,-5.3702,-5.3922,-5.3665,-5.3555,-5.3555,-5.3555,-5.3445,-5.3203,-5.3203,-5.3665,-5.4326,-5.3775,-5.4399,-5.5537,-5.5244,-5.5317,-5.5522,0.0,0.0,0.0,0.0,0.0,0.0,0.0,0.0,-3.9938,-4.0439,-4.0516,-4.0516,0.0,0.0,0.0,0.0,0.0,0.0,-4.4739,-4.4047,-4.3778,-4.4278,-4.3201,-4.2585,-4.2585,-4.3393,-4.4085,-4.4624,-4.5287,-4.5594,-4.5594,-4.5594,-4.5594,-4.5586,-4.5243,-4.463,-4.3781,-4.2593,-4.143,-4.0286,-3.9429,-3.8933,-3.8689,0.0,0.0,0.0,0.0,0.0,0.0,0.0,0.0,0.0,-3.6156,-3.656,-3.6633,-3.8248,-3.8689,-3.8689,-3.8689,-3.9276,-4.023,-4.1699,-4.3864,-4.6599,-5.0178,-5.1353,-5.2491,0.0,-5.4693,-5.3885,-5.4509,0.0,0.0,0.0,0.0,0.0,0.0,0.0,0.0,0.0,0.0,0.0,0.0,0.0,0.0,0.0,0.0,0.0,0.0,0.0,0.0,0.0,-5.3922,-5.3922,-5.3922,-5.3922,-5.3702,-5.3203,-5.3203,-5.3203,-5.3203,-5.3203,-5.3203,-5.3203,-5.3203,-5.3203,-5.3203,-5.3203,-5.3665,-5.4363,-5.3885,-5.4289,-5.5097,-5.495,-5.4987,-5.506,0.0,0.0,-3.5615,-3.5615,0.0,0.0,0.0,0.0,-4.0516,-4.0516,-4.0516,-4.0516,0.0,0.0,0.0,0.0,0.0,0.0,0.0,-4.4855,-4.4355,-4.4201,-4.2585,-4.1692,-4.1692,-4.2547,-4.297,-4.297,-4.4662,-4.5479,-4.5479,-4.5556,-4.5577,-4.555,-4.5232,-4.456,-4.3591,-4.2532,-4.1342,-4.0133,-3.9378,-3.8933,-3.8689,-3.8689,0.0,0.0,0.0,0.0,0.0,0.0,0.0,0.0,-3.6648,-3.6905,-3.6633,-3.8248,-3.8689,-3.8726,-3.8799,-3.9386,-4.0598,-4.3111,-4.57,-4.8654,-5.2433,-5.506,-5.6895,-5.7629,0.0,-5.517,-5.6638,0.0,0.0,0.0,0.0,0.0,0.0,0.0,0.0,0.0,0.0,0.0,0.0,0.0,0.0,0.0,0.0,0.0,0.0,0.0,0.0,0.0,-5.3115,-5.3151,-5.3203,-5.3203,-5.3203,0.0,-5.3203,-5.3203,-5.3203,-5.3203,-5.3203,-5.3203,-5.3203,-5.3203,-5.3203,-5.3203,-5.3665,-5.4399,-5.4326,-5.4326,-5.4473,-5.5133,-5.4913,-5.4289,0.0,0.0,-3.6423,-3.6423,0.0,0.0,0.0,0.0,0.0,-4.0516,-4.0516,0.0,0.0,0.0,0.0,0.0,0.0,0.0,0.0,-4.5441,-4.4739,-4.3431,-4.17,-4.0785,-4.0785,-4.1623,-4.2085,-4.2085,-4.3778,-4.4586,-4.4586,-4.5287,-4.5448,-4.5201,-4.5148,-4.4117,-4.247,-4.2208,-4.1054,-3.9341,-3.9154,-3.8933,-3.8689,-3.8689,-3.8579,0.0,0.0,0.0,0.0,0.0,0.0,0.0,-3.6156,-3.645,-3.6633,-3.8248,-3.8689,-3.8836,-3.946,-4.023,-4.1589,-4.4635,-4.8673,-5.2286,-5.3812,-5.5023,-5.5904,-5.6088,-5.6712,-5.7336,0.0,0.0,0.0,0.0,0.0,0.0,0.0,0.0,0.0,0.0,0.0,0.0,0.0,0.0,0.0,0.0,0.0,0.0,0.0,0.0,0.0,-5.2234,-5.227,-5.2564,-5.3167,-5.3203,-5.3203,0.0,-5.3203,-5.3203,-5.3203,-5.3203,-5.3203,-5.3203,-5.3203,-5.3203,-5.3203,-5.3203,-5.3665,-5.4326,-5.3702,-5.3849,-5.4326,-5.3885,-5.3628,-5.3482,0.0,0.0,0.0,0.0,0.0,0.0,0.0,0.0,0.0,0.0,0.0,0.0,0.0,0.0,0.0,0.0,-4.4239,0.0,0.0,-4.5594,-4.4863,-4.3162,-4.1816,-4.0931,-4.0516,-4.0931,-4.1162,-4.1162,-4.2893,-4.3932,-4.4316,-4.5045,-4.5371,-4.5341,-4.5,-4.4019,-4.2557,-4.2241,-4.1029,-3.9327,-3.916,-3.8933,-3.8689,-3.8689,-3.8469,-3.8138,-3.8138,0.0,0.0,0.0,0.0,0.0,0.0,0.0,-3.7125,-3.8358,-3.8689,-3.8799,-3.9203,-4.0194,-4.2049,-4.6067,0.0,-5.3408,-5.4216,-5.5023,-5.5596,-5.5596,-5.6271,0.0,0.0,0.0,0.0,0.0,0.0,0.0,0.0,0.0,0.0,0.0,0.0,0.0,0.0,0.0,0.0,0.0,0.0,0.0,0.0,-5.0435,-5.0582,-5.1389,-5.1426,-5.1793,-5.2637,-5.2234,-5.2234,-5.2637,-5.2234,-5.205,-5.2087,-5.2837,-5.3004,-5.2637,-5.3041,-5.3004,-5.2674,-5.3041,-5.3445,-5.3775,-5.3371,-5.3482,-5.3775,-5.3371,-5.3203,-5.3203,0.0,0.0,0.0,0.0,0.0,0.0,0.0,0.0,0.0,0.0,0.0,0.0,0.0,0.0,-4.2316,0.0,0.0,0.0,0.0,0.0,0.0,-4.3162,-4.2124,-4.1239,-4.0516,-4.0516,-4.0516,-4.0516,-4.2239,-4.3431,-4.4124,-4.4834,-4.5263,-4.541,-4.4919,-4.4117,-4.309,-4.2397,-4.1203,-3.9771,-3.93,-3.8975,-3.8743,-3.8719,-3.8285,-3.7713,-3.7713,-3.7272,-3.678,-3.7309,0.0,0.0,0.0,0.0,-3.7676,-3.8469,-3.8689,-3.8726,-3.8872,-4.0288,-4.2746,-4.7021,-5.0362,0.0,-5.3775,-5.4509,-5.5045,-5.5133,0.0,0.0,0.0,0.0,0.0,0.0,0.0,0.0,0.0,0.0,0.0,0.0,0.0,0.0,0.0,0.0,0.0,0.0,0.0,0.0,-5.0325,-4.9738,-4.9738,-5.0582,-5.0582,-5.0986,-5.1793,-5.1132,-5.1132,-5.1756,-5.1132,-5.0802,-5.0839,-5.2197,-5.2417,-5.183,-5.2491,-5.2491,-5.205,-5.2711,-5.3057,-5.3203,-5.3203,-5.3203,-5.3203,-5.3203,-5.3203,-5.3203,0.0,0.0,0.0,0.0,0.0,0.0,0.0,0.0,0.0,0.0,-4.0516,-4.0516,0.0,0.0,0.0,-4.3085,-4.4509,-4.5479,-4.5594,0.0,0.0,-4.3124,-4.1546,-4.0631,-4.0516,-4.0516,-4.0516,-4.0516,-4.2239,-4.3162,-4.3278,-4.4829,-4.5253,-4.4751,-4.4943,-4.4376,-4.3226,-4.2435,-4.153,-4.0539,-3.9524,-3.909,-3.9022,-3.8788,-3.8615,-3.8542,-3.8542,-3.8469,-3.8285,-3.7713,-3.7419,0.0,0.0,0.0,-3.7676,-3.8469,-3.8689,-3.8836,-3.9533,-4.1919,-4.4691,0.0,-4.8673,-5.0492,0.0,0.0,-5.2674,0.0,0.0,0.0,0.0,0.0,0.0,0.0,0.0,0.0,0.0,0.0,0.0,0.0,0.0,0.0,0.0,0.0,0.0,0.0,0.0,0.0,-4.8673,-4.8526,-4.8857,-4.9721,-4.9757,-5.0161,-5.0949,-5.0839,-5.0839,-5.0949,-5.0839,-5.0802,-5.0802,-5.1022,-5.1059,-5.0986,-5.1059,-5.1463,-5.2013,-5.2123,-5.2564,-5.3203,-5.3203,-5.3203,-5.3203,-5.3203,-5.3203,-5.3203,0.0,0.0,0.0,0.0,0.0,0.0,0.0,0.0,0.0,0.0,0.0,-4.0516,0.0,0.0,0.0,-4.3008,-4.3778,-4.4586,-4.5556,-4.4008,-4.3085,-4.3085,-4.1439,-4.0516,-4.0516,-4.0516,-4.0516,-4.0516,-4.2239,-4.2979,-4.2805,-4.4725,-4.5438,-4.5169,-4.4919,-4.4448,-4.3764,-4.2605,-4.1713,-4.0956,-3.9639,-3.9093,-3.909,-3.8803,-3.8689,-3.8689,-3.8689,-3.8689,-3.8652,-3.8285,-3.8175,-3.8175,-3.8175,0.0,0.0,0.0,-3.8689,-3.8872,-3.968,-4.1258,-4.3076,0.0,-4.6324,-4.7939,-4.9554,0.0,0.0,0.0,0.0,0.0,0.0,0.0,0.0,0.0,0.0,0.0,0.0,0.0,0.0,0.0,0.0,0.0,0.0,0.0,0.0,0.0,0.0,-4.8526,-4.7663,-4.7626,-4.7773,-4.8196,-4.8196,-4.882,-5.0105,-4.9627,-4.9407,-4.9407,-4.9407,-4.9407,-4.9407,-4.9407,-4.9664,-5.0141,-5.0618,-5.0986,-5.1353,-5.1793,-5.2454,-5.3203,-5.3203,-5.3203,-5.3203,-5.3203,-5.3203,-5.3203,0.0,0.0,0.0,0.0,0.0,0.0,0.0,0.0,0.0,0.0,0.0,0.0,0.0,0.0,0.0,0.0,-4.297,-4.3624,-4.4902,-4.3778,-4.3008,-4.2777,-4.1316,-4.0516,-4.0516,-4.0516,-4.0516,-4.0516,-4.2008,-4.2722,-4.2699,-4.4468,-4.5402,-4.5577,-4.4988,-4.4657,-4.4393,-4.2878,-4.1942,-4.1369,-3.9924,-3.9302,-3.9236,-3.9263,-3.9202,-3.9135,-3.9371,-3.9369,-3.9276,-3.9056,-3.9019,-3.8982,-3.8762,-3.8689,0.0,0.0,0.0,-3.8836,-3.9423,0.0,-4.1148,-4.2543,-4.3938,-4.5443,0.0,0.0,0.0,0.0,0.0,0.0,0.0,0.0,0.0,0.0,0.0,0.0,0.0,0.0,0.0,0.0,0.0,0.0,0.0,0.0,0.0,0.0,0.0,-4.7736,-4.7113,-4.6892,-4.6782,-4.6782,-4.7003,-4.7719,-4.893,-4.8526,-4.8306,-4.8306,-4.8306,-4.8306,-4.8306,-4.8306,-4.8636,-4.9317,-4.9884,-5.0288,-5.0545,-5.1353,-5.216,-5.2931,-5.3093,-5.3203,-5.3203,-5.3203,-5.3203,-5.3203,0.0,0.0,0.0,0.0,0.0,0.0,0.0,0.0,0.0,0.0,0.0,-4.0516,-4.0516,-4.1239,-4.1769,-4.1846,-4.2624,-4.3124,-4.3201,-4.3162,-4.2739,-4.1885,-4.0969,0.0,-4.0516,-4.0516,-4.0516,-4.0516,-4.1431,-4.2269,-4.3107,-4.397,-4.4816,-4.5586,-4.5232,-4.5066,-4.4946,-4.3226,-4.2302,-4.193,-4.0587,-3.9851,-3.967,-4.0474,-4.0552,-4.0342,-4.1152,-4.1252,-4.0838,-4.0084,-3.9827,-3.968,-3.8946,-3.8689,-3.8689,0.0,0.0,0.0,-3.8762,-3.935,0.0,-4.1022,-4.1882,-4.3094,0.0,0.0,0.0,0.0,0.0,0.0,0.0,0.0,0.0,0.0,0.0,0.0,0.0,0.0,0.0,0.0,0.0,0.0,0.0,0.0,0.0,0.0,0.0,-4.7149,-4.7113,-4.6397,-4.5957,-4.5957,-4.6709,-4.7149,-4.7223,-4.792,-4.8306,-4.8306,-4.8306,-4.8306,-4.8306,-4.8306,-4.8343,-4.8379,-4.8416,-4.8893,-4.9721,-5.0508,-5.1353,-5.2123,-5.2894,-5.3203,-5.3203,-5.3203,-5.3203,-5.3203,0.0,0.0,0.0,0.0,0.0,0.0,0.0,0.0,0.0,0.0,0.0,0.0,0.0,-4.1277,-4.2038,-4.2585,-4.3893,-4.447,-4.3893,-4.3393,-4.2701,-4.1846,-4.0969,-4.0516,-4.0516,-4.0516,-4.0516,-4.0516,-4.1354,-4.2239,-4.3124,-4.3932,-4.4778,-4.5586,-4.5243,-4.5222,-4.5323,-4.3688,-4.3068,-4.3073,-4.1893,-4.1297,-4.1216,-4.1316,-4.1268,-4.1138,-4.1258,-4.1204,-4.1058,-4.0781,0.0,0.0,0.0,-3.946,-3.935,-3.8836,-3.8689,-3.8689,0.0,0.0,0.0,-4.012,-4.0561,-4.1258,0.0,0.0,0.0,0.0,0.0,0.0,0.0,0.0,0.0,0.0,0.0,0.0,0.0,0.0,0.0,0.0,0.0,0.0,0.0,0.0,0.0,0.0,0.0,0.0,-4.5608,-4.5296,-4.5149,-4.5149,-4.5388,-4.5792,-4.6324,-4.6617,-4.6764,-4.6764,-4.7259,-4.7516,-4.7553,-4.8086,-4.8306,-4.8306,-4.8306,-4.8783,-4.9647,-5.0472,-5.1279,-5.2087,-5.2894,-5.3203,-5.3203,-5.3203,-5.3203,-5.3203,0.0,0.0,0.0,0.0,0.0,-4.0516,-4.0516,-4.0516,-4.0516,-4.0516,0.0,0.0,0.0,0.0,-4.247,-4.3047,-4.4355,-4.4778,-4.3932,-4.3662,-4.3008,-4.1846,-4.1239,-4.0785,-4.0516,-4.0785,-4.0785,-4.0516,-4.1354,-4.2239,-4.3124,-4.3662,-4.4509,-4.5586,-4.5074,-4.5073,-4.5333,-4.403,-4.3523,-4.354,-4.2602,-4.2264,-4.2252,-4.231,-4.2267,-4.2179,-4.2103,-4.1997,0.0,0.0,0.0,0.0,0.0,-3.9717,-3.9386,-3.8872,-3.8689,-3.8689,-3.8689,-3.8689,0.0,0.0,-3.9496,-3.9863,-4.1185,0.0,0.0,0.0,0.0,0.0,0.0,0.0,0.0,0.0,0.0,0.0,0.0,0.0,0.0,0.0,0.0,0.0,0.0,0.0,0.0,0.0,0.0,0.0,-4.4764,-4.4452,-4.4415,-4.4691,-4.4691,-4.5112,-4.5883,-4.5883,-4.5883,-4.592,-4.6434,-4.6819,-4.7113,-4.7626,-4.8049,-4.8306,-4.8306,-4.8636,-4.9224,-5.0362,-5.1096,-5.1683,-5.2784,-5.3203,-5.3203,-5.3203,-5.3203,-5.3203,0.0,0.0,-4.0516,-4.0516,-4.0516,-4.0554,-4.0554,-4.0554,-4.0593,-4.0593,0.0,0.0,0.0,0.0,0.0,-4.3162,-4.3893,-4.4008,-4.3201,-4.3855,-4.3547,-4.1923,-4.1846,-4.1431,-4.0554,-4.1354,-4.1354,-4.0516,-4.1354,-4.2239,-4.3085,-4.3085,-4.397,-4.5518,-4.4662,-4.4595,-4.5001,-4.4151,-4.3605,-4.329,-4.2775,-4.2598,-4.2782,-4.3541,-4.362,-4.3402,-4.387,-4.3807,0.0,-4.2616,0.0,0.0,0.0,-3.9386,-3.8726,-3.8726,-3.8726,-3.8689,0.0,0.0,0.0,0.0,0.0,0.0,-3.968,0.0,0.0,0.0,0.0,0.0,0.0,0.0,0.0,0.0,0.0,0.0,0.0,0.0,0.0,0.0,0.0,0.0,0.0,0.0,0.0,0.0,0.0,-4.4691,-4.4654,-4.3901,-4.3864,-4.4635,-4.4654,-4.5039,-4.581,-4.581,-4.581,-4.581,-4.5847,-4.6287,-4.7076,-4.7076,-4.7553,-4.8306,-4.8306,-4.8306,-4.8453,-5.0068,-5.0765,-5.0949,-5.2564,-5.3167,-5.3203,-5.3203,-5.3203,-5.3203,0.0,-3.9938,-4.0516,-4.0516,-4.1008,-4.1431,-4.1431,-4.197,-4.2393,0.0,0.0,0.0,-4.2739,-4.347,-4.4201,-4.4863,-4.5094,-4.4902,-4.4008,-4.4162,-4.3816,-4.2777,-4.2739,-4.2316,-4.147,-4.17,-4.1354,-4.0516,-4.0746,-4.1623,-4.3085,-4.3085,-4.3662,-4.4624,-4.4193,-4.4065,-4.4151,-4.3912,-4.3984,-4.426,-4.4346,-4.4391,-4.444,-4.4658,-4.4542,0.0,0.0,-4.4642,-4.4342,0.0,-4.4048,-4.3754,0.0,-4.0671,-3.957,-3.957,-3.9166,-3.8689,-3.8689,0.0,0.0,0.0,0.0,0.0,-3.8982,-3.9643,0.0,0.0,0.0,0.0,0.0,0.0,0.0,0.0,0.0,0.0,0.0,0.0,0.0,0.0,0.0,0.0,0.0,0.0,0.0,0.0,-4.4856,-4.4452,-4.3864,-4.3608,-4.3625,-4.3828,-4.3828,-4.3938,-4.4158,-4.4158,-4.4158,-4.4158,-4.4745,-4.5443,-4.625,-4.6819,-4.7553,-4.8306,-4.8306,-4.8306,-4.8379,-4.9481,-5.0251,-5.0912,-5.194,-5.2711,-5.3203,-5.3203,-5.3203,-5.3203,-3.9785,-4.0169,-4.0631,-4.0969,-4.147,-4.1923,-4.2277,-4.2777,-4.3085,0.0,0.0,0.0,-4.4085,-4.4547,-4.5056,-4.5556,-4.5594,-4.5364,-4.4893,-4.4855,-4.447,-4.3624,-4.3585,-4.3201,-4.2354,-4.2662,-4.2431,-4.1585,-4.1939,-4.2624,-4.3585,-4.3278,-4.3466,-4.4106,-4.3378,-4.2969,-4.2886,-4.3129,-4.3783,-4.4624,-4.4825,-4.5156,-4.56,-4.5463,-4.5483,0.0,0.0,0.0,-4.5149,-4.4801,-4.4268,0.0,0.0,0.0,-4.0341,0.0,-3.957,-3.9129,-3.8799,-3.8689,-3.8689,-3.8689,0.0,0.0,-3.8689,-3.9056,-3.9496,0.0,0.0,0.0,0.0,0.0,0.0,0.0,0.0,0.0,0.0,0.0,0.0,0.0,0.0,0.0,0.0,0.0,0.0,-4.4232,-4.4195,-4.3975,-4.3551,-4.3515,-4.3515,-4.3515,-4.3515,-4.3515,-4.3515,-4.3515,-4.3515,-4.3515,-4.3975,-4.4819,-4.592,-4.6397,-4.7241,-4.8306,-4.8306,-4.8306,-4.8379,-4.9243,-5.0068,-5.0912,-5.205,-5.2784,-5.3203,-5.3203,-5.3203,-5.3203,0.0,-4.0516,-4.0785,-4.1662,-4.1885,-4.2239,-4.3085,-4.3316,-4.3393,0.0,-4.4008,-4.4739,-4.5518,-4.5594,-4.5594,-4.5594,-4.5594,-4.5594,-4.5594,-4.5594,-4.5248,-4.447,-4.4432,-4.4047,-4.3239,-4.3855,-4.3816,-4.3085,-4.3624,-4.4008,-4.4278,-4.3393,-4.3251,-4.3759,-4.2359,-4.1681,-4.1608,-4.215,-4.3194,-4.4461,-4.4612,-4.5304,-4.6275,0.0,-4.631,-4.6916,-4.6308,-4.5993,-4.5773,-4.4966,-4.3681,0.0,0.0,0.0,0.0,0.0,-4.0084,-3.9863,-3.9166,-3.8982,-3.8982,0.0,0.0,0.0,-3.8836,-3.8836,-3.8982,0.0,0.0,0.0,0.0,0.0,0.0,0.0,0.0,0.0,0.0,0.0,0.0,0.0,0.0,0.0,0.0,-4.3441,-4.3515,-4.3515,-4.3515,-4.3515,-4.3515,-4.3515,-4.3515,-4.3515,-4.3515,-4.3515,-4.3515,-4.3515,-4.3515,-4.3515,-4.3515,-4.4305,-4.5773,-4.5773,-4.6654,-4.8196,-4.8196,-4.8233,-4.8379,-4.9334,-5.0141,-5.0949,-5.2491,-5.3093,-5.3203,-5.3203,-5.3203,-5.3203,-4.0516,-4.0516,-4.0785,-4.1662,-4.2393,-4.3124,-4.3932,-4.4662,-4.5094,-4.5094,-4.5248,-4.5402,-4.5594,-4.5594,-4.5594,-4.5594,-4.5594,-4.5594,-4.5594,-4.5594,-4.5518,-4.5364,-4.5364,-4.494,-4.4085,-4.3585,-4.3278,-4.3085,-4.1854,-4.2285,-4.4278,-4.2777,-4.2483,-4.3209,-4.1953,-4.1378,-4.1391,-4.1656,-4.2444,-4.363,-4.4592,-4.5529,-4.6298,-4.6218,-4.6518,-4.7019,-4.7271,-4.6702,-4.5773,-4.4966,-4.4048,-4.3294,0.0,0.0,0.0,-4.1882,0.0,0.0,0.0,0.0,0.0,0.0,0.0,0.0,-3.979,-3.968,-3.935,0.0,0.0,0.0,0.0,0.0,0.0,0.0,0.0,0.0,0.0,0.0,0.0,0.0,0.0,0.0,0.0,-4.313,-4.3515,-4.3515,-4.3515,-4.3515,-4.3515,-4.3515,-4.3515,-4.3515,-4.3515,-4.3515,-4.3515,-4.3515,-4.3515,-4.3515,-4.3515,-4.4011,-4.4929,-4.4929,-4.5792,-4.7333,-4.7333,-4.77,-4.8416,-4.9958,-5.0655,-5.0912,-5.1867,-5.2637,-5.3203,-5.3203,-5.3203,-5.3277,-4.0516,-4.0854,-4.1431,-4.2316,-4.3124,-4.397,-4.4816,-4.5325,-4.5748,-4.6201,-4.624,-4.6086,-4.5633,-4.5594,-4.5594,-4.5594,-4.5594,-4.5594,-4.5594,-4.5594,-4.5594,-4.5594,-4.5594,-4.5402,-4.4979,-4.4547,-4.4355,-4.4355,-4.3478,-4.3478,-4.4278,-4.3047,-4.2373,-4.2143,-4.1141,-4.0729,-4.0851,-4.1542,-4.2302,-4.3144,-4.4348,0.0,-4.6657,-4.6827,-4.7441,-4.8239,-4.8279,-4.7233,-4.5773,-4.4966,-4.4158,0.0,0.0,-4.3204,-4.28,0.0,-4.2029,-4.1625,0.0,0.0,0.0,-4.1095,0.0,0.0,0.0,-3.99,-3.957,0.0,0.0,0.0,0.0,0.0,0.0,0.0,0.0,0.0,0.0,0.0,0.0,0.0,0.0,0.0,0.0,-4.2066,-4.247,-4.2873,-4.291,-4.3057,-4.3478,-4.3515,-4.3515,-4.3515,-4.3515,-4.3515,-4.3515,-4.3515,-4.3515,-4.3515,-4.3515,-4.3901,-4.4691,-4.4691,-4.5351,-4.6544,-4.6929,-4.7333,-4.7846,-4.9958,-5.0802,-5.0912,-5.2123,-5.2858,-5.3203,-5.3203,-5.3203,-5.324,-4.0516,-4.12,-4.2077,-4.2931,-4.3778,-4.4586,-4.5479,-4.5594,-4.5864,-4.6547,-4.6817,-4.6586,-4.571,-4.5748,-4.5979,-4.6287,-4.5864,-4.5825,-4.6287,-4.5864,-4.5594,-4.5594,-4.5594,-4.5594,-4.5594,-4.5441,-4.5441,-4.5594,-4.5287,-4.4825,-4.4278,-4.3235,-4.2371,-4.1619,-4.0721,-4.0468,-4.0825,-4.1933,-4.2662,-4.3127,0.0,-4.5532,-4.6828,-4.7148,-4.7972,-4.8852,-4.8278,-4.7033,-4.5553,-4.4745,-4.4048,-4.3515,-4.3515,-4.3515,0.0,0.0,0.0,0.0,0.0,0.0,0.0,0.0,0.0,-4.1368,0.0,0.0,0.0,0.0,0.0,0.0,0.0,0.0,0.0,0.0,0.0,0.0,0.0,0.0,0.0,0.0,0.0,0.0,0.0,-4.0912,-4.1352,-4.2029,-4.2066,-4.2433,-4.3204,-4.3294,-4.3314,-4.3515,-4.3515,-4.3515,-4.3515,-4.3515,-4.3515,-4.3515,-4.3515,-4.3828,-4.4488,-4.4488,-4.4929,-4.57,-4.6544,-4.6966,-4.7259,-4.9627,-5.0582,-5.0729,-5.2527,-5.3203,-5.3203,-5.3203,-5.3203,-5.3261,-4.0669,-4.12,-4.2077,-4.2931,-4.3778,-4.4586,-4.5479,-4.5594,-4.5633,-4.5748,-4.6432,-4.6586,-4.571,-4.6278,-4.7355,-4.8856,-4.6903,-4.6556,-4.8817,-4.6864,-4.5594,-4.5594,-4.5594,-4.5594,-4.5594,-4.4855,-4.4816,-4.5594,-4.4124,-4.3701,-4.4278,-4.2383,-4.2001,-4.2851,-4.1686,-4.1587,-4.2383,-4.3259,-4.3678,0.0,-4.469,-4.5404,0.0,-4.6311,-4.6617,-4.6675,-4.5579,-4.5038,-4.4709,0.0,-4.3588,-4.3515,0.0,-4.3515,-4.3478,-4.3404,0.0,0.0,0.0,0.0,0.0,0.0,-4.3204,0.0,0.0,0.0,0.0,0.0,0.0,0.0,0.0,0.0,0.0,0.0,0.0,0.0,0.0,0.0,0.0,0.0,0.0,0.0,0.0,0.0,-4.1132,-4.1242,-4.1242,-4.1589,-4.2396,-4.2433,-4.2763,-4.3478,-4.3515,-4.3515,-4.3515,-4.3515,-4.3515,-4.3515,-4.3515,-4.3551,-4.3644,-4.3644,-4.4085,-4.4892,-4.57,-4.6434,-4.7223,-4.9003,-4.9757,-4.9978,-5.2307,-5.3203,-5.3203,-5.3203,-5.3203,-5.3387,-4.1431,-4.2316,-4.3355,-4.3739,-4.447,-4.5171,-4.5556,-4.6432,-4.6894,-4.6432,-4.7509,-4.8394,-4.8557,-4.8432,-4.8856,-5.0048,-4.824,-4.7317,0.0,-4.6471,-4.5594,-4.5594,-4.5594,-4.5594,-4.5594,-4.5248,-4.5248,-4.5594,-4.4393,-4.3641,-4.3283,-4.1944,-4.1562,-4.2039,-4.1362,-4.189,-4.3323,0.0,-4.4145,0.0,0.0,0.0,0.0,-4.5993,-4.639,-4.636,-4.5387,-4.4915,-4.4599,0.0,-4.3515,0.0,0.0,0.0,0.0,0.0,0.0,0.0,0.0,0.0,0.0,0.0,0.0,0.0,-4.247,0.0,-4.1332,0.0,0.0,0.0,0.0,0.0,0.0,0.0,0.0,0.0,0.0,0.0,0.0,0.0,0.0,0.0,0.0,0.0,0.0,0.0,0.0,-4.0965,-4.2249,-4.2286,-4.2653,-4.3478,-4.3515,-4.3515,-4.3515,-4.3515,-4.3515,-4.3515,-4.3515,-4.3515,-4.3515,-4.3515,-4.3681,-4.4085,-4.5333,-4.6104,-4.6581,-4.8729,-4.961,-4.9757,-5.1242,-5.2087,-5.2564,-5.3041,-5.3203,-5.3298,-4.2624,-4.347,-4.4316,-4.4316,-4.5017,-4.5594,-4.5594,-4.6624,-4.7278,-4.6962,-4.8163,-4.9471,-5.0596,-5.0548,-5.0971,-5.2328,-5.0625,-4.924,0.0,0.0,-4.6095,-4.5633,-4.5594,-4.5594,-4.5594,-4.5594,-4.5594,-4.5594,-4.4979,-4.4007,-4.2728,-4.2,-4.158,-4.1447,-4.1385,-4.2319,-4.396,0.0,-4.4679,-4.5243,-4.541,-4.5137,-4.4662,-4.5293,-4.5655,-4.5727,-4.5058,-4.4613,-4.4268,-4.3681,-4.3515,0.0,-4.3515,0.0,0.0,0.0,0.0,0.0,-4.3515,0.0,0.0,0.0,0.0,0.0,0.0,0.0,0.0,0.0,0.0,0.0,0.0,0.0,0.0,0.0,0.0,0.0,0.0,0.0,0.0,0.0,0.0,0.0,0.0,0.0,0.0,0.0,0.0,0.0,-4.1882,-4.1992,-4.2433,-4.3478,-4.3515,-4.3515,-4.3515,-4.3515,-4.3515,-4.3515,-4.3515,-4.3515,-4.3515,-4.3515,-4.3608,-4.3901,-4.5296,-4.603,-4.6397,-4.8416,-4.9243,-4.9317,-5.0141,-5.0949,-5.1756,-5.2564,-5.3004,-5.3203,-4.4239,-4.4239,-4.4316,-4.4316,-4.5017,-4.5594,-4.5594,-4.5633,-4.597,-4.6778,-4.7625,-4.8779,-5.0519,-5.2125,-5.4087,-5.6599,0.0,-5.3049,-5.301,0.0,-4.7317,0.0,0.0,-4.5594,0.0,-4.5594,-4.5594,-4.5594,-4.5556,-4.4701,-4.3069,-4.2699,-4.2288,-4.1791,-4.2298,-4.3178,-4.4346,-4.5192,-4.5547,-4.5559,-4.5243,-4.4908,-4.4533,0.0,-4.3779,-4.4011,-4.3684,0.0,0.0,-4.3515,-4.3515,0.0,0.0,0.0,0.0,0.0,0.0,0.0,0.0,0.0,0.0,-4.3515,0.0,0.0,0.0,0.0,-4.2286,0.0,0.0,0.0,0.0,0.0,0.0,-3.7419,0.0,0.0,0.0,0.0,0.0,0.0,0.0,0.0,0.0,0.0,0.0,0.0,0.0,0.0,-4.1058,-4.1132,-4.1882,-4.3441,-4.3515,-4.3515,-4.3515,-4.3515,-4.3515,-4.3515,-4.3515,-4.3515,-4.3515,-4.3515,-4.3901,-4.4709,-4.5553,-4.6361,-4.7113,-4.8012,-4.8343,-4.8416,-4.9224,-5.0068,-5.0949,-5.172,-5.2527,-5.3314,-4.5171,-4.5171,-4.5171,-4.5171,-4.5402,-4.5787,-4.6355,-4.6894,-4.8394,0.0,-5.2626,0.0,0.0,-5.855,-5.8588,0.0,0.0,-5.4741,-5.25,-5.024,0.0,0.0,0.0,-4.5594,0.0,0.0,-4.5594,-4.5594,-4.5017,-4.4362,-4.3599,-4.2316,-4.211,-4.2764,-4.2435,-4.3205,0.0,0.0,0.0,0.0,0.0,-4.4455,-4.4521,0.0,0.0,-4.3974,-4.3631,-4.3515,0.0,-4.3515,-4.3515,-4.3515,-4.3515,-4.3515,-4.3515,-4.3515,-4.3515,0.0,0.0,0.0,-4.4158,-4.3608,0.0,0.0,0.0,0.0,0.0,0.0,0.0,0.0,0.0,0.0,0.0,-3.7676,0.0,0.0,0.0,0.0,0.0,0.0,0.0,0.0,0.0,0.0,0.0,0.0,0.0,0.0,0.0,-4.1095,-4.1846,-4.3441,-4.3515,-4.3515,-4.3515,-4.3515,-4.3515,-4.3515,-4.3515,-4.3515,-4.3515,-4.3515,-4.3938,-4.4745,-4.5553,-4.6361,-4.7149,-4.7957,-4.8306,-4.8379,-4.9224,-5.0068,-5.0912,-5.1683,-5.2527,-5.3408,-4.5594,-4.5594,-4.5594,-4.5594,-4.5594,-4.5893,-4.6778,0.0,0.0,0.0,-5.5742,0.0,-6.282,0.0,-6.1704,0.0,-5.9935,-5.6973,-5.2654,-5.1625,0.0,-4.7038,-4.6624,0.0,0.0,0.0,0.0,0.0,-4.5056,-4.4524,-4.403,-4.2774,-4.2466,-4.3007,-4.2806,-4.3403,-4.4658,-4.5107,-4.5273,0.0,0.0,-4.4359,0.0,0.0,-4.3818,-4.377,0.0,-4.3515,-4.3515,-4.3515,-4.3515,-4.3515,-4.3515,-4.3515,-4.3515,-4.3515,-4.3515,-4.3515,-4.3515,-4.4085,0.0,-4.3681,-4.4085,0.0,-4.3681,0.0,0.0,0.0,0.0,0.0,0.0,0.0,0.0,-3.8521,-3.7456,0.0,0.0,-3.5445,0.0,0.0,0.0,0.0,0.0,0.0,0.0,0.0,0.0,0.0,0.0,0.0,-4.1846,-4.3441,-4.3515,-4.3515,-4.3515,-4.3515,-4.3515,-4.3515,-4.3515,-4.3515,-4.3515,-4.3791,-4.4378,-4.5186,-4.5993,-4.6801,-4.7553,-4.8086,-4.8306,-4.8379,-4.926,-5.0088,-5.0912,-5.1683,-5.2674,-5.3812,-4.5594,-4.5633,-4.5671,-4.5671,-4.5671,0.0,0.0,0.0,-5.1789,0.0,-5.6973,-5.9819,-6.3192,-6.35,-6.3474,-6.3346,-6.2627,-5.9665,-5.3818,-5.4164,0.0,0.0,-4.7817,-4.7778,-4.6962,0.0,0.0,0.0,0.0,-4.5163,-4.4338,-4.398,-4.3389,-4.2644,-4.3454,0.0,-4.3933,-4.5093,-4.5586,-4.555,-4.4861,-4.4599,-4.4533,-4.3775,-4.3515,-4.3515,-4.3515,-4.3515,-4.3515,-4.3515,-4.3515,-4.3515,-4.3515,-4.3515,-4.3515,-4.3515,-4.3515,-4.3515,-4.3515,-4.4085,-4.4525,-4.3681,0.0,0.0,0.0,0.0,-4.3515,0.0,0.0,0.0,0.0,0.0,0.0,0.0,0.0,0.0,0.0,0.0,0.0,0.0,0.0,0.0,0.0,0.0,0.0,0.0,0.0,0.0,0.0,0.0,-4.1846,-4.3441,-4.3515,-4.3515,-4.3515,-4.3515,-4.3515,-4.3515,-4.3515,-4.3515,-4.3571,-4.4342,-4.5149,-4.5993,-4.6746,-4.7553,-4.8306,-4.8306,-4.8343,-4.8453,-4.9317,-5.0178,-5.1022,-5.1756,-5.3041,-5.4509,-4.5594,-4.6124,-4.6586,0.0,-4.6586,-4.7048,0.0,0.0,0.0,0.0,-6.0435,-6.3308,-6.6744,-6.6513,-6.5628,-6.4397,-6.3474,0.0,0.0,0.0,0.0,-5.1702,-4.9971,-4.8663,-4.7817,-4.7009,0.0,-4.5594,0.0,-4.5342,-4.4878,-4.4394,-4.4131,-4.4057,-4.39,-4.4151,-4.4772,-4.5114,-4.5381,-4.5532,-4.4523,-4.4318,0.0,0.0,-4.3515,-4.3515,-4.3515,-4.3515,-4.3515,-4.3515,-4.3515,-4.3515,-4.3515,-4.3515,-4.3515,-4.3515,-4.3515,-4.3515,-4.3515,-4.4085,-4.4525,-4.3681,-4.4085,-4.4488,0.0,0.0,0.0,0.0,0.0,0.0,0.0,0.0,0.0,0.0,0.0,0.0,0.0,0.0,0.0,-3.7492,0.0,0.0,0.0,0.0,0.0,0.0,0.0,0.0,0.0,0.0,0.0,-4.3441,-4.3515,-4.3515,-4.3515,-4.3515,-4.3515,-4.3515,-4.3515,-4.3791,-4.4415,-4.4635,-4.5461,-4.6782,-4.7003,-4.7553,-4.8306,-4.8306,-4.8673,-4.9353,-5.0178,-5.1353,-5.2637,-5.2821,-5.3518,-5.4436,-4.6086,0.0,0.0,-4.7932,0.0,0.0,-5.0356,-5.2049,0.0,-5.8473,-6.1512,0.0,-6.6513,-6.6628,-6.6051,-6.4705,-6.3474,0.0,-5.7934,0.0,0.0,-5.3318,-5.1471,-4.9933,-4.8702,-4.7509,0.0,-4.5594,0.0,0.0,-4.5303,-4.4873,-4.4722,-4.4799,0.0,-4.4647,-4.5126,-4.5253,-4.5323,-4.5303,-4.4574,0.0,0.0,-4.3693,-4.3515,-4.3515,-4.3515,-4.3515,-4.3515,-4.3515,-4.3515,-4.3515,-4.3515,-4.3515,-4.3515,-4.3515,-4.3515,-4.3515,-4.3515,-4.4085,-4.4525,-4.3681,-4.4085,-4.4488,-4.3681,-4.3515,-4.3515,0.0,0.0,0.0,0.0,0.0,0.0,0.0,0.0,0.0,0.0,0.0,0.0,0.0,0.0,0.0,0.0,0.0,0.0,0.0,0.0,0.0,0.0,0.0,0.0,-4.3441,-4.3828,-4.3864,-4.3515,-4.3864,-4.3864,-4.3515,-4.3515,-4.3901,-4.4709,-4.5076,-4.5902,-4.7113,-4.748,-4.7883,-4.8306,-4.8306,-4.882,-4.9721,-5.0875,-5.2087,-5.3203,-5.3203,-5.3702,-5.4436,0.0,0.0,0.0,0.0,0.0,0.0,0.0,-5.3395,0.0,-5.8204,0.0,-6.3628,-6.4512,-6.5166,-6.5205,-6.4359,0.0,-6.0793,-5.7715,-5.8011,-5.6973,-5.401,-5.2692,-5.1279,-4.9625,-4.7932,-4.6586,0.0,0.0,-4.5577,-4.5541,-4.5273,-4.5148,-4.5115,0.0,0.0,0.0,-4.5448,-4.541,-4.5055,-4.4739,-4.4346,-4.3952,-4.3647,-4.3515,-4.3515,-4.3515,-4.3515,-4.3515,-4.3515,-4.3515,-4.3515,-4.3515,-4.3515,-4.3515,-4.3515,-4.3515,-4.3515,-4.3515,-4.4011,-4.4378,-4.3644,-4.4011,-4.4378,-4.3644,-4.3515,-4.3515,-4.3515,-4.3515,-4.3515,0.0,0.0,0.0,0.0,0.0,0.0,0.0,0.0,0.0,0.0,0.0,0.0,0.0,0.0,0.0,0.0,0.0,0.0,0.0,0.0,0.0,-4.3441,-4.4195,0.0,-4.3845,0.0,-4.4342,-4.3975,-4.3772,-4.4121,-4.5021,-4.5736,-4.6507,-4.7296,-4.8012,-4.8306,-4.8306,-4.8306,-4.8893,-4.9941,-5.1536,-5.2564,-5.3203,-5.3203,-5.3665,-5.4326,0.0,0.0,0.0,0.0,0.0,-5.3664,-5.578,-5.7396,-5.8858,-6.0204,-6.2089,-6.3628,-6.4512,-6.4089,-6.3435,-6.2601,-6.2255,0.0,0.0,0.0,0.0,-5.7434,-5.4549,-5.2202,-5.0519,-4.8779,-4.7124,0.0,0.0,-4.5448,-4.5201,-4.541,-4.5381,-4.5115,0.0,0.0,-4.5137,-4.5448,0.0,-4.5055,-4.4739,-4.4346,-4.3952,-4.3647,-4.3515,-4.3515,-4.3515,-4.3515,-4.3515,-4.3515,-4.3515,-4.3515,-4.3515,-4.3515,-4.3515,-4.3515,-4.3515,-4.3515,-4.3515,-4.3625,-4.3698,-4.3551,-4.3625,-4.3644,-4.3551,-4.3515,-4.3515,-4.3515,-4.3515,-4.3515,-4.3515,0.0,0.0,0.0,0.0,0.0,0.0,0.0,0.0,0.0,0.0,0.0,0.0,0.0,0.0,0.0,0.0,0.0,0.0,0.0,0.0,0.0,-4.3644,0.0,0.0,0.0,-4.4635,-4.6452,-4.5112,-4.5259,-4.6672,-4.6819,-4.7333,-4.8122,-4.8233,-4.8306,-4.8306,-4.8306,-4.9187,-5.0765,-5.238,-5.3078,-5.3203,-5.3203,-5.3277,-5.3424,0.0,0.0,0.0,0.0,0.0,0.0,0.0,-5.9088,0.0,-6.0127,-6.0819,-6.1512,-6.1897,-6.2397,-6.2512,-6.2139,-6.1678,-6.1243,-6.0819,-5.9242,-5.8319,-5.8319,-5.5011,0.0,-5.1356,-4.9202,-4.7509,-4.6278,0.0,0.0,-4.5115,-4.5253,-4.5169,-4.4849,0.0,-4.5201,0.0,0.0,0.0,-4.4812,-4.4428,-4.408,-4.3726,-4.3546,-4.3515,-4.3515,-4.3515,-4.3515,-4.3515,-4.3515,-4.3515,-4.3515,-4.3515,-4.3515,-4.3515,-4.3515,-4.3515,-4.3515,-4.3515,-4.3515,-4.3515,-4.3515,-4.3515,-4.3515,-4.3515,-4.3515,-4.3515,-4.3515,-4.3515,-4.3515,-4.3515,-4.3167,0.0,0.0,0.0,0.0,0.0,0.0,0.0,0.0,0.0,0.0,0.0,0.0,0.0,0.0,0.0,0.0,0.0,0.0,0.0,0.0,0.0,0.0,0.0,0.0,0.0,-4.6471,-4.57,-4.5957,-4.7113,-4.7113,-4.7553,-4.8306,-4.8306,-4.8306,-4.8379,-4.926,-5.0325,-5.1536,-5.2747,-5.3203,-5.3203,-5.3203,-5.3203,-5.324,0.0,-5.0741,0.0,0.0,-5.5126,0.0,-5.8319,-5.9819,-6.0627,-6.0127,-5.9896,-5.9858,-6.0012,-6.1089,-6.1831,-6.1831,-6.1204,-6.0781,-6.0781,-5.9242,-5.8319,-5.8319,-5.5011,-5.2779,-5.1923,-4.9385,-4.7702,0.0,0.0,0.0,0.0,-4.5011,0.0,0.0,0.0,0.0,0.0,0.0,-4.48,-4.4428,-4.4117,-4.3786,-4.3515,-4.3515,-4.3515,-4.3515,-4.3515,-4.3515,-4.3515,-4.3515,-4.3515,-4.3515,-4.3515,-4.3515,-4.3515,-4.3515,-4.3515,-4.3515,-4.3515,-4.3515,-4.3515,-4.3515,-4.3515,-4.3515,-4.3515,-4.3515,-4.3515,-4.3515,-4.3515,-4.3515,-4.3515,-4.3515,0.0,0.0,0.0,0.0,0.0,0.0,0.0,0.0,0.0,0.0,0.0,0.0,0.0,0.0,0.0,-4.0341,-4.1279,-4.1956,0.0,0.0,0.0,-4.4709,-4.5205,0.0,-4.5993,0.0,-4.6324,-4.6581,-4.7369,-4.7369,-4.77,-4.8306,-4.8489,-4.8673,-4.8967,-5.0435,-5.1426,-5.2087,-5.2894,-5.3203,-5.3203,-5.3408,-5.3482,-5.3592,0.0,0.0,0.0,0.0,0.0,0.0,-5.9242,-6.0204,-6.105,-6.1755,-6.1166,-6.0973,-6.1793,-6.1281,-6.0935,-6.0935,-6.0858,-6.0781,-6.0781,-5.9242,-5.8319,-5.8319,-5.5011,-5.2779,-5.1923,-4.9385,-4.7702,0.0,0.0,0.0,0.0,0.0,0.0,0.0,0.0,0.0,0.0,-4.4676,-4.4414,-4.4043,-4.4013,-4.3786,-4.3515,-4.3515,-4.3515,-4.3515,-4.3515,-4.3515,-4.3515,-4.3515,-4.3515,-4.3515,-4.3515,-4.3515,-4.3515,-4.3515,-4.3515,-4.3515,-4.3515,-4.3515,-4.3515,-4.3515,-4.3515,-4.3515,-4.3515,-4.3515,-4.3515,-4.3515,-4.3515,-4.3515,-4.3515,-4.3515,-4.3515,0.0,0.0,0.0,0.0,0.0,0.0,0.0,0.0,0.0,0.0,0.0,0.0,0.0,0.0,-4.0561,-4.2103,-4.2249,-4.2653,-4.3478,0.0,-4.4672,-4.6856,-4.5498,0.0,-4.9243,-4.7719,-4.7406,-4.8196,-4.8196,-4.8233,-4.8343,-4.9114,-4.9884,-5.0618,-5.1499,-5.194,-5.2087,-5.2894,-5.3203,-5.3277,-5.4032,-5.4289,-5.4399,0.0,0.0,0.0,0.0,0.0,0.0,0.0,-6.0589,-6.0935,-6.1281,-6.1012,-6.0935,-6.1293,-6.1012,-6.0781,-6.0781,-6.0781,-6.0781,-6.0781,-5.9242,-5.8319,-5.8319,-5.5011,-5.3049,-5.2692,-4.9663,-4.7932,0.0,0.0,0.0,0.0,0.0,0.0,0.0,0.0,-4.4739,-4.4599,-4.4332,-4.4146,-4.3967,-4.3791,-4.3631,-4.3515,-4.3515,-4.3515,-4.3515,-4.3515,-4.3515,-4.3515,-4.3515,-4.3515,-4.3515,-4.3515,-4.3515,-4.3515,-4.3515,-4.3515,-4.3515,-4.3515,-4.3515,-4.3515,-4.3515,-4.3515,-4.3515,-4.3515,-4.3515,-4.3515,-4.3515,-4.3515,-4.3515,-4.3515,-4.3515,-4.3515,0.0,0.0,0.0,0.0,0.0,0.0,0.0,0.0,0.0,0.0,0.0,0.0,0.0,0.0,0.0,-4.2249,-4.2763,0.0,-4.3515,0.0,-4.4929,-4.6361,-4.6195,-4.7058,-4.882,-4.8159,-4.7993,-4.8306,-4.8306,-4.86,-4.9077,-4.9463,-5.0345,-5.1536,-5.1867,-5.227,-5.2747,-5.3057,-5.3518,-5.3959,-5.4289,-5.4693,-5.517,-5.6357,0.0,-5.7011,0.0,-5.905,-5.9435,-6.0627,-6.0781,-6.0781,-6.0781,-6.0781,-6.0781,-6.0781,-6.0781,-6.0781,-6.0781,-6.0781,-6.0781,-6.0781,-5.9242,-5.8319,-5.8319,-5.5011,0.0,-5.3203,-5.0087,-4.8355,-4.8086,-4.656,0.0,0.0,0.0,0.0,0.0,-4.4455,-4.4414,-4.4387,-4.4035,-4.3849,-4.3818,-4.3597,-4.3515,-4.3515,-4.3515,-4.3515,-4.3515,-4.3515,-4.3515,-4.3515,-4.3515,-4.3515,-4.3515,-4.3515,-4.3515,-4.3515,-4.3515,-4.3515,-4.3515,-4.3515,-4.3515,-4.3515,-4.3515,-4.3515,-4.3515,-4.3515,-4.3515,-4.3515,-4.3515,-4.3515,-4.3515,-4.3515,-4.3515,-4.3515,-4.3515,0.0,0.0,0.0,0.0,0.0,0.0,-4.2506,-4.2249,-4.1205,0.0,0.0,0.0,0.0,0.0,0.0,0.0,0.0,0.0,0.0,0.0,0.0,-4.6709,-4.748,-4.8306,-4.8306,-4.8306,-4.8306,-4.8563,-4.915,-4.9978,-5.0198,-5.1079,-5.2344,-5.2344,-5.2711,-5.3203,-5.3482,-5.3922,-5.4473,-5.495,-5.5464,-5.5978,-5.7934,-5.828,-5.8819,-6.0473,-6.0781,-6.0781,-6.0781,-6.0781,-6.0781,-6.0781,-6.0781,-6.0781,-6.0781,-6.0781,-6.0781,-6.0781,-6.0781,-6.0781,-6.0781,-5.9242,-5.8319,0.0,0.0,-5.3203,-5.3203,-5.0702,-4.8971,-4.8086,0.0,0.0,-4.4612,0.0,-4.4219,-4.4599,-4.4175,-4.3998,-4.3967,-4.3664,-4.3515,-4.3515,-4.3515,-4.3515,-4.3515,-4.3515,-4.3515,-4.3515,-4.3515,-4.3515,-4.3515,-4.3515,-4.3515,-4.3515,-4.3515,-4.3515,-4.3515,-4.3515,-4.3515,-4.3515,-4.3515,-4.3515,-4.3515,-4.3515,-4.3515,-4.3515,-4.3515,-4.3515,-4.3515,-4.3515,-4.3515,-4.3515,-4.3515,-4.3515,-4.3515,-4.3515,0.0,0.0,0.0,0.0,0.0,0.0,-4.2983,-4.2873,-4.1242,0.0,0.0,0.0,0.0,0.0,0.0,0.0,0.0,-4.3515,-4.4268,0.0,-4.5883,-4.6709,-4.748,-4.8306,-4.8306,-4.8306,-4.8343,-4.9206,-4.9994,-5.0839,-5.161,-5.2417,-5.3188,-5.3188,-5.3167,-5.3277,-5.4069,-5.4399,-5.4583,-5.6198,-5.6785,-5.6895,-5.9896,-6.0012,-6.0165,-6.0704,-6.0781,-6.0781,-6.0781,-6.0781,-6.0781,-6.0781,-6.0781,-6.0781,-6.0781,-6.0781,-6.0781,0.0,-6.0781,-6.055,0.0,-5.8896,-5.805,-5.7434,-5.528,-5.3818,-5.3203,-5.1279,-4.9856,-4.8971,0.0,0.0,0.0,-4.4455,-4.4455,-4.4612,-4.4493,-4.4401,-4.4373,-4.402,-4.3833,-4.3818,-4.3597,-4.3515,-4.3515,-4.3515,-4.3515,-4.3515,-4.3515,-4.3515,-4.3515,-4.3515,-4.3515,-4.3515,-4.3515,-4.3515,-4.3515,-4.3515,-4.3515,-4.3515,-4.3515,-4.3515,-4.3515,-4.3515,-4.3515,-4.3515,-4.3515,-4.3515,-4.3515,-4.3515,-4.3515,-4.3515,-4.3515,-4.3515,-4.3515,-4.3515,-4.3515,0.0,0.0,0.0,0.0,0.0,-4.3314,-4.3294,0.0,-4.2947,0.0,0.0,0.0,0.0,0.0,0.0,0.0,0.0,-4.5112,0.0,-4.6709,-4.7516,-4.803,-4.8306,-4.8306,-4.86,-4.9206,-5.0031,-5.0839,-5.161,-5.1867,-5.2454,-5.3203,-5.3203,-5.3203,-5.3277,-5.4106,-5.473,-5.5354,-5.6418,-5.7152,-5.7666,-6.0781,-6.0781,-6.0781,-6.0781,-6.0781,-6.0781,-6.0781,-6.0781,-6.0781,-6.0781,-6.0781,-6.0781,-6.0781,-6.0781,0.0,-6.0781,-6.0781,-6.055,-6.0012,-5.8934,-5.805,-5.7511,-5.5549,-5.4087,-5.3241,0.0,0.0,-4.9394,-4.7646,-4.6313,-4.5472,-4.5534,-4.5445,-4.5217,-4.5129,-4.5064,-4.5,-4.431,-4.3982,-4.3952,-4.3647,-4.3515,-4.3515,-4.3515,-4.3515,-4.3515,-4.3515,-4.3515,-4.3515,-4.3515,-4.3515,-4.3515,-4.3515,-4.3515,-4.3515,-4.3515,-4.3515,-4.3515,-4.3515,-4.3515,-4.3515,-4.3515,-4.3515,-4.3515,-4.3515,-4.3718,-4.3864,-4.3534,-4.3515,-4.3515,-4.3515,-4.3515,-4.3515,-4.3515,-4.3515,-4.3515,-4.3515,0.0,0.0,0.0,0.0,0.0,0.0,-4.3515,0.0,0.0,0.0,0.0,0.0,0.0,0.0,-4.4654,-4.548,0.0,-4.7076,-4.7883,-4.8453,-4.8783,-4.9077,-4.9517,-5.0068,-5.0875,-5.1499,-5.2013,-5.2307,-5.2747,-5.3203,-5.3203,-5.3203,-5.3314,-5.4436,-5.5133,-5.5721,-5.6859,-5.7556,-5.7997,-6.0781,-6.0781,0.0,0.0,-6.0781,0.0,-6.0781,-6.0781,-6.0781,-6.0781,-6.0781,-6.0781,-6.0781,-6.0781,-6.0781,-6.0781,0.0,0.0,0.0,-5.9204,-5.828,-5.8204,-5.5895,-5.4164,-5.3241,-5.2423,-5.1115,-4.9375,-4.8247,-4.7433,-4.6906,-4.7048,-4.686,-4.6374,-4.6038,-4.5897,-4.5757,-4.463,-4.4087,-4.3952,-4.3647,-4.3515,-4.3515,-4.3515,-4.3515,-4.3515,-4.3515,-4.3515,-4.3515,-4.3515,-4.3515,-4.3515,-4.3515,-4.3515,-4.3515,-4.3515,-4.3515,-4.3497,-4.3588,-4.3588,-4.3625,-4.3662,-4.3662,-4.3662,-4.3662,-4.4195,-4.4488,-4.3718,-4.3551,-4.3515,-4.3515,-4.3515,-4.3515,-4.3515,-4.3515,-4.3515,-4.3515,0.0,0.0,0.0,0.0,0.0,0.0,-4.3515,-4.3515,0.0,0.0,0.0,0.0,0.0,-4.3938,-4.4764,-4.5553,-4.6361,-4.7186,-4.792,-4.8746,-4.961,-5.0472,-5.0875,-5.0912,-5.172,-5.2087,-5.2123,-5.2858,-5.3203,-5.3203,-5.3203,-5.3203,-5.3371,-5.495,-5.5596,-5.5816,-5.7409,-5.7997,-5.7997,0.0,0.0,-6.0781,-6.0781,-6.0781,-6.0781,-6.0781,-6.0781,-6.0781,-6.0781,-6.0781,-6.0781,-6.0781,-6.0781,-6.0781,-6.0781,-6.0781,-6.0512,-5.9858,-5.8858,-5.8011,-5.7319,-5.6088,-5.4703,-5.3241,-5.301,-5.161,-4.9017,-4.872,-4.8081,-4.7062,-4.7097,-4.7176,-4.7274,-4.7205,-4.6789,-4.6145,-4.5581,-4.4838,-4.3952,-4.3647,-4.3515,-4.3515,-4.3515,-4.3515,-4.3515,-4.3515,-4.3515,-4.3515,-4.3515,-4.3515,-4.3515,-4.3515,-4.3515,-4.3515,-4.3515,-4.3515,-4.3608,-4.4268,-4.4415,-4.4562,-4.5186,-4.5333,-4.5333,-4.5333,-4.5002,-4.4654,-4.4452,-4.3938,-4.3515,-4.3515,-4.3515,-4.3515,-4.3515,-4.3515,-4.3515,-4.3515,-4.3515,0.0,0.0,-4.3515,-4.3515,-4.3515,-4.3515,-4.3754,0.0,0.0,0.0,0.0,-4.4415,-4.4782,-4.559,-4.6379,-4.7186,-4.8012,-4.8196,-4.8746,-4.961,-5.1022,-5.172,-5.172,-5.2564,-5.2931,-5.2931,-5.3093,-5.3203,-5.3203,-5.3203,-5.3203,-5.3371,-5.495,-5.5596,-5.5816,-5.7409,-5.7997,-5.7997,-6.0781,-6.0781,-6.0781,-6.0781,-6.0781,-6.0781,-6.0781,-6.0781,-6.0781,-6.0781,-6.0781,-6.0781,-6.0781,-6.0781,-6.0781,-6.0781,-6.0781,-6.0435,-5.955,-5.8742,-5.7896,-5.706,-5.6175,-5.5088,-5.3818,-5.3395,-5.2064,-4.9729,-4.9729,-4.9193,-4.8155,-4.8548,-4.8629,-4.8426,-4.8426,-4.8045,-4.7381,-4.6278,-4.5298,-4.4473,-4.3795,-4.3515,-4.3515,-4.3515,-4.3515,-4.3515,-4.3515,-4.3515,-4.3515,-4.3515,-4.3515,-4.3515,-4.3515,-4.3515,-4.3588,-4.3938,-4.4048,-4.4232,-4.5039,-4.5259,-4.5369,-4.5773,-4.6177,-4.6361,-4.5993,-4.5847,-4.5682,-4.5333,-4.4599,-4.4048,-4.4048,-4.3754,-4.3515,-4.3515,-4.3515,-4.3515,-4.3515,-4.3515,0.0,-4.3515,-4.3515,-4.3515,-4.3515,-4.3828,-4.4085,-4.4158,0.0,0.0,-4.4654,-4.5039,-4.5626,-4.6434,-4.7223,-4.8213,-4.9444,-4.9811,-5.0215,-5.0712,-5.194,-5.2564,-5.2564,-5.3004,-5.3203,-5.3203,-5.3203,-5.3203,-5.3203,-5.3203,-5.3203,-5.3371,-5.495,-5.5596,-5.5757,-5.7005,-5.7446,-5.7409,-6.0781,-6.0781,-6.0781,-6.0781,-6.0781,-6.0781,-6.0781,-6.0781,-6.0781,-6.0781,-6.0781,-6.0781,-6.0781,-6.0781,-6.0781,-6.0781,-6.0781,-6.0435,-5.955,-5.8742,-5.7896,-5.706,-5.6175,-5.5241,-5.4318,-5.3433,-5.2318,-5.0894,-5.0894,-5.051,-4.9779,-5.0394,-5.0259,-4.9528,-4.9528,-4.9198,-4.8517,-4.6803,-4.57,-4.5048,-4.4056,-4.3608,-4.3515,-4.3515,-4.3515,-4.3515,-4.3515,-4.3515,-4.3515,-4.3515,-4.3515,-4.3515,-4.3515,-4.3588,-4.3828,-4.4635,-4.4948,-4.5205,-4.5883,-4.6177,-4.625,-4.625,-4.6801,-4.7113,-4.6434,-4.6691,-4.6892,-4.6214,-4.5333,-4.4691,-4.4691,-4.4048,-4.3515,-4.3515,-4.3515,-4.3515,-4.3515,0.0,-4.3515,-4.3515,-4.3625,-4.3681,-4.3681,-4.4415,-4.4635,-4.4085,-4.4562,-4.4929,0.0,-4.5847,-4.6617,-4.7443,-4.8122,-4.926,-5.0765,-5.161,-5.1977,-5.2013,-5.2821,-5.3203,-5.3203,-5.3203,-5.3203,-5.3203,-5.3203,-5.3203,-5.3203,-5.3203,-5.3203,-5.3371,-5.484,-5.5486,-5.5684,-5.6492,-5.6895,-5.6895,-6.0781,-6.0781,-6.0781,-6.0781,-6.0781,-6.0781,-6.0781,-6.0781,-6.0781,-6.0781,-6.0781,-6.0781,-6.0781,-6.0781,-6.0781,-6.0781,-6.0781,-6.0435,-5.955,-5.8742,-5.7896,-5.706,-5.6175,-5.4972,-5.3433,-5.2538,-5.1962,-5.1692,-5.1692,-5.1654,-5.15,-5.0933,-5.0427,-4.9992,-4.9992,-4.9199,-4.7857,-4.7516,-4.6385,-4.476,-4.458,-4.4121,-4.3515,-4.3515,-4.3515,-4.3515,-4.3515,-4.3515,-4.3515,-4.3515,-4.3515,-4.3515,-4.3515,-4.3975,-4.4672,-4.548,-4.6214,-4.6746,-4.6892,-4.7406,-4.7939,-4.7939,-4.8012,-4.8086,-4.7976,-4.748,-4.7076,-4.6929,-4.5718,-4.4691,-4.4691,-4.4048,-4.3515,-4.3515,-4.3515,-4.3515,-4.3515,0.0,-4.3515,-4.3515,-4.4085,-4.4525,-4.4525,-4.5259,-4.5957,-4.6489,-4.603,-4.603,-4.6672,-4.7498,-4.8306,-4.9114,-4.9297,-4.9848,-5.0802,-5.161,-5.1977,-5.2013,-5.2821,-5.3203,-5.3203,-5.3203,-5.3203,-5.3203,-5.3203,-5.3203,-5.3203,-5.3203,-5.3203,-5.3277,-5.4216,-5.4987,-5.5684,-5.6492,-5.7226,-5.7813,-6.0781,-6.0781,-6.0781,-6.0781,-6.0781,-6.0781,-6.0781,-6.0781,-6.0781,-6.0781,-6.0781,-6.0781,-6.0781,-6.0781,-6.0781,-6.0781,-6.0781,-6.0435,-5.955,-5.8742,-5.7703,-5.6368,-5.5895,-5.5126,-5.3933,-5.351,-5.3087,-5.2577,-5.2577,-5.2346,-5.1885,-5.151,-5.0905,-5.0111,-5.0111,-4.947,-4.8319,-4.7888,-4.7026,-4.5902,-4.5058,-4.4488,-4.4158,-4.4158,-4.3864,-4.3625,-4.4488,-4.4488,-4.4195,-4.4635,-4.4782,-4.4782,-4.4782,-4.5039,-4.5516,-4.6324,-4.7113,-4.7736,-4.7736,-4.7993,-4.8306,-4.8306,-4.8636,-4.9003,-4.9003,-4.871,-4.8453,-4.8453,-4.7131,-4.5975,-4.5975,-4.5002,-4.4305,-4.4709,-4.4065,0.0,0.0,-4.4158,-4.4158,-4.4158,-4.4856,-4.5369,-4.5369,-4.6067,-4.6709,-4.7076,-4.7168,-4.7572,-4.8416,-4.8783,-4.9554,-5.0802,-5.1279,-5.172,-5.2087,-5.2454,-5.2637,-5.2637,-5.3041,-5.3203,-5.3203,-5.3665,-5.3628,-5.3203,-5.3665,-5.3592,-5.3203,-5.3203,-5.3203,-5.3314,-5.4546,-5.5244,-5.5684,-5.6492,-5.7042,-5.7299,-6.0781,-6.0781,-6.0781,-6.0781,-6.0781,-6.0781,-6.0781,-6.0781,-6.0781,-6.0781,-6.0781,-6.0781,-6.0781,-6.0781,-6.0781,-6.0781,-6.0781,-6.0358,-5.9281,-5.8627,-5.7627,-5.6049,-5.5626,-5.5126,-5.4511,-5.4511,-5.4164,-5.351,-5.351,-5.3164,-5.25,-5.1977,-5.1228,-5.0266,-4.9948,-4.9431,-4.8724,-4.8093,-4.7551,-4.7003,-4.5755,-4.5149,-4.5002,-4.5002,-4.4599,-4.4212,-4.5223,-4.5333,-4.5039,-4.548,-4.5736,-4.5883,-4.5883,-4.6177,-4.6581,-4.7186,-4.8067,-4.8893,-4.8893,-4.8893,-4.8893,-4.8893,-4.937,-4.9904,-4.9904,-4.9904,-4.9904,-4.9904,-4.8563,-4.7369,-4.7369,-4.6049,-4.5112,-4.5553,0.0,0.0,0.0,-4.4856,-4.5002,-4.5002,-4.57,-4.625,-4.6434,-4.7205,-4.7736,-4.7957,-4.8526,-4.9187,-4.9848,-5.0051,-5.0822,-5.2234,-5.2894,-5.3203,-5.3203,-5.3203,-5.3203,-5.3203,-5.3203,-5.3298,-5.3482,-5.3922,-5.3995,-5.3775,-5.4032,-5.3885,-5.3482,-5.3277,-5.3314,-5.3592,-5.484,-5.5537,-5.5941,-5.6565,-5.6932,-5.7005,-6.0781,-6.0781,-6.0781,-6.0781,-6.0781,-6.0781,-6.0781,-6.0781,-6.0781,-6.0781,-6.0781,-6.0781,-6.0781,-6.0781,-6.0781,-6.0781,-6.0781,-6.0127,-5.8511,-5.8319,-5.7896,-5.6945,-5.5434,-5.4549,-5.4511,-5.4511,-5.4472,-5.4395,-5.4395,-5.4357,-5.428,-5.2288,-5.1128,-5.0694,-4.9508,-4.8744,-4.8363,-4.829,-4.7811,-4.7076,-4.6966,-4.6489,-4.581,-4.581,-4.5773,-4.5626,-4.5002,-4.5223,-4.57,-4.5039,-4.5296,-4.5883,-4.5883,-4.6911,-4.8122,-4.8196,-4.937,-5.0618,-5.0618,-5.0618,-5.0618,-5.0618,-5.0655,-5.0729,-5.0729,-5.0729,-5.0729,-5.0729,-4.937,-4.8233,-4.8233,-4.6911,-4.559,-4.4892,0.0,0.0,-4.4819,-4.5333,-4.581,-4.581,-4.6544,-4.7296,-4.8049,-4.8893,-4.9701,-5.0472,-5.0582,-5.0655,-5.0729,-5.1426,-5.2234,-5.3078,-5.3167,-5.3203,-5.3203,-5.3203,-5.3203,-5.3203,-5.3203,-5.3592,-5.4289,-5.3592,-5.4069,-5.5317,-5.3922,-5.3702,-5.4252,-5.3518,-5.3665,-5.4326,-5.4436,-5.539,-5.6712,-5.6785,-5.7262,-5.7886,-6.0405,-6.061,-6.0722,-6.0443,-6.061,-6.0781,-6.0781,-6.0781,-6.0781,-6.0781,-6.0781,-6.0781,-6.0781,-6.0781,-6.0781,-6.0781,-6.0781,-6.0512,-5.9896,-5.8896,-5.7665,-5.6252,-5.5331,-5.4975,-5.5241,-5.5241,-5.5241,-5.5241,-5.5241,-5.4847,-5.4063,-5.3213,-5.1978,-5.0343,-4.9877,-4.9138,-4.8306,-4.8306,-4.8122,-4.7773,-4.7296,-4.6929,-4.6636,-4.6636,-4.6324,-4.5993,-4.6691,-4.6801,-4.6746,-4.7498,-4.7939,-4.8288,-4.8783,-4.937,-4.9958,-5.0435,-5.1059,-5.1646,-5.216,-5.1573,-5.0802,-5.0802,-5.1169,-5.1536,-5.1536,-5.1536,-5.1536,-5.1536,-5.0655,-4.9848,-4.9848,-4.8893,-4.8049,-4.7755,0.0,-4.6709,-4.6911,-4.7205,-4.7572,-4.8122,-4.8893,-4.9517,-4.9811,-5.0141,-5.0692,-5.1463,-5.1536,-5.1756,-5.227,-5.2601,-5.2894,-5.3167,-5.3203,-5.3203,-5.3203,-5.3203,-5.3445,-5.3959,-5.3959,-5.4363,-5.5133,-5.5354,-5.55,-5.5574,-5.5464,-5.5317,-5.5097,-5.4803,-5.4876,-5.517,-5.5684,-5.6271,-5.6859,-5.7373,-5.774,-5.7997,-6.0161,-6.0217,-6.0269,-5.9931,-6.0146,-6.0351,-6.0351,-6.0351,-6.0351,-6.0351,-6.0495,-6.0521,-6.0365,-6.0495,-6.0597,-6.0597,-6.0456,-6.0328,-6.0162,-5.8502,-5.6956,-5.5742,-5.5435,-5.5363,-5.5531,-5.5493,-5.5446,-5.53,-5.53,-5.4868,-5.4002,-5.3623,-5.252,-5.0872,-5.0489,-4.9713,-4.871,-4.871,-4.8563,-4.8269,-4.77,-4.748,-4.748,-4.748,-4.7131,-4.6801,-4.7902,-4.8122,-4.8049,-4.9206,-4.9757,-5.0068,-5.0618,-5.1169,-5.172,-5.2527,-5.2931,-5.3225,-5.3812,-5.3151,-5.2197,-5.1683,-5.216,-5.2674,-5.2417,-5.238,-5.238,-5.238,-5.1756,-5.1169,-5.1169,-5.0472,-4.9848,-4.9647,-4.8857,-4.836,-4.8673,-4.893,-4.9297,-4.9884,-5.0472,-5.0912,-5.1169,-5.1169,-5.1499,-5.2307,-5.238,-5.2637,-5.3167,-5.3203,-5.3203,-5.3203,-5.3203,-5.3314,-5.3592,-5.3335,-5.3592,-5.4399,-5.4399,-5.495,-5.5978,-5.6308,-5.6381,-5.6345,-5.6418,-5.6235,-5.5941,-5.5684,-5.5757,-5.6014,-5.6602,-5.6969,-5.7262,-5.7813,-5.7997,-5.7997,-6.0103,-5.9728,-5.9389,-5.9389,-5.9389,-5.9389,-5.9389,-5.9389,-5.9389,-5.9389,-5.9823,-5.9916,-5.9441,-5.9823,-6.0103,-6.0103,-5.9658,-5.9235,-5.8802,-5.686,-5.5707,-5.5671,-5.5703,-5.5481,-5.5121,-5.5107,-5.489,-5.4484,-5.4484,-5.4484,-5.4468,-5.3225,-5.2584,-5.2529,-5.1335,-5.0362,-4.961,-4.961,-4.9077,-4.8343,-4.8306,-4.8306,-4.8343,-4.8343,-4.8343,-4.8343,-4.8343,-4.8893,-4.961,-4.961,-5.0141,-5.0802,-5.0839,-5.194,-5.335,-5.4179,-5.495,-5.5596,-5.5596,-5.5596,-5.5207,-5.3628,-5.3812,-5.4179,-5.3408,-5.3203,-5.3203,-5.3203,-5.2564,-5.2013,-5.2013,-5.1353,-5.0545,-4.9757,-5.0288,-5.0545,-4.9721,-5.0288,-5.0802,-5.0839,-5.0839,-5.1132,-5.194,-5.2013,-5.2344,-5.3151,-5.3203,-5.3203,-5.3203,-5.3203,-5.3203,-5.3203,-5.3203,-5.3592,-5.4399,-5.3628,-5.3628,-5.4436,-5.4436,-5.528,-5.6785,-5.5978,-5.6492,-5.7923,-5.6308,-5.6051,-5.6748,-5.5941,-5.6088,-5.6822,-5.6822,-5.7299,-5.7997,-5.7997,-5.7997,-5.7997,-5.9176,-5.9266,-5.9284,-5.8971,-5.9176,-5.9389,-5.9389,-5.9389,-5.9389,-5.9389,-5.9509,-5.9543,-5.9407,-5.9509,-5.9592,-5.9592,-5.9475,-5.8837,-5.757,-5.6889,-5.6053,-5.4909,-5.4848,-5.479,-5.4671,-5.4671,-5.4609,-5.4484,-5.4484,-5.4322,-5.3995,-5.3608,-5.2976,-5.2146,-5.1801,-5.1206,-5.0398,-4.9831,-4.9774,-4.9994,-4.9444,-4.9554,-5.0068,-5.0068,-5.0068,-5.0068,-5.0068,-5.0215,-5.0508,-5.1096,-5.1426,-5.183,-5.2968,-5.3665,-5.4216,-5.4987,-5.539,-5.5596,-5.5596,-5.6014,-5.6051,-5.4436,-5.4216,-5.4179,-5.3408,-5.3665,-5.3885,-5.3314,-5.3482,-5.3518,-5.2968,-5.2674,-5.2234,-5.1389,-5.1499,-5.1573,-5.1316,-5.1499,-5.1867,-5.2417,-5.2491,-5.2601,-5.2821,-5.2858,-5.2931,-5.3167,-5.3739,-5.4289,-5.484,-5.4876,-5.462,-5.4069,-5.4032,-5.4179,-5.4399,-5.4179,-5.473,-5.6088,-5.6088,-5.6638,-5.7629,-5.7373,-5.7556,-5.796,-5.7483,-5.7409,-5.7629,-5.7373,-5.7409,-5.7629,-5.7629,-5.7776,-5.7997,-5.7997,-5.7997,-5.7997,-5.8736,-5.8776,-5.8736,-5.8482,-5.8673,-5.8835,-5.8835,-5.8835,-5.8835,-5.8835,-5.9028,-5.9028,-5.8874,-5.9028,-5.9102,-5.9102,-5.9102,-5.8503,-5.6967,-5.6723,-5.5992,-5.4502,-5.4306,-5.4221,-5.4221,-5.4221,-5.4135,-5.3979,-5.3979,-5.3833,-5.3565,-5.3565,-5.3165,-5.2454,-5.2454,-5.2013,-5.1242,-5.0785,-5.0655,-5.0765,-5.0251,-5.0362,-5.0802,-5.0802,-5.0802,-5.0839,-5.1169,-5.1279,-5.1389,-5.2197,-5.2674,-5.3115,-5.4106,-5.484,-5.5427,-5.5941,-5.6308,-5.6528,-5.6528,-5.6895,-5.6969,-5.5684,-5.5354,-5.5133,-5.4326,-5.4509,-5.473,-5.4252,-5.4546,-5.473,-5.4252,-5.4142,-5.3995,-5.3482,-5.3429,-5.3429,-5.3429,-5.3429,-5.3482,-5.3665,-5.3665,-5.3555,-5.3203,-5.3482,-5.3812,-5.4142,-5.4583,-5.5097,-5.5596,-5.5596,-5.5354,-5.4876,-5.4876,-5.5023,-5.5354,-5.5354,-5.5831,-5.6822,-5.6822,-5.7226,-5.7997,-5.7997,-5.7997,-5.7997,-5.7997,-5.7997,-5.7997,-5.7997,-5.7997,-5.7997,-5.7997,-5.7997,-5.7997,-5.7997,-5.7997,-5.7997,-5.8652,-5.8304,-5.7997,-5.7997,-5.7997,-5.7997,-5.7997,-5.7997,-5.7997,-5.7997,-5.8354,-5.8482,-5.8065,-5.8375,-5.8652,-5.8652,-5.8652,-5.809,-5.6881,-5.6393,-5.5603,-5.4458,-5.399,-5.3758,-5.3758,-5.3833,-5.3676,-5.3314,-5.3408,-5.3408,-5.3314,-5.3314,-5.3298,-5.3203,-5.3203,-5.2784,-5.2087,-5.2013,-5.161,-5.1022,-5.0949,-5.0949,-5.1022,-5.1022,-5.1022,-5.1096,-5.183,-5.216,-5.2307,-5.3078,-5.3849,-5.4509,-5.4509,-5.5574,-5.6822,-5.6895,-5.7446,-5.7997,-5.7997,-5.7997,-5.7813,-5.7079,-5.6932,-5.6675,-5.5794,-5.5669,-5.5684,-5.5611,-5.5669,-5.5684,-5.5611,-5.5596,-5.5596,-5.5596,-5.5596,-5.5596,-5.5596,-5.5596,-5.5317,-5.4583,-5.4509,-5.4216,-5.3482,-5.4069,-5.484,-5.5669,-5.5706,-5.5721,-5.5794,-5.5794,-5.5757,-5.5684,-5.5706,-5.6051,-5.6785,-5.6822,-5.6859,-5.6932,-5.6932,-5.7299,-5.7997,-5.7997,-5.7997,-5.7997,-5.7997,-5.7997,-5.7997,-5.7997,-5.7997,-5.7997,-5.7997,-5.7973,-5.7927,-5.7973,-5.7973,-5.7927,-5.8164,-5.8051,-5.7997,-5.7997,-5.7997,-5.7997,-5.7997,-5.7997,-5.7997,-5.7997,-5.8074,-5.8119,-5.802,-5.8074,-5.8164,-5.8164,-5.8164,-5.7765,-5.6859,-5.6125,-5.5337,-5.4436,-5.3697,-5.3318,-5.3318,-5.3944,-5.4233,-5.4142,-5.4766,-5.4766,-5.4142,-5.4142,-5.3812,-5.3203,-5.3203,-5.3093,-5.2894,-5.227,-5.227,-5.2637,-5.1977,-5.2123,-5.2674,-5.2674,-5.2674,-5.2711,-5.2894,-5.3335,-5.3922,-5.4069,-5.4656,-5.5317,-5.5317,-5.6014,-5.6932,-5.7556,-5.785,-5.7997,-5.7997,-5.7997,-5.796,-5.7776,-5.774,-5.7373,-5.5926,-5.6088,-5.6345,-5.5721,-5.6088,-5.6345,-5.5721,-5.5596,-5.5596,-5.5596,-5.5596,-5.5596,-5.5596,-5.5596,-5.5559,-5.5354,-5.5317,-5.5244,-5.5097,-5.5244,-5.5684,-5.6492,-5.6528,-5.6822,-5.7446,-5.7483,-5.7189,-5.6565,-5.6528,-5.6638,-5.6822,-5.6822,-5.7116,-5.774,-5.774,-5.7813,-5.7997,-5.7997,-5.7997,-5.7997,-5.7997,-5.7997,-5.7997,-5.7997,-5.7997,-5.7997,-5.7997,-5.7655,-5.7227,-5.7774,-5.7655,-5.7227,-5.7997,-5.7997,-5.7997,-5.7997,-5.7997,-5.7997,-5.7997,-5.7997,-5.7997,-5.7997,-5.7997,-5.7997,-5.7997,-5.7997,-5.7997,-5.7997,-5.7997,-5.7813,-5.7409,-5.6638,-5.5978,-5.5574,-5.4399,-5.3959,-5.4326,-5.4766,-5.4766,-5.4399,-5.5207,-5.5354,-5.495,-5.495,-5.473,-5.4326,-5.3959,-5.3995,-5.4252,-5.3078,-5.3041,-5.3702,-5.2894,-5.2821,-5.3203,-5.3203,-5.3203,-5.324,-5.3628,-5.4289,-5.495,-5.495,-5.55,-5.6161,-5.6161,-5.6712,-5.7446,-5.7886,-5.7997,-5.7997,-5.7997,-5.7997,-5.7997,-5.7997,-5.7997,-5.7776,-5.6932,-5.7079,-5.7262,-5.6822,-5.7079,-5.7226,-5.6822,-5.6748,-5.6748,-5.6748,-5.6748,-5.6748,-5.6748,-5.6748,-5.6602,-5.6198,-5.6161,-5.6161,-5.6161,-5.6161,-5.6492,-5.7299,-5.7373,-5.7556,-5.796,-5.7997,-5.7813,-5.7409,-5.7373,-5.7373,-5.7373,-5.7373,-5.7593,-5.7997,-5.7997,-5.7997,-5.7997,-5.7997,-5.7997,-5.7997,-5.7997,-5.7997,-5.7997,-5.7997,-5.7997,-5.7997,-5.7997,-5.775,-5.7425,-5.7449,-5.6978,-5.6474,-5.7997,-5.7997,-5.7997,-5.7997,-5.7997,-5.7997,-5.7997,-5.7997,-5.7997,-5.7997,-5.7997,-5.7997,-5.7997,-5.7997,-5.7997,-5.7997,-5.7997,-5.7997,-5.7997,-5.7262,-5.6822,-5.6822,-5.539,-5.4913,-5.5574,-5.5721,-5.5464,-5.4803,-5.5611,-5.5941,-5.5794,-5.5794,-5.5721,-5.5596,-5.4913,-5.4987,-5.55,-5.4179,-5.3922,-5.4326,-5.3665,-5.3314,-5.3203,-5.3203,-5.3277,-5.3482,-5.4179,-5.5023,-5.5794,-5.5794,-5.6345,-5.6969,-5.6859,-5.7336,-5.7997,-5.7997,-5.7997,-5.7997,-5.7997,-5.7997,-5.7997,-5.7997,-5.7997,-5.7997,-5.7997,-5.7997,-5.7997,-5.7997,-5.7997,-5.7997,-5.7997,-5.7997,-5.7997,-5.7997,-5.7997,-5.7997,-5.7997,-5.7997,-5.774,-5.7079,-5.7005,-5.7005,-5.7005,-5.7005,-5.7299,-5.796,-5.7997,-5.7997,-5.7997,-5.7997,-5.7997,-5.7997,-5.7997,-5.7997,-5.7997,-5.8143,-5.8217,-5.8217,-5.8327,-5.8327,-5.8217,-5.807,-5.807,-5.8217,-5.807,-5.7997,-5.7997,-5.7997,-5.7997,-5.7997,-5.7997,-5.7844,-5.7522,-5.6773,-5.6177,-5.592,-5.7997,-5.7997,-5.7997,-5.7997,-5.7997,-5.7997,-5.7997,-5.7997,-5.7997,-5.7997,-5.7997,-5.7997,-5.7997,-5.7997,-5.7997,-5.7997,-5.7997,-5.7997,-5.7997,-5.7262,-5.6822,-5.6822,-5.5904,-5.5486,-5.5596,-5.6271,-5.6602,-5.6492,-5.7262,-5.7336,-5.6638,-5.6638,-5.6271,-5.5596,-5.5486,-5.55,-5.5574,-5.5354,-5.495,-5.4399,-5.4289,-5.3812,-5.3203,-5.3203,-5.3628,-5.4252,-5.4363,-5.5354,-5.6638,-5.6638,-5.7189,-5.7703,-5.7042,-5.7336,-5.7997,-5.7997,-5.7997,-5.7997,-5.7997,-5.7997,-5.7997,-5.7997,-5.7997,-5.7997,-5.7997,-5.7997,-5.7997,-5.7997,-5.7997,-5.7997,-5.7997,-5.7997,-5.7997,-5.7997,-5.7997,-5.7997,-5.7997,-5.7997,-5.796,-5.785,-5.785,-5.785,-5.785,-5.785,-5.7886,-5.7997,-5.7997,-5.7997,-5.7997,-5.7997,-5.7997,-5.7997,-5.7997,-5.7997,-5.7997,-5.8694,-5.9038,-5.9038,-5.9758,-5.9722,-5.9001,-5.8327,-5.84,-5.9001,-5.829,-5.7997,-5.7997,-5.7997,-5.7997,-5.7997,-5.7997,-5.7216,-5.592,-5.5173,-5.5232,-5.5836,-5.7997,-5.7997,-5.7997,-5.7997,-5.7997,-5.7997,-5.7997,-5.7997,-5.7997,-5.7997,-5.7997,-5.7997,-5.7997,-5.7997,-5.7997,-5.7997,-5.7997,-5.7997,-5.7997,-5.7666,-5.7483,-5.7483,-5.6712,-5.6492,-5.6932,-5.6859,-5.7042,-5.7483,-5.7813,-5.7813,-5.7483,-5.7483,-5.7262,-5.6932,-5.6455,-5.6528,-5.6859,-5.6,-5.5647,-5.5721,-5.5244,-5.484,-5.4546,-5.4546,-5.4766,-5.5133,-5.5574,-5.6492,-5.7483,-5.7483,-5.7703,-5.7923,-5.7593,-5.7703,-5.7997,-5.7997,-5.7997,-5.7997,-5.7997,-5.7997,-5.7997,-5.7997,-5.7997,-5.7997,-5.7997,-5.7997,-5.7997,-5.7997,-5.7997,-5.7997,-5.7997,-5.7997,-5.7997,-5.7997,-5.7997,-5.7997,-5.7997,-5.7997,-5.7997,-5.7997,-5.7997,-5.7997,-5.7997,-5.7997,-5.7997,-5.7997,-5.7997,-5.7997,-5.7997,-5.7997,-5.7997,-5.7997,-5.7997,-5.7997,-5.7997,-5.8804,-5.9184,-5.9184,-6.0015,-6.0236,-5.9869,-5.9501,-5.9538,-5.9832,-5.9024,-5.8694,-5.8657,-5.818,-5.7997,-5.7997,-5.7997,-5.7054,-5.5667,-5.532,-5.4909,-5.4637]},{"header":{"parameterUnit":"m.s-1","parameterCategory":1,"la1":30.6,"la2":28.766,"lo1":-90.7593,"lo2":-88.6598,"dy":0.0162,"dx":0.0183,"nx":116,"ny":114,"refTime":"2024-04-15T06:00:00:Z","depth":0,"parameterNumber":3,"parameterNumberName":"V-component_of_WINDS"},"data":[0.0,0.0,0.0,0.0,0.0,0.0,0.0,0.0,0.0,0.0,0.0,0.0,0.0,0.0,0.0,0.0,0.0,0.0,0.0,0.0,0.0,0.0,0.0,0.0,0.0,0.0,0.0,0.0,0.0,0.0,0.0,0.0,0.0,0.0,0.0,0.0,0.0,0.0,0.0,0.0,0.0,0.0,0.0,0.0,0.0,0.0,0.0,0.0,0.0,0.0,0.0,0.0,0.0,0.0,0.0,0.0,0.0,0.0,0.0,0.0,0.0,0.0,0.0,0.0,0.0,0.0,0.0,0.0,0.0,0.0,0.0,0.0,0.0,0.0,0.0,0.0,0.0,0.0,0.0,0.0,0.0,0.0,0.0,0.0,0.0,0.0,0.0,0.0,0.0,0.0,0.0,0.0,0.0,0.0,0.0,0.0,0.0,0.0,0.0,0.0,0.0,0.0,0.0,0.0,0.0,0.0,0.0,0.0,0.0,0.0,0.0,0.0,0.0,0.0,0.0,0.0,0.0,0.0,0.0,0.0,0.0,0.0,0.0,0.0,0.0,0.0,0.0,0.0,0.0,0.0,0.0,0.0,0.0,0.0,0.0,0.0,0.0,0.0,0.0,0.0,0.0,0.0,0.0,0.0,0.0,0.0,0.0,0.0,0.0,0.0,0.0,0.0,0.0,0.0,0.0,0.0,0.0,0.0,0.0,0.0,0.0,0.0,0.0,0.0,0.0,0.0,0.0,0.0,0.0,0.0,0.0,0.0,0.0,0.0,0.0,0.0,0.0,0.0,0.0,0.0,0.0,0.0,0.0,0.0,0.0,0.0,0.0,0.0,0.0,0.0,0.0,0.0,0.0,0.0,0.0,0.0,0.0,0.0,0.0,0.0,0.0,0.0,0.0,0.0,0.0,0.0,0.0,0.0,0.0,0.0,0.0,0.0,0.0,0.0,0.0,0.0,0.0,0.0,0.0,0.0,0.0,0.0,0.0,0.0,0.0,0.0,0.0,0.0,0.0,0.0,0.0,0.0,0.0,0.0,0.0,0.0,0.0,0.0,0.0,0.0,0.0,0.0,0.0,0.0,0.0,0.0,0.0,0.0,0.0,0.0,0.0,0.0,0.0,0.0,0.0,0.0,0.0,0.0,0.0,0.0,0.0,0.0,0.0,0.0,0.0,0.0,0.0,0.0,0.0,0.0,0.0,0.0,0.0,0.0,0.0,0.0,0.0,0.0,0.0,0.0,0.0,0.0,0.0,0.0,0.0,0.0,0.0,0.0,0.0,0.0,0.0,0.0,0.0,0.0,0.0,0.0,0.0,0.0,0.0,0.0,0.0,0.0,0.0,0.0,0.0,0.0,0.0,0.0,0.0,0.0,0.0,0.0,0.0,0.0,0.0,0.0,0.0,0.0,0.0,0.0,0.0,0.0,0.0,0.0,0.0,0.0,0.0,0.0,0.0,0.0,0.0,0.0,0.0,0.0,0.0,0.0,0.0,0.0,0.0,0.0,0.0,0.0,0.0,0.0,0.0,0.0,0.0,0.0,0.0,0.0,0.0,0.0,0.0,0.0,0.0,0.0,0.0,0.0,0.0,0.0,0.0,0.0,0.0,0.0,0.0,0.0,0.0,0.0,0.0,0.0,0.0,0.0,0.0,0.0,0.0,0.0,0.0,0.0,0.0,0.0,0.0,0.0,0.0,0.0,0.0,0.0,0.0,0.0,0.0,0.0,0.0,0.0,0.0,0.0,0.0,0.0,0.0,0.0,0.0,0.0,0.0,0.0,0.0,0.0,0.0,0.0,0.0,0.0,0.0,0.0,0.0,0.0,0.0,0.0,0.0,0.0,0.0,0.0,0.0,0.0,0.0,0.0,0.0,0.0,0.0,0.0,0.0,0.0,0.0,0.0,0.0,0.0,0.0,0.0,0.0,0.0,0.0,0.0,0.0,0.0,0.0,0.0,0.0,0.0,0.0,0.0,0.0,0.0,0.0,0.0,0.0,0.0,0.0,0.0,0.0,0.0,0.0,0.0,0.0,0.0,0.0,0.0,0.0,0.0,0.0,0.0,0.0,0.0,0.0,0.0,0.0,0.0,0.0,0.0,0.0,0.0,0.0,0.0,0.0,0.0,0.0,0.0,0.0,0.0,0.0,0.0,0.0,0.0,0.0,0.0,0.0,0.0,0.0,0.0,0.0,0.0,0.0,0.0,0.0,0.0,0.0,0.0,0.0,0.0,0.0,0.0,0.0,0.0,0.0,0.0,0.0,0.0,0.0,0.0,0.0,0.0,0.0,0.0,0.0,0.0,0.0,0.0,0.0,0.0,0.0,0.0,0.0,0.0,0.0,0.0,0.0,0.0,0.0,0.0,0.0,0.0,0.0,0.0,0.0,0.0,0.0,0.0,0.0,0.0,0.0,0.0,0.0,0.0,0.0,0.0,0.0,0.0,0.0,0.0,0.0,0.0,0.0,0.0,0.0,0.0,0.0,0.0,0.0,0.0,0.0,0.0,0.0,0.0,0.0,0.0,0.0,0.0,0.0,0.0,0.0,0.0,0.0,0.0,0.0,0.0,0.0,0.0,0.0,0.0,0.0,0.0,0.0,0.0,0.0,0.0,0.0,0.0,0.0,0.0,0.0,0.0,0.0,0.0,0.0,0.0,0.0,0.0,0.0,0.0,0.0,0.0,0.0,0.0,0.0,0.0,0.0,0.0,0.0,0.0,0.0,0.0,0.0,0.0,0.0,0.0,0.0,0.0,0.0,0.0,0.0,0.0,0.0,0.0,0.0,0.0,0.0,0.0,0.0,0.0,0.0,0.0,0.0,0.0,0.0,0.0,0.0,0.0,0.0,0.0,0.0,0.0,0.0,0.0,0.0,0.0,0.0,0.0,0.0,0.0,0.0,0.0,0.0,0.0,0.0,0.0,0.0,0.0,0.0,0.0,0.0,0.0,0.0,0.0,0.0,0.0,0.0,0.0,0.0,0.0,0.0,0.0,0.0,0.0,0.0,0.0,0.0,0.0,0.0,0.0,0.0,0.0,0.0,0.0,0.0,0.0,0.0,0.0,0.0,0.0,0.0,0.0,0.0,0.0,0.0,0.0,0.0,0.0,0.0,0.0,0.0,0.0,0.0,0.0,0.0,0.0,0.0,0.0,0.0,0.0,0.0,0.0,0.0,0.0,0.0,0.0,0.0,0.0,0.0,0.0,0.0,0.0,0.0,0.0,0.0,0.0,0.0,0.0,0.0,0.0,0.0,0.0,0.0,0.0,0.0,0.0,0.0,0.0,0.0,0.0,0.0,0.0,0.0,0.0,0.0,0.0,0.0,0.0,0.0,0.0,0.0,0.0,0.0,0.0,0.0,0.0,0.0,0.0,0.0,0.0,0.0,0.0,0.0,0.0,0.0,0.0,0.0,0.0,0.0,0.0,0.0,0.0,0.0,0.0,0.0,0.0,0.0,0.0,0.0,0.0,0.0,0.0,0.0,0.0,0.0,0.0,0.0,0.0,0.0,0.0,0.0,0.0,0.0,0.0,0.0,0.0,0.0,0.0,0.0,0.0,0.0,0.0,0.0,0.0,0.0,0.0,0.0,0.0,0.0,0.0,0.0,0.0,0.0,0.0,0.0,0.0,0.0,0.0,0.0,0.0,0.0,0.0,0.0,0.0,0.0,0.0,0.0,0.0,0.0,0.0,0.0,0.0,0.0,0.0,0.0,0.0,0.0,0.0,0.0,0.0,0.0,0.0,0.0,0.0,0.0,0.0,0.0,0.0,0.0,0.0,0.0,0.0,0.0,0.0,0.0,0.0,0.0,0.0,0.0,0.0,0.0,0.0,0.0,0.0,0.0,0.0,0.0,0.0,0.0,0.0,0.0,0.0,0.0,0.0,0.0,0.0,0.0,0.0,0.0,0.0,0.0,0.0,0.0,0.0,0.0,0.0,0.0,0.0,0.0,0.0,0.0,0.0,0.0,0.0,0.0,0.0,0.0,0.0,0.0,0.0,0.0,0.0,0.0,0.0,0.0,0.0,0.0,0.0,0.0,0.0,0.0,0.0,0.0,0.0,0.0,0.0,0.0,0.0,0.0,0.0,0.0,0.0,0.0,0.0,0.0,0.0,0.0,0.0,0.0,0.0,0.0,0.0,0.0,0.0,0.0,0.0,0.0,0.0,0.0,0.0,0.0,0.0,0.0,0.0,0.0,0.0,0.0,0.0,0.0,0.0,0.0,0.0,0.0,0.0,0.0,0.0,0.0,0.0,0.0,0.0,0.0,0.0,0.0,0.0,0.0,0.0,0.0,0.0,0.0,0.0,0.0,0.0,0.0,0.0,0.0,0.0,0.0,0.0,0.0,0.0,0.0,0.0,0.0,0.0,0.0,0.0,0.0,0.0,0.0,0.0,0.0,0.0,0.0,0.0,0.0,0.0,0.0,0.0,0.0,0.0,0.0,0.0,0.0,0.0,0.0,0.0,0.0,0.0,0.0,0.0,0.0,0.0,0.0,0.0,0.0,0.0,0.0,0.0,0.0,0.0,0.0,0.0,0.0,0.0,0.0,0.0,0.0,0.0,0.0,0.0,0.0,0.0,0.0,0.0,0.0,0.0,0.0,0.0,0.0,0.0,0.0,0.0,0.0,0.0,0.0,0.0,0.0,0.0,0.0,0.0,0.0,0.0,0.0,0.0,0.0,0.0,0.0,0.0,0.0,0.0,0.0,0.0,0.0,0.0,0.0,0.0,0.0,0.0,0.0,0.0,0.0,0.0,0.0,0.0,0.0,0.0,0.0,0.0,0.0,0.0,0.0,0.0,0.0,0.0,0.0,0.0,0.0,0.0,0.0,0.0,0.0,0.0,0.0,0.0,0.0,0.0,0.0,0.0,0.0,0.0,0.0,0.0,0.0,0.0,0.0,0.0,0.0,0.0,0.0,0.0,0.0,0.0,0.0,0.0,0.0,0.0,0.0,0.0,0.0,0.0,0.0,0.0,0.0,0.0,0.0,0.0,0.0,0.0,0.0,0.0,0.0,0.0,0.0,0.0,0.0,0.0,0.0,0.0,0.0,0.0,0.0,0.0,0.0,0.0,0.0,0.0,0.0,0.0,0.0,0.0,0.0,0.0,0.0,0.0,0.0,0.0,0.0,0.0,0.0,0.0,0.0,0.0,0.0,0.0,0.0,0.0,0.0,0.0,0.0,0.0,0.0,0.0,0.0,0.0,0.0,0.0,0.0,0.0,0.0,0.0,0.0,0.0,0.0,0.0,0.0,0.0,0.0,0.0,0.0,0.0,0.0,0.0,0.0,0.0,0.0,0.0,0.0,0.0,0.0,0.0,0.0,0.0,0.0,0.0,0.0,0.0,0.0,0.0,0.0,0.0,0.0,0.0,0.0,0.0,0.0,0.0,0.0,0.0,0.0,0.0,0.0,0.0,0.0,0.0,0.0,0.0,0.0,0.0,0.0,0.0,0.0,0.0,0.0,0.0,0.0,0.0,0.0,0.0,0.0,0.0,0.0,0.0,0.0,0.0,0.0,0.0,0.0,0.0,0.0,0.0,0.0,0.0,0.0,0.0,0.0,0.0,0.0,0.0,0.0,0.0,0.0,0.0,0.0,0.0,0.0,0.0,0.0,0.0,0.0,0.0,0.0,0.0,0.0,0.0,0.0,0.0,0.0,0.0,0.0,0.0,0.0,0.0,0.0,0.0,0.0,0.0,0.0,0.0,0.0,0.0,0.0,0.0,0.0,0.0,0.0,0.0,0.0,0.0,0.0,0.0,0.0,0.0,0.0,0.0,0.0,0.0,0.0,0.0,0.0,0.0,0.0,0.0,0.0,0.0,0.0,0.0,0.0,0.0,0.0,0.0,0.0,0.0,0.0,0.0,0.0,0.0,0.0,0.0,0.0,0.0,0.0,0.0,0.0,0.0,0.0,0.0,0.0,0.0,0.0,0.0,0.0,0.0,0.0,0.0,0.0,0.0,0.0,0.0,0.0,0.0,0.0,0.0,0.0,0.0,0.0,0.0,0.0,0.0,0.0,0.0,0.0,0.0,0.0,0.0,0.0,0.0,0.0,0.0,0.0,0.0,0.0,0.0,0.0,0.0,0.0,0.0,0.7719,0.0,0.0,0.0,0.0,0.0,0.0,0.0,0.0,0.0,0.0,0.0,0.0,0.0,0.0,0.0,0.0,0.0,0.0,0.0,0.0,0.0,0.0,0.0,0.0,0.7882,0.788,0.7874,0.7941,0.7955,0.7923,0.788,0.0,0.0,0.0,0.0,0.7604,0.8273,0.832,0.7597,0.9052,0.9753,0.9801,1.0518,1.126,1.1891,0.0,0.0,0.0,0.0,0.0,0.0,0.0,0.0,0.0,0.0,0.0,0.0,0.0,0.0,0.0,0.0,0.0,0.0,0.0,0.0,0.0,0.0,0.0,0.0,0.0,0.0,0.0,0.0,0.0,0.0,0.0,0.0,0.0,0.0,0.0,0.0,0.0,0.0,0.0,0.0,0.0,0.0,0.0,0.0,0.0,0.0,0.0,0.0,0.0,0.0,0.0,0.0,0.0,0.0,0.0,0.0,0.0,0.0,0.0,0.0,0.0,0.0,0.0,0.0,0.0,0.0,0.0,0.0,0.0,0.0,0.0,0.7991,0.0,0.0,0.0,0.0,0.0,0.0,0.0,0.0,0.0,0.0,0.0,0.0,0.0,0.0,0.0,0.0,0.0,0.0,0.0,0.0,0.0,0.7516,0.778,0.7834,0.7902,0.7982,0.7988,0.7988,0.7988,0.7874,0.7848,0.7848,0.774,0.7678,0.7678,0.8885,0.8885,0.7678,1.0104,1.1471,1.1717,1.0703,1.1107,1.2621,1.2129,0.0,0.0,0.0,0.0,0.0,0.0,0.0,0.0,0.0,0.0,0.0,0.0,0.0,0.0,0.0,0.0,0.0,0.0,0.0,0.0,0.0,0.0,0.0,0.0,0.0,0.0,0.0,0.0,0.0,0.0,0.0,0.0,0.0,0.0,0.0,0.0,0.0,0.0,0.0,0.0,0.0,0.0,0.0,0.0,0.0,0.0,0.0,0.0,0.0,0.0,0.0,0.0,0.0,0.0,0.0,0.0,0.0,0.0,0.0,0.0,0.0,0.0,0.0,0.8893,0.8959,0.9022,0.9137,0.9248,0.9221,0.8757,0.8316,0.8011,0.0,0.0,0.0,0.0,0.0,0.0,0.0,0.0,0.0,0.0,0.0,0.0,0.0,0.0,0.0,0.0,0.0,0.0,0.0,0.0,0.7631,0.7794,0.788,0.7968,0.7988,0.7988,0.7988,0.7988,0.7968,0.7961,0.7961,0.7941,0.7934,0.7934,0.8146,0.8146,0.7934,0.8634,0.9657,1.105,1.1115,1.271,1.5463,1.2978,1.3149,1.5146,0.0,0.0,0.0,0.0,0.0,0.0,0.0,0.0,0.0,0.0,0.0,0.0,0.0,0.0,0.0,0.0,0.0,0.0,0.0,0.0,0.0,0.0,0.0,0.0,0.0,0.0,0.0,0.0,0.0,0.0,0.0,0.0,0.0,0.0,0.0,0.0,0.0,0.0,0.0,0.0,0.0,0.7495,0.7433,0.0,0.0,0.0,0.0,0.0,0.0,0.0,0.0,0.0,0.0,0.0,0.0,0.0,0.8743,0.9057,0.9157,0.9245,0.9266,0.9306,0.932,0.932,0.934,0.9354,0.9354,0.9408,0.0,0.8716,0.8526,0.0,0.0,0.0,0.0,0.0,0.0,0.0,0.0,0.0,0.0,0.0,0.0,0.0,0.0,0.0,0.0,0.0,0.0,0.0,0.0,0.0,0.8079,0.8167,0.8167,0.8472,0.8526,0.8187,0.8404,0.8339,0.8002,0.7907,0.7901,0.7988,0.8686,0.9114,0.9348,0.8906,0.9637,1.1396,1.162,1.2963,1.5222,1.3976,1.45,1.6266,1.5555,0.0,0.0,0.0,0.0,0.0,0.0,0.0,0.0,0.0,0.0,0.0,0.0,0.0,0.0,0.0,0.0,0.0,0.0,0.0,0.0,0.0,0.0,0.0,0.0,0.0,0.0,0.0,0.0,0.0,0.0,0.0,0.0,0.0,0.0,0.0,0.0,0.0,0.0,0.0,0.7604,0.7787,0.7638,0.7957,0.8099,0.0,0.0,0.0,0.0,0.0,0.0,0.0,0.0,0.0,0.8907,0.9089,0.9279,0.9408,0.9557,0.9673,0.9821,0.9842,0.989,0.989,0.9971,1.0005,1.0012,1.0073,0.9951,0.9652,0.9089,0.8635,0.8269,0.0,0.0,0.0,0.0,0.7719,0.7733,0.0,0.0,0.0,0.0,0.0,0.0,0.0,0.0,0.0,0.0,0.0,0.0,0.8113,0.8289,0.8411,0.8545,0.8886,0.8907,0.8411,0.8587,0.8453,0.8008,0.788,0.7874,0.7988,0.8977,0.9612,0.9947,0.9361,1.0077,1.1933,1.2525,1.3771,1.5522,1.5861,1.6478,1.7238,1.66,1.6229,1.6032,0.0,0.0,0.0,0.0,0.0,0.0,0.0,0.0,0.0,0.0,0.0,0.0,0.0,0.0,0.0,0.0,0.0,0.0,0.0,0.0,0.0,0.0,0.0,0.0,0.0,0.0,0.0,0.0,0.0,0.0,0.0,0.0,0.0,0.0,0.0,0.0,0.0,0.7855,0.8062,0.7841,0.8309,0.8492,0.0,0.0,0.0,0.0,0.0,0.0,0.8703,0.8927,0.915,0.9374,0.9639,0.9836,0.9951,1.0093,1.0202,1.0283,1.0399,1.0432,1.0399,1.05,1.0548,1.0548,1.0548,1.0466,1.0283,0.9605,0.9083,0.8696,0.8513,0.8275,0.8045,0.8085,0.8321,0.8599,0.0,0.0,0.0,0.0,0.0,0.0,0.0,0.0,0.0,0.0,0.0,0.7821,0.8397,0.8594,0.8804,0.9139,0.8879,0.8716,0.8689,0.8258,0.8022,0.7988,0.7982,0.7982,0.7988,0.8361,0.8632,0.8804,0.9286,1.0472,1.2243,1.4189,1.6105,1.7956,1.9328,1.8954,1.7319,1.5887,1.6256,1.7716,1.6072,0.0,0.0,0.0,0.0,0.0,0.0,0.0,0.0,0.0,0.0,0.0,0.0,0.0,0.0,0.0,0.0,0.0,0.0,0.0,0.0,0.0,0.0,0.0,0.0,0.0,0.0,0.0,0.0,0.0,0.0,0.0,0.0,0.0,0.0,0.0,0.0,0.0,0.0,0.7882,0.8587,0.0,0.0,0.0,0.0,0.8669,0.8818,0.9028,0.932,0.9354,0.9557,0.993,1.0161,1.0453,1.0806,1.1023,1.1029,1.0833,1.0847,1.0772,1.0697,1.0704,1.0711,1.0711,1.0711,1.0622,1.0446,0.9978,0.9612,0.9306,0.9022,0.8804,0.8682,0.877,0.9753,1.0727,0.0,0.0,0.0,0.0,0.0,0.6641,0.6849,0.693,0.7105,0.755,0.7678,0.8004,0.8703,0.8994,0.9259,0.9557,0.9666,0.9517,0.9028,0.8845,0.8587,0.8208,0.7997,0.7984,0.818,0.8574,0.8947,0.9286,0.9795,1.0974,1.2812,1.4779,1.6615,1.8435,2.0065,2.0315,1.9443,1.8146,1.7642,1.7662,1.6647,1.6126,0.0,0.0,0.0,0.0,0.0,0.0,0.0,0.0,0.0,0.0,0.0,0.0,0.0,0.0,0.0,0.0,0.0,0.0,0.0,0.0,0.0,0.0,0.0,0.0,0.0,0.0,0.0,0.0,0.0,0.0,0.0,0.0,0.0,0.0,0.0,0.0,0.0,0.8845,0.9449,0.0,0.9103,0.9055,0.9123,0.9279,0.934,0.9544,0.9937,1.0046,1.0256,1.055,1.0867,1.107,1.1233,1.1185,1.1185,1.1233,1.0941,1.0759,1.0799,1.0765,1.0717,1.0717,1.0717,1.069,1.0616,1.0358,0.9964,0.951,0.93,0.9076,0.8811,0.8865,0.9293,0.982,0.0,0.0,0.0,0.0,0.0,0.6559,0.681,0.6856,0.7088,0.7543,0.7767,0.8174,0.8927,0.932,0.9673,1.0019,1.0053,0.9822,0.9323,0.905,0.8688,0.814,0.797,0.8031,0.8336,0.8832,0.9286,0.968,1.0134,1.1063,1.237,1.4743,1.6496,1.7731,2.0068,2.1002,2.0762,1.9893,1.8945,1.7969,1.7168,1.686,1.6727,0.0,0.0,0.0,0.0,0.0,0.0,0.0,0.0,0.0,0.0,0.0,0.0,0.0,0.0,0.0,0.0,0.0,0.0,0.0,0.0,0.0,0.0,0.0,0.0,0.0,0.0,0.0,0.0,0.0,0.0,0.0,0.0,0.0,0.0,0.0,0.951,0.9462,1.0032,1.0229,0.9727,0.968,0.9747,0.9897,0.9958,1.0161,1.0555,1.067,1.0833,1.109,1.1287,1.1416,1.147,1.1314,1.1267,1.1307,1.0962,1.0759,1.0799,1.0765,1.0717,1.0717,1.0717,1.0717,1.0711,1.0609,1.031,0.989,0.9686,0.9456,0.9181,0.9181,0.9602,1.0211,0.0,0.0,0.0,0.0,0.0,0.6559,0.6675,0.6824,0.7082,0.7543,0.7862,0.833,0.9139,0.9571,1.0012,1.046,0.9958,0.9551,0.9395,0.8682,0.8126,0.7821,0.7921,0.8194,0.8499,0.9089,0.9544,0.9842,1.0283,1.0575,1.0784,1.4297,1.5913,1.6053,1.9546,2.1109,2.1109,2.0815,2.0027,1.8878,1.7728,1.7542,1.7836,0.0,0.0,0.0,0.0,0.0,0.0,0.0,0.0,0.0,0.0,0.0,0.0,0.0,0.0,0.0,0.0,0.0,0.0,0.0,0.0,0.0,0.0,0.0,0.0,0.0,0.0,0.0,0.0,0.0,0.0,0.0,0.0,0.0,0.852,0.9286,0.9795,0.968,1.0304,1.0514,0.9937,1.0141,1.0371,1.0521,1.0656,1.0867,1.1165,1.1241,1.124,1.1396,1.1396,1.1463,1.1613,1.1457,1.1307,1.1227,1.1016,1.0799,1.0724,1.0724,1.0717,1.0717,1.0717,1.0717,1.0717,1.0717,1.0629,1.0466,1.0112,0.9903,0.9829,0.9822,1.0733,1.2231,0.0,0.0,0.0,0.63,0.6334,0.6443,0.6661,0.6736,0.6966,0.7522,0.7957,0.8533,0.9395,0.9883,1.029,1.0629,1.0107,0.9652,0.9401,0.8581,0.8018,0.7821,0.8167,0.8554,0.9016,0.9449,0.9897,1.031,1.0541,1.0677,1.0784,1.4297,1.6004,1.6409,1.9633,2.1229,2.1416,2.1109,2.0681,2.0094,1.8918,1.8277,1.7876,0.0,0.0,0.0,0.0,0.0,0.0,0.0,0.0,0.0,0.0,0.0,0.0,0.0,0.0,0.0,0.0,0.0,0.0,0.0,0.0,0.0,0.0,0.0,0.0,0.0,0.0,0.0,0.0,0.0,0.0,0.0,0.0,0.9334,0.9435,0.9944,1.0453,1.0853,1.1084,1.1226,1.1274,1.1063,1.107,1.1436,1.1199,1.1219,1.1626,1.1443,1.1396,1.1552,1.1558,1.1525,1.1457,1.1301,1.1275,1.1227,1.0907,1.0819,1.0813,1.0772,1.0717,1.0717,1.0717,1.0717,1.0717,1.0717,1.0697,1.0629,1.0331,1.012,0.9909,0.9863,1.0808,1.2371,0.0,0.0,0.0,0.63,0.63,0.6375,0.6573,0.6661,0.6892,0.7434,0.8004,0.8655,0.9429,0.9856,1.0181,1.0419,0.989,0.9388,0.9028,0.8336,0.7991,0.8085,0.8465,0.8886,0.9334,0.9781,1.0168,1.0493,1.0711,1.0745,1.0879,1.4506,1.6267,1.6655,1.9955,2.1577,2.1775,2.1416,2.1269,2.1149,2.0214,1.9559,1.9025,1.7889,1.7582,1.7675,1.7141,1.7114,1.7286,1.6593,0.0,0.0,0.0,0.0,0.0,0.0,0.0,0.0,0.0,0.0,0.0,0.0,0.0,0.0,0.0,0.0,0.0,0.0,0.0,0.0,0.0,0.0,0.0,0.0,0.9591,1.0093,1.0432,1.0649,1.0975,1.1511,1.1579,1.1667,1.1904,1.1633,1.1552,1.1809,1.1592,1.1531,1.1735,1.1579,1.1531,1.1613,1.1619,1.1545,1.1396,1.124,1.1131,1.107,1.0833,1.0765,1.0786,1.0758,1.0717,0.0,1.0717,1.0683,1.0629,1.0697,1.0683,0.0,0.0,0.0,0.0,0.0,1.1374,1.2457,0.0,0.0,0.0,0.63,0.63,0.6347,0.6491,0.66,0.6858,0.7285,0.7977,0.8648,0.9218,0.9557,0.9808,0.9903,0.9442,0.8968,0.8459,0.8092,0.8072,0.8486,0.8832,0.9161,0.9652,1.01,1.0392,1.0521,1.0826,1.0894,1.0948,1.4805,1.6601,1.6824,2.0377,2.2004,2.2017,2.1762,2.1724,2.1937,2.1376,2.0962,2.0521,1.9158,1.9078,1.9599,1.8784,1.821,1.7782,1.7474,0.0,0.0,0.0,0.0,0.0,0.0,0.0,0.0,0.0,0.0,0.0,0.0,0.0,0.0,0.0,0.0,0.0,0.0,0.0,0.0,0.0,0.0,0.0,0.0,1.0342,1.0812,1.143,1.1389,1.1436,1.1837,1.187,1.1918,1.2074,1.1945,1.1864,1.1884,1.185,1.1782,1.1674,0.0,0.0,0.0,0.0,1.1538,1.1369,1.1233,1.1084,1.0853,1.0785,1.0717,1.0717,1.0717,1.0717,1.0717,1.0717,1.0643,1.0527,1.0663,1.0629,1.0487,1.0473,1.0371,1.0384,1.1492,1.2037,1.2397,0.0,0.0,0.0,0.63,0.63,0.6347,0.6491,0.66,0.6817,0.7098,0.7685,0.8262,0.8615,0.9028,0.9347,0.9496,0.9069,0.8608,0.8103,0.8269,0.8445,0.8655,0.9191,0.9632,0.9896,1.0405,1.0649,1.0677,1.0975,1.1063,1.0948,1.4805,1.675,1.7049,2.0464,2.2111,2.2298,2.1842,2.1724,2.1951,2.1668,2.1149,2.0588,1.984,1.9359,1.9038,1.8637,1.8865,1.9252,1.849,1.8477,1.8544,1.7029,1.6576,0.0,0.0,0.0,0.0,0.0,0.0,0.0,0.0,0.0,0.0,0.0,0.0,0.0,0.0,0.0,0.0,0.0,0.0,0.0,1.2592,1.1836,1.1463,1.2189,1.2162,1.2108,1.2189,1.2094,1.2074,1.223,1.2108,1.2067,1.2189,1.1972,1.187,1.1972,1.1748,0.0,1.1619,1.1619,1.1484,1.1212,1.1179,1.1029,1.0765,0.0,0.0,1.0717,1.0717,1.0717,1.0717,1.0717,1.0704,1.0677,1.0711,1.0629,1.048,1.0365,1.0154,0.9903,1.0147,1.108,1.2217,0.0,0.0,0.0,0.63,0.63,0.6327,0.6395,0.6559,0.6783,0.6964,0.751,0.8038,0.8343,0.8634,0.8798,0.8818,0.8418,0.8153,0.8153,0.8431,0.8764,0.9144,0.9666,1.0046,1.0263,1.0643,1.0766,1.0766,1.1131,1.124,1.1241,1.4044,1.5912,1.7042,1.9725,2.1378,2.2178,2.1897,2.1937,2.2178,2.1884,2.159,2.1283,2.0842,2.0401,2.0,1.9853,1.98,1.9733,1.9292,1.9052,1.8658,1.7165,1.6808,1.6733,0.0,0.0,0.0,0.0,0.0,0.0,0.0,0.0,0.0,0.0,0.0,0.0,0.0,0.0,1.5475,1.3881,0.0,1.3171,1.2363,1.2002,1.1972,1.2345,1.2461,1.2508,1.2508,1.2311,1.2237,1.2379,1.2264,1.221,1.2284,1.2149,1.2026,1.1952,1.1809,1.1694,1.1619,1.1619,1.1511,1.128,1.1199,1.105,1.0766,1.0758,1.0717,1.0717,1.0717,1.0717,1.0717,1.0717,1.0677,1.0609,1.0609,1.0561,1.0487,1.0412,1.0202,0.9985,1.0747,1.1495,1.2337,0.0,0.0,0.0,0.63,0.63,0.63,0.63,0.6525,0.6709,0.6865,0.7346,0.7787,0.8115,0.817,0.814,0.814,0.7862,0.7862,0.8282,0.8615,0.9062,0.9666,1.0093,1.0405,1.0575,1.0819,1.0894,1.0989,1.126,1.1389,1.1459,1.3356,1.4963,1.6412,1.8833,2.0484,2.1528,2.1872,2.2151,2.2392,2.2044,2.1937,2.1951,2.1735,2.1363,2.1096,2.0975,2.0441,1.9786,1.9733,1.9212,1.8351,1.6992,1.6942,1.708,1.558,1.5515,0.0,0.0,0.0,0.0,0.0,0.0,0.0,0.0,0.0,1.6607,1.6901,1.6293,1.5553,1.4744,1.3812,1.3005,1.2558,1.2377,1.2471,1.3013,1.2802,1.2684,1.2684,1.2454,1.2332,1.2447,1.2359,1.2291,1.2291,1.2291,1.2182,1.1932,1.1891,1.1809,1.1667,1.166,1.1572,1.1396,1.1267,1.1131,1.0989,1.0839,1.0765,1.0765,1.0731,1.0717,1.0717,1.0717,1.0649,1.0534,1.0534,1.0521,1.0487,1.046,1.0283,1.0163,1.1401,1.1817,1.2026,0.0,0.0,0.0,0.0,0.0,0.63,0.63,0.6436,0.6552,0.6709,0.697,0.7278,0.7501,0.759,0.7678,0.7678,0.7868,0.8119,0.8438,0.892,0.9374,0.9909,1.0304,1.0602,1.0826,1.086,1.1009,1.1138,1.1307,1.1389,1.1466,1.3413,1.4469,1.4823,1.8465,2.0012,1.9955,2.1421,2.2151,2.2378,2.1817,2.1815,2.1951,2.1735,2.1363,2.1042,2.0521,2.0107,1.976,1.9506,1.9172,1.8768,1.8364,1.8101,1.7729,1.6788,1.6374,1.6166,1.5899,1.5784,1.5771,1.5744,1.6005,1.6286,0.0,0.0,1.7528,1.7782,1.7079,1.6539,1.6945,1.4957,1.4147,1.675,1.4431,1.3111,1.5474,1.3908,1.2528,1.2528,1.2386,1.2298,1.2311,1.2298,1.2291,1.2291,1.2291,1.2277,1.2244,1.2108,1.1965,1.1809,1.1809,1.1674,1.1396,1.1375,1.1287,1.1138,1.0989,1.0853,1.0853,1.0778,1.0717,1.0717,1.0717,1.0711,1.0697,1.0697,1.0616,1.048,1.0351,1.0202,1.0066,1.037,1.0392,1.0452,0.0,0.0,0.0,0.0,0.0,0.63,0.63,0.6422,0.6538,0.6559,0.6831,0.6997,0.7109,0.7244,0.7287,0.7287,0.7611,0.7984,0.8452,0.8988,0.9551,1.0161,1.0466,1.0683,1.0812,1.0982,1.1104,1.1234,1.1402,1.1477,1.1389,1.219,1.3021,1.395,1.5651,1.6814,1.766,1.9508,2.0356,2.0568,2.1319,2.1695,2.1748,2.1216,2.0748,2.0321,2.0067,1.9573,0.0,1.8905,1.8651,1.837,1.8209,1.7903,1.7422,1.686,1.638,1.5835,1.4927,1.5364,1.5972,1.5557,1.6252,1.7154,1.7635,1.8063,1.816,1.7478,1.7292,1.7179,1.6711,1.6146,1.5834,0.0,1.5102,1.4268,1.4064,1.312,1.2311,1.2135,1.1904,1.1904,1.2257,1.2291,1.2325,1.2406,1.2413,1.2379,1.2298,1.223,1.2081,1.1837,1.1918,1.1823,1.1525,1.1525,1.145,1.1294,1.1145,1.1029,1.088,1.0813,1.0739,1.0717,1.0717,1.0717,1.0711,1.0622,1.0602,1.0609,1.046,1.0419,1.0405,1.012,0.9971,0.9978,0.0,0.0,0.0,0.0,0.0,0.63,0.63,0.6422,0.6511,0.6511,0.6742,0.6903,0.6943,0.7038,0.7098,0.7098,0.738,0.7773,0.8323,0.8886,0.9483,1.0127,1.0439,1.0656,1.0778,1.0955,1.1084,1.1234,1.1341,1.1396,1.1328,1.1212,1.1783,1.2879,1.3595,1.4696,1.6257,1.8236,1.934,1.9898,2.0488,2.0721,2.0656,2.0022,1.9288,1.8758,1.9097,1.8677,1.7983,1.7903,1.7729,1.7569,1.7742,1.7502,1.7139,1.6794,1.6286,1.5621,1.4885,1.5575,0.0,1.6081,1.7024,1.8196,1.8637,1.8735,1.8387,1.7375,1.7298,1.7172,1.6262,1.6372,1.6424,1.582,1.5219,1.45,1.3505,1.2685,1.2047,1.1748,1.145,1.1457,1.1932,1.2054,1.2182,1.2366,1.242,1.2413,1.2352,1.2345,1.223,1.1965,1.2026,1.1959,1.1742,1.166,1.1586,1.1511,1.1314,1.1151,1.1002,1.0921,1.0759,1.0717,1.0717,1.0717,1.0711,1.0602,1.0622,1.0704,1.0555,1.0561,1.0602,1.012,0.9951,1.0006,0.0,0.0,0.0,0.0,0.0,0.63,0.63,0.6422,0.6511,0.6511,0.6742,0.6937,0.7071,0.7092,0.7098,0.7098,0.7285,0.757,0.7975,0.8479,0.9062,0.9802,1.0127,1.0493,1.0867,1.0806,1.0873,1.1234,1.1029,1.1036,1.1241,1.1234,1.1227,1.1365,1.3298,1.4882,1.6267,1.8295,2.0072,2.1343,1.9401,1.8562,1.8476,1.7645,1.675,1.615,1.7263,1.7261,1.6714,1.6433,1.6388,1.642,1.7045,1.7219,1.7139,1.6794,1.6286,1.5904,1.6477,1.6901,1.7313,1.7782,1.8651,1.9377,1.939,1.8711,1.8078,1.8089,1.7023,1.6171,1.6115,1.5096,1.506,1.7398,1.4786,1.3177,1.5378,1.3454,1.1735,1.1443,1.1145,1.1023,0.0,1.1463,1.1762,1.2054,1.221,1.2352,1.2488,1.2494,1.2427,1.2284,1.2135,1.2135,1.2047,1.1762,1.1687,1.1816,1.1525,1.1307,1.1145,1.086,1.0724,1.0717,1.0717,1.0717,1.0717,1.0717,1.0717,1.0704,1.0555,1.0493,1.048,1.0324,1.0263,1.0517,0.0,0.0,0.0,0.0,0.0,0.0,0.63,0.634,0.6409,0.6497,0.6742,0.0,0.0,0.0,0.0,0.0,0.7285,0.7516,0.7868,0.8309,0.8764,0.9161,0.9618,0.9951,1.0195,1.0351,1.0521,1.0717,1.0873,1.0921,1.0873,1.0975,1.0968,1.0873,1.1589,1.2142,1.274,1.4524,1.6236,1.768,1.7672,1.7718,1.7744,1.7554,1.651,1.5275,0.0,1.6126,1.6072,1.5792,1.5698,1.5765,1.6152,1.6273,1.6259,1.6152,1.5513,1.4933,1.5552,1.623,1.6962,1.7977,1.9387,2.0253,1.9362,1.89,1.8279,1.6731,1.577,1.5539,1.6648,1.5866,1.5367,1.6255,1.5105,1.3874,1.3379,1.243,1.1647,1.1158,1.0941,0.0,0.0,0.0,0.0,1.1877,1.2054,1.2203,1.2352,1.2447,1.2433,1.2298,1.2332,1.221,1.1911,1.1911,1.1837,1.1687,1.1491,1.1307,1.1158,1.0962,1.0752,1.0717,1.0717,1.0717,1.0711,1.0609,1.0629,1.0704,1.0555,1.0555,1.0636,1.0588,1.0446,1.039,0.0,0.0,0.0,0.0,0.0,0.0,0.0,0.0,0.0,0.0,0.0,0.0,0.0,0.0,0.0,0.0,0.0,0.7394,0.7638,0.7977,0.8323,0.8682,0.9076,0.9354,0.9503,0.9802,0.9978,1.0012,1.0263,1.0337,1.0243,1.0344,1.0337,1.0249,1.0351,1.0741,1.1421,1.2506,1.414,1.6021,1.5942,1.6183,1.6666,1.6443,1.5614,0.0,1.5188,1.5511,1.5631,1.5337,1.5244,1.5311,1.5712,1.5486,1.5131,1.5238,1.451,1.3997,1.5456,1.6351,1.7125,1.8208,1.9509,2.0063,1.8353,1.7904,1.7346,1.5521,1.5361,1.5771,1.6596,1.5774,1.501,1.5341,1.4168,1.2935,1.1987,1.1599,1.1314,1.0921,1.0853,1.067,0.0,0.0,0.0,1.164,1.1864,1.2067,1.2277,1.2427,1.2461,1.2372,1.2352,1.223,1.1999,1.1932,1.1809,1.1619,1.1409,1.126,1.1158,1.0955,1.0812,1.0717,1.0717,1.0717,1.0711,1.0616,1.0629,1.0711,1.0609,1.0636,1.0717,1.0717,1.0534,1.0263,0.0,0.0,0.0,0.0,0.0,0.0,0.0,0.0,0.0,0.0,0.0,0.0,0.0,0.0,0.0,0.0,0.0,0.0,0.7353,0.7502,0.778,0.8258,0.8506,0.8737,0.8831,0.9178,0.9316,0.9173,0.9273,0.9347,0.9347,0.9361,0.9367,0.9381,0.9673,1.0613,1.2055,1.2167,1.3888,1.6366,1.4288,1.4179,1.5264,1.4481,1.4136,1.4166,1.5063,1.5391,1.5337,1.5115,1.499,1.502,1.5483,1.4771,1.3856,1.4139,1.3497,1.3308,1.6275,1.7299,1.7769,1.8576,1.9002,1.8707,1.6573,1.5989,1.5627,1.483,1.5753,1.653,0.0,0.0,1.4097,1.4605,1.2326,1.0685,1.1287,1.1036,1.0819,0.0,0.0,0.0,0.0,0.0,0.0,1.1369,0.0,1.1952,1.2264,1.242,1.2501,1.2501,1.2223,1.2217,1.2429,1.1983,1.1691,1.1613,1.1314,1.1241,1.122,1.0867,1.0724,1.0717,1.0717,1.0717,1.0717,1.0717,1.0717,1.0717,1.0717,1.0717,1.0717,1.0717,1.0541,1.029,0.0,0.0,0.0,0.0,0.0,0.0,0.0,0.0,0.0,0.0,0.0,0.0,0.0,0.0,0.0,0.0,0.0,0.0,0.7152,0.7346,0.7528,0.7644,0.7882,0.8113,0.8211,0.8459,0.8641,0.8655,0.8804,0.8879,0.8886,0.911,0.9268,0.9275,0.9408,0.9703,1.0135,1.0171,1.175,1.4221,1.2986,1.3497,1.4969,1.5042,1.4467,1.372,1.4968,1.5257,1.5142,1.5244,1.4815,1.4076,1.3329,1.2876,1.2704,1.3068,1.3542,1.4536,1.7101,1.7516,1.758,1.9323,1.8774,1.7485,1.6378,1.5629,1.5309,1.5533,1.5164,1.4978,0.0,0.0,0.0,1.3606,1.2826,0.0,1.1454,1.1484,0.0,1.3046,0.0,1.1746,1.2837,1.1945,0.0,0.0,1.1633,1.1803,1.2101,1.2366,1.2501,1.2501,1.2325,1.286,1.425,1.3858,1.2952,1.1619,1.1423,1.1274,1.1158,1.0975,1.0759,1.0717,1.0717,1.0717,1.0717,1.0717,1.0717,1.0717,1.0717,1.0717,1.0717,1.0717,1.0602,1.0426,0.0,0.0,0.0,0.0,0.0,0.0,0.0,0.0,0.0,0.0,0.0,0.0,0.0,0.0,0.0,0.0,0.0,0.0,0.0,0.7224,0.7272,0.7272,0.7495,0.7624,0.7597,0.7862,0.7984,0.7997,0.8147,0.8221,0.8228,0.8391,0.8525,0.8531,0.8628,0.873,0.8791,0.8791,1.0062,0.0,0.0,1.2908,1.4495,1.5149,1.4655,1.3803,1.5097,1.51,1.4452,1.4172,1.3705,1.3132,1.2648,1.2144,1.1833,1.2307,1.3162,1.4544,1.7023,1.7495,1.7588,1.8779,1.7387,1.5531,1.4557,1.4294,1.4455,1.4831,1.4903,1.4948,1.5365,1.4076,0.0,0.0,0.0,0.0,1.1118,1.192,1.2657,0.0,1.2846,0.0,1.2835,1.2772,1.2813,0.0,1.2214,1.2202,1.3469,1.2901,1.3231,1.4898,1.3974,1.3847,1.4672,1.4462,1.3452,1.1613,1.1396,1.1246,1.1158,1.0941,1.0799,1.0717,0.0,1.0717,1.0717,1.0717,1.0717,1.0717,1.0717,1.0717,1.0717,1.0717,1.0622,1.048,0.0,0.0,0.0,0.0,0.0,0.0,0.0,0.0,0.0,0.0,0.6844,0.6943,0.0,0.0,0.0,0.0,0.0,0.0,0.0,0.0,0.7098,0.7098,0.7272,0.7278,0.7098,0.7421,0.7495,0.7339,0.7495,0.7556,0.7543,0.7584,0.7597,0.7604,0.7767,0.7916,0.7988,0.7988,0.8849,1.0246,1.0952,1.231,1.3993,0.0,1.4615,1.4016,1.514,1.4854,1.3761,1.274,1.2287,1.2219,1.2316,1.1728,1.1077,1.1693,1.2695,1.4101,1.6696,1.7369,1.7447,1.7704,1.585,1.3604,1.2496,1.2981,1.3706,1.3863,1.4808,1.5484,1.4995,1.3209,1.1931,1.2281,0.0,0.9859,1.0881,1.2534,1.3275,1.2394,1.3865,1.4239,1.2575,1.3857,1.4997,1.5307,1.3574,1.3478,1.5501,1.4121,1.473,1.7936,1.6425,1.536,1.4787,1.5062,1.4227,1.2323,1.2091,1.1862,1.1565,1.1277,1.0937,1.0717,0.0,0.0,1.0717,1.0717,1.0717,1.0717,1.0717,1.0717,1.0717,1.0717,1.0636,1.0521,0.0,0.0,0.0,0.0,0.0,0.0,0.0,0.0,0.0,0.0,0.6869,0.6943,0.0,0.0,0.0,0.0,0.0,0.0,0.0,0.0,0.0,0.7098,0.7119,0.7125,0.7098,0.7319,0.7333,0.7139,0.7333,0.7346,0.7179,0.7482,0.7597,0.7611,0.7882,0.7968,0.7988,0.7988,0.879,1.0027,0.9904,1.1451,1.3897,1.3778,0.0,0.0,1.4172,1.4076,1.3748,1.2874,1.1891,1.0907,1.0341,1.0118,1.0147,1.0902,1.244,1.455,1.7579,1.6961,1.6017,1.7749,1.5802,1.3461,1.3523,1.3984,0.0,1.5019,1.4884,1.4643,1.4295,1.4322,1.3871,1.2447,1.2394,1.2628,1.284,1.3654,1.4666,0.0,1.7,1.7331,1.6549,0.0,0.0,0.0,0.0,1.6817,1.7434,1.7279,1.7295,1.7559,1.8738,1.8517,1.6766,1.8299,1.8159,1.6192,1.6084,1.5119,1.3541,1.3318,1.2355,1.0717,1.0717,0.0,1.0717,1.0717,1.0717,1.0717,1.0717,1.0717,1.0717,1.0717,1.0704,1.0663,0.0,0.0,0.0,0.0,0.0,0.0,0.0,0.6614,0.6817,0.7122,0.7231,0.7272,0.7258,0.7146,0.7098,0.0,0.0,0.0,0.0,0.0,0.0,0.0,0.7098,0.7098,0.7098,0.7292,0.7333,0.7258,0.0,0.7455,0.738,0.7529,0.7597,0.7604,0.7746,0.7848,0.7923,0.7923,0.8308,0.9015,0.9559,1.0979,1.2898,0.0,0.0,0.0,1.3102,1.2861,1.2802,1.2577,1.1695,1.062,1.0006,0.9992,1.029,1.0887,1.265,1.5062,1.7603,1.6908,1.5894,1.7656,1.4972,1.2169,1.3054,0.0,0.0,1.4488,1.4496,1.4255,1.4108,1.3909,0.0,1.2762,1.2553,1.2747,1.3621,1.5061,0.0,1.5615,1.7776,1.8508,0.0,0.0,0.0,0.0,0.0,2.0258,1.9679,2.0379,2.0267,1.902,2.0742,2.068,1.8729,1.9634,1.908,1.6996,1.6854,1.6225,1.5069,1.4002,1.3013,1.2025,1.1108,0.0,1.0717,1.0717,1.0717,1.0717,1.0717,1.0717,1.0717,1.0717,1.0717,1.0711,0.0,0.0,0.0,0.0,0.0,0.0,0.6654,0.6831,0.7048,0.7373,0.7522,0.7556,0.7434,0.7251,0.7098,0.0,0.0,0.0,0.0,0.0,0.0,0.0,0.0,0.0,0.0,0.0,0.0,0.0,0.757,0.0,0.0,0.0,0.0,0.0,0.7678,0.7753,0.7862,0.7862,0.788,0.0,0.0,1.0534,0.0,0.0,0.0,0.0,0.0,1.2086,1.2402,1.2709,1.2054,1.0994,1.0776,1.0537,1.0487,1.0934,1.2592,1.4775,1.7398,1.6617,1.5463,1.7352,1.4669,1.1678,1.2397,1.2462,0.0,1.3879,1.4082,1.4082,1.4082,1.3441,1.2916,0.0,1.2512,1.2667,1.4361,1.642,1.7116,0.0,1.8633,0.0,0.0,0.0,0.0,0.0,0.0,0.0,2.1692,2.264,2.251,2.0931,2.2207,2.216,2.0686,2.0686,1.9784,1.8003,1.7887,1.7459,1.6643,1.5213,1.4268,1.3774,1.2413,0.0,0.0,1.1439,1.124,1.124,1.085,1.0717,1.0717,1.0717,1.0717,1.0717,0.0,0.0,0.0,0.0,0.0,0.0,0.6634,0.6831,0.7088,0.7522,0.759,0.7597,0.7584,0.7274,0.7098,0.0,0.0,0.0,0.0,0.0,0.0,0.0,0.0,0.0,0.0,0.0,0.0,0.7577,0.0,0.0,0.0,0.0,0.0,0.0,0.0,0.0,0.7968,0.7968,0.0,0.0,0.0,0.0,0.0,0.0,0.0,0.0,0.0,1.2668,1.3761,1.4032,1.3284,1.2301,1.2671,1.1567,1.0118,1.0629,0.0,0.0,1.6996,1.5449,1.3409,1.6871,1.5889,1.375,1.2655,0.0,1.4845,1.4226,1.4082,1.4082,1.4082,1.4024,1.374,1.309,1.3197,1.3947,1.5656,1.7254,1.8331,1.8507,0.0,0.0,0.0,0.0,0.0,0.0,0.0,0.0,2.3113,2.3017,2.2831,2.2693,2.2804,2.2791,2.2654,2.2654,2.2358,2.1867,2.1841,2.0797,1.8757,1.8538,1.7413,1.5654,1.5459,0.0,0.0,1.3709,1.3062,1.2865,1.1306,1.0717,1.0717,1.0717,1.0717,1.0717,0.0,0.0,0.0,0.0,0.0,0.0,0.6647,0.6831,0.7088,0.7543,0.7672,0.7726,0.7726,0.7328,0.7098,0.7098,0.6964,0.0,0.0,0.0,0.0,0.0,0.0,0.0,0.0,0.0,0.7726,0.7726,0.7875,0.0,0.0,0.0,0.0,0.0,0.0,0.0,0.0,0.7988,0.0,0.0,0.0,0.0,0.0,0.0,0.0,0.0,0.0,0.0,1.27,1.2844,1.291,1.2786,1.1368,1.0923,1.096,1.1371,1.218,1.3604,1.6697,1.5812,1.4513,1.6816,1.5194,1.2881,1.2487,0.0,1.3955,1.4101,1.4082,1.4082,1.4082,1.4082,1.3976,1.3692,1.3742,0.0,1.5708,1.6759,1.7538,1.796,0.0,0.0,0.0,0.0,0.0,0.0,0.0,0.0,2.3046,2.2926,2.2928,2.2928,2.2928,2.2928,2.2928,2.2928,2.2712,2.2418,2.2245,2.1608,2.0553,1.9253,1.8272,1.7409,1.6366,0.0,0.0,1.5135,1.4232,1.3325,1.3709,1.2545,1.085,1.1894,1.1571,1.0717,0.0,0.0,0.0,0.0,0.0,0.6279,0.658,0.6803,0.7075,0.7482,0.7617,0.7699,0.7746,0.7305,0.7018,0.7197,0.6993,0.0,0.0,0.0,0.0,0.0,0.0,0.0,0.0,0.0,0.7834,0.7875,0.7934,0.7988,0.0,0.0,0.0,0.0,0.0,0.0,0.0,0.0,0.0,0.0,0.0,0.0,0.0,0.0,0.0,0.0,0.0,0.0,0.0,0.0,0.0,1.3113,1.168,1.1248,1.1404,1.1885,1.2583,1.3787,1.6563,1.5682,1.4558,1.7008,1.491,1.2445,0.0,0.0,1.3553,1.4018,1.4082,1.4082,1.4082,1.4082,1.4082,1.4082,1.4162,1.4589,1.5624,1.6406,1.7068,0.0,0.0,0.0,0.0,0.0,0.0,0.0,0.0,0.0,0.0,2.2928,2.2928,2.2928,2.2779,2.2779,2.2928,2.2779,2.2579,2.2285,2.2084,2.179,2.1416,1.9966,1.9291,1.9215,0.0,0.0,0.0,1.6883,1.5978,1.4884,1.5589,1.4428,1.2413,1.3643,1.3325,1.2215,0.0,0.0,0.0,0.0,0.0,0.5956,0.645,0.6736,0.7034,0.7378,0.7419,0.7434,0.7584,0.7068,0.6885,0.7378,0.6959,0.0,0.0,0.0,0.0,0.0,0.0,0.0,0.0,0.0,0.7882,0.7988,0.7988,0.7988,0.7988,0.7988,0.7988,0.7988,0.0,0.0,0.0,0.0,0.0,0.0,0.0,0.0,1.0141,0.0,0.0,0.0,0.0,0.0,0.0,0.0,0.0,0.0,0.0,1.3247,1.099,1.1943,1.1913,1.25,1.6508,1.4493,1.2384,1.7282,1.5771,1.3367,0.0,1.4518,1.4399,1.4148,1.4082,1.4082,1.4082,1.4082,1.4082,1.4082,1.4322,0.0,1.5664,1.6593,0.0,0.0,0.0,0.0,0.0,0.0,0.0,0.0,0.0,0.0,0.0,2.2928,2.2928,2.2928,2.2579,2.2565,2.2928,2.2565,2.2271,2.1991,2.1991,2.1683,2.1109,2.1109,2.1046,0.0,0.0,0.0,0.0,1.9164,1.8448,1.8244,1.656,1.5848,1.5848,1.5848,1.5848,1.5848,0.0,0.0,0.0,0.0,0.0,0.0,0.6146,0.6424,0.6688,0.6885,0.7007,0.7122,0.7227,0.6932,0.6837,0.7183,0.6898,0.0,0.0,0.0,0.0,0.0,0.0,0.0,0.0,0.774,0.7889,0.7988,0.7988,0.7988,0.7988,0.7988,0.7988,0.7988,0.7988,0.0,0.0,0.0,0.0,0.0,0.0,1.1658,1.1365,0.0,0.0,0.0,0.0,0.0,0.0,0.0,0.0,0.0,0.0,0.0,0.0,1.3622,1.3761,1.4169,1.584,1.5435,1.4923,1.636,1.5311,1.3869,1.3713,1.4078,1.4442,1.4148,1.4082,1.4082,1.4082,1.4082,1.4148,1.4349,1.4456,0.0,0.0,0.0,0.0,0.0,0.0,0.0,0.0,0.0,0.0,0.0,0.0,0.0,0.0,2.2672,2.2645,2.2928,2.2766,2.2672,2.2565,2.2472,2.2271,2.1977,2.1777,2.1655,2.1403,2.1203,0.0,0.0,0.0,0.0,0.0,2.0526,1.9546,1.8576,1.9215,1.7988,1.6043,1.7216,1.6947,1.5893,0.0,0.0,0.0,0.0,0.0,0.0,0.5905,0.6247,0.6545,0.66,0.6695,0.6831,0.6997,0.6749,0.6675,0.6984,0.6837,0.0,0.0,0.0,0.0,0.0,0.0,0.0,0.7597,0.774,0.7889,0.7988,0.7988,0.7988,0.7988,0.7988,0.7988,0.7988,0.7988,0.7988,0.0,0.0,0.0,0.0,1.0877,1.117,1.1219,0.0,0.0,0.0,0.0,0.0,0.0,0.0,0.0,0.0,0.0,0.0,0.0,0.0,1.445,1.4726,1.5649,1.5275,1.49,1.6084,1.5124,1.3897,1.4016,1.4198,1.4309,1.4122,1.4082,1.4082,1.4082,1.4082,1.4148,1.4322,1.4362,0.0,0.0,0.0,0.0,0.0,0.0,0.0,0.0,0.0,0.0,0.0,0.0,0.0,0.0,2.2579,2.2498,2.2686,2.2552,2.2338,2.2258,2.2151,2.2004,2.1817,2.1708,2.1561,2.1376,2.1189,0.0,0.0,0.0,0.0,0.0,2.1109,2.0462,1.961,2.0652,1.9675,1.7851,1.8942,1.8554,1.749,0.0,0.0,0.0,0.0,0.0,0.0,0.0,0.6173,0.6497,0.6497,0.6497,0.6566,0.6851,0.6512,0.6477,0.6829,0.6783,0.0,0.0,0.0,0.0,0.0,0.0,0.0,0.7584,0.7726,0.7868,0.7975,0.7982,0.7988,0.7988,0.7988,0.7988,0.7988,0.7988,0.7988,0.7988,0.8088,0.8874,1.0002,1.0092,1.01,0.0,0.0,0.0,0.0,0.0,0.0,0.0,0.0,0.0,0.0,0.0,0.0,0.0,0.0,0.0,0.0,0.0,1.4294,1.3112,1.6228,1.5134,1.3636,1.4995,1.4669,0.0,1.4082,1.4082,1.4095,1.4108,1.4095,1.4095,1.4148,0.0,0.0,0.0,0.0,0.0,0.0,0.0,0.0,0.0,0.0,0.0,0.0,0.0,0.0,0.0,2.2565,2.2392,2.2392,2.1817,2.1722,2.1951,2.1748,2.1601,2.1588,2.1588,2.1376,2.1109,2.1109,0.0,0.0,0.0,0.0,0.0,2.1109,2.1109,2.1109,2.1109,2.0935,2.0681,2.0695,2.0521,2.0267,0.0,0.0,0.0,0.0,0.0,0.0,0.0,0.0,0.0,0.0,0.6347,0.6375,0.645,0.6361,0.6436,0.0,0.0,0.0,0.0,0.0,0.0,0.0,0.0,0.0,0.7421,0.757,0.7719,0.7868,0.7934,0.7988,0.7988,0.7988,0.7988,0.7988,0.7988,0.7988,0.8088,0.9122,0.9706,1.01,1.1072,1.0877,0.0,0.0,0.0,0.0,1.2993,1.4118,0.0,0.0,0.0,0.0,0.0,0.0,0.0,0.0,1.4082,1.4162,1.4509,0.0,1.4155,1.4955,1.4662,1.4249,0.0,1.4242,1.4082,1.4082,1.4082,1.4162,1.4376,1.4242,1.4229,1.4727,0.0,0.0,0.0,0.0,0.0,0.0,0.0,0.0,0.0,0.0,0.0,0.0,0.0,0.0,0.0,2.2365,2.2084,2.2084,2.1523,2.1349,2.1722,2.1655,2.1443,2.1216,2.1216,2.1176,2.1109,2.1109,0.0,0.0,0.0,0.0,2.1109,2.1109,2.1109,2.1109,2.1109,2.0935,2.0695,2.0922,2.0828,2.0575,0.0,0.0,0.0,0.0,0.0,0.0,0.0,0.0,0.0,0.0,0.63,0.63,0.63,0.63,0.6388,0.0,0.0,0.0,0.0,0.0,0.0,0.0,0.0,0.72,0.7468,0.7556,0.7706,0.7916,0.7948,0.7988,0.7988,0.7988,0.7988,0.7988,0.7988,0.7988,0.8038,0.8775,0.946,1.0002,1.0092,0.0,0.0,0.0,0.0,0.0,1.3498,1.4289,0.0,1.4646,1.4456,1.4322,0.0,0.0,0.0,0.0,1.4082,1.4082,1.4082,1.4202,1.4322,1.4322,1.4322,1.4282,1.4122,1.4082,1.4082,1.4082,1.4082,1.4135,1.4295,1.4309,1.4389,0.0,1.4914,0.0,0.0,0.0,0.0,0.0,0.0,0.0,0.0,0.0,0.0,0.0,0.0,0.0,0.0,2.2151,2.1924,2.179,2.1349,2.1189,2.1349,2.1349,2.1269,2.1109,2.1109,2.1109,2.1109,2.1109,2.1109,0.0,0.0,0.0,2.1109,2.1109,2.1109,2.1109,2.1109,2.0935,2.0695,2.0855,2.0722,2.0468,0.0,0.0,0.0,0.0,0.0,0.0,0.0,0.0,0.0,0.0,0.0,0.0,0.0,0.0,0.0,0.0,0.0,0.0,0.0,0.0,0.0,0.0,0.7098,0.7227,0.7556,0.759,0.7733,0.7955,0.7975,0.7988,0.7988,0.7988,0.7988,0.7988,0.7988,0.7988,0.7988,0.8237,0.8825,0.9608,0.8844,0.0,0.0,0.0,0.0,0.0,0.0,0.0,0.0,1.4175,1.4082,1.4082,1.4082,0.0,0.0,0.0,0.0,0.0,1.4082,1.4122,1.4135,1.4095,1.4082,1.4082,1.4082,1.4082,1.4082,1.4082,1.4082,1.4095,1.4148,1.4349,0.0,0.0,0.0,0.0,0.0,0.0,0.0,0.0,0.0,0.0,0.0,0.0,0.0,0.0,0.0,0.0,0.0,2.1937,2.1804,2.1628,2.1269,2.1109,2.1109,2.1109,2.1109,2.1109,2.1109,2.1109,2.1109,2.1109,2.1109,0.0,0.0,0.0,2.1109,2.1109,2.1109,2.1109,2.1109,2.0935,2.0681,2.0722,2.0548,2.0294,0.0,0.0,0.0,0.0,0.0,0.0,0.0,0.0,0.0,0.0,0.0,0.0,0.0,0.0,0.0,0.0,0.0,0.0,0.0,0.0,0.0,0.7098,0.7098,0.7224,0.7446,0.7536,0.7678,0.7848,0.7928,0.7988,0.7988,0.7988,0.7988,0.7988,0.7988,0.7988,0.8088,0.9213,0.9164,0.8471,1.025,0.0,0.0,0.0,0.0,0.0,0.0,0.0,0.0,1.4095,1.4082,1.4082,1.4082,0.0,0.0,0.0,0.0,0.0,1.4082,1.4269,1.4389,1.4148,1.4082,1.4082,1.4082,1.4082,1.4082,1.4082,1.4082,1.4162,1.4402,1.4496,1.4683,0.0,0.0,0.0,0.0,0.0,0.0,0.0,0.0,0.0,0.0,0.0,0.0,0.0,0.0,0.0,0.0,0.0,2.1668,2.1614,2.1269,2.1109,2.1109,2.1109,2.1109,2.1109,2.1109,2.1109,2.1109,2.1109,2.1109,0.0,0.0,2.1109,2.1109,2.1109,2.1109,2.1109,2.1109,2.0935,2.0708,2.0949,2.0855,2.0575,0.0,0.0,0.0,0.0,0.0,0.0,0.0,0.0,0.0,0.0,0.0,0.0,0.0,0.0,0.0,0.0,0.0,0.0,0.0,0.0,0.7132,0.7258,0.7265,0.7339,0.7489,0.7638,0.7787,0.7887,0.7955,0.7988,0.7988,0.7988,0.7988,0.7988,0.7988,0.7988,0.8038,0.8676,0.8871,0.8927,0.0,0.0,0.0,0.0,0.0,0.0,0.0,0.0,0.0,0.0,1.4082,1.4082,1.4082,0.0,0.0,0.0,0.0,0.0,1.4082,1.4188,1.4295,1.4309,1.4442,1.4566,1.4362,1.4442,1.4606,1.4606,1.4606,1.4603,0.0,0.0,1.5765,1.6687,0.0,0.0,0.0,0.0,0.0,0.0,0.0,0.0,0.0,0.0,0.0,0.0,0.0,0.0,0.0,0.0,2.1547,2.1323,2.1176,2.1109,2.1109,2.1109,2.1109,2.1109,2.0949,2.0869,2.0869,2.0869,2.0869,2.0882,0.0,2.1015,2.0869,2.0869,2.0869,2.0855,2.0695,2.0748,2.0922,2.1056,2.0922,2.0628,0.0,0.0,0.0,0.0,0.0,0.0,0.0,0.0,0.0,0.0,0.0,0.0,0.0,0.0,0.0,0.0,0.0,0.0,0.0,0.7098,0.721,0.7412,0.7453,0.7495,0.7645,0.7753,0.7889,0.7988,0.7988,0.7988,0.7988,0.7988,0.7988,0.7988,0.7988,0.7988,0.7988,0.7948,0.8552,0.9523,0.0,0.0,0.0,0.0,0.0,0.0,0.0,0.0,0.0,0.0,0.0,0.0,0.0,0.0,0.0,1.4082,1.4082,1.4082,1.4082,1.4135,1.4229,1.4376,1.4589,1.4763,1.4816,1.495,1.5169,1.537,1.5357,1.529,0.0,1.5933,0.0,0.0,0.0,0.0,0.0,0.0,0.0,0.0,0.0,0.0,0.0,0.0,0.0,0.0,0.0,0.0,0.0,0.0,2.1349,2.1122,2.1109,2.1109,2.1109,2.1109,2.1109,2.1109,2.0815,2.0708,2.0775,2.0708,2.0681,2.0681,2.0909,2.0842,2.0575,2.0575,2.0575,2.0548,2.0321,2.0548,2.1002,2.1002,2.0869,2.0628,0.0,0.0,0.0,0.0,0.0,0.0,0.0,0.0,0.0,0.0,0.0,0.0,0.0,0.0,0.0,0.0,0.0,0.0,0.0,0.7098,0.721,0.7412,0.7509,0.7651,0.7794,0.7807,0.7889,0.7988,0.7988,0.7988,0.7988,0.7988,0.7988,0.7988,0.7988,0.7988,0.7982,0.7889,0.849,0.9546,1.0387,0.0,0.0,0.0,0.0,0.0,0.0,0.0,0.0,0.0,0.0,0.0,0.0,0.0,1.4082,1.4082,1.4082,1.4082,1.4082,1.4282,1.4429,1.4175,1.4135,1.4429,1.5498,1.5538,1.5591,1.6406,1.6366,1.6099,0.0,1.6486,0.0,0.0,0.0,0.0,0.0,0.0,0.0,0.0,0.0,0.0,0.0,0.0,0.0,0.0,0.0,0.0,0.0,0.0,0.0,2.1109,2.1109,2.1109,2.1109,2.1109,2.1109,2.1109,2.0815,2.0815,2.1069,2.0802,2.0681,2.0681,2.0695,2.0535,2.0267,2.0267,2.0267,2.0207,2.0241,2.0428,2.0708,2.0708,2.0695,2.0628,0.0,0.0,0.0,0.0,0.0,0.0,0.0,0.0,0.0,0.0,0.0,0.0,0.0,0.0,0.0,0.0,0.0,0.0,0.0,0.7146,0.7247,0.7631,0.7617,0.7712,0.7901,0.7901,0.7934,0.7988,0.7988,0.7988,0.7988,0.7988,0.7988,0.7988,0.7988,0.7988,0.8031,0.8597,0.9504,1.0585,1.1521,1.2595,0.0,0.0,0.0,0.0,0.0,0.0,0.0,0.0,1.3694,1.3574,1.3761,1.3814,1.3841,1.4028,1.4082,1.4082,1.4082,1.4295,1.4496,1.4389,1.4496,1.4883,1.5885,1.6166,1.6406,1.7101,1.7315,1.7288,1.6981,0.0,0.0,0.0,0.0,0.0,0.0,0.0,0.0,0.0,0.0,0.0,0.0,0.0,0.0,0.0,0.0,0.0,0.0,0.0,0.0,2.0828,2.0842,2.0842,2.0842,2.0842,2.0748,2.0561,2.0454,2.0361,2.0294,2.0187,2.0134,2.0147,2.0321,2.0241,1.996,1.996,1.996,1.9987,2.016,2.0307,2.0414,2.0615,2.0681,2.0628,0.0,0.0,0.0,0.0,0.0,0.0,0.0,0.0,0.0,0.0,0.0,0.0,0.0,0.0,0.0,0.0,0.0,0.0,0.7434,0.7299,0.7373,0.7726,0.7604,0.7665,0.7914,0.7921,0.7941,0.7988,0.7988,0.7988,0.7988,0.7988,0.7988,0.7988,0.7988,0.8237,0.8662,0.9212,1.0295,1.1745,1.2292,1.3157,0.0,0.0,0.0,0.0,0.0,0.0,0.0,0.0,1.3333,1.3267,1.3507,1.36,1.3666,1.4001,1.4082,1.4082,1.4082,1.4229,1.4402,1.4496,1.4736,1.533,1.654,1.6901,1.7235,1.8103,1.8156,1.7996,1.7889,0.0,0.0,0.0,0.0,0.0,0.0,0.0,0.0,0.0,0.0,0.0,0.0,0.0,0.0,0.0,0.0,0.0,0.0,0.0,0.0,0.0,2.0535,2.0535,2.0535,2.0535,2.0388,2.0094,2.0094,2.004,1.9933,1.984,1.98,1.9813,2.0013,1.9933,1.9666,1.9666,1.972,1.9813,2.0013,2.0147,2.0267,2.0561,2.0615,2.0508,0.0,0.0,0.0,0.0,0.0,0.0,0.0,0.0,0.7092,0.7098,0.7098,0.0,0.0,0.0,0.0,0.0,0.0,0.0,0.759,0.7461,0.7441,0.7597,0.7455,0.7509,0.7801,0.7814,0.7889,0.7988,0.7988,0.7988,0.7988,0.7988,0.7988,0.7988,0.7988,0.8775,0.9968,0.9502,1.0721,1.2971,1.249,1.3027,1.4082,0.0,0.0,0.0,0.0,0.0,0.0,0.0,1.3213,1.3253,1.3507,1.36,1.3653,1.4001,1.4082,1.4082,1.4082,1.4095,1.4162,1.4456,1.475,1.5558,1.7555,1.7796,1.8009,1.9492,1.8851,1.813,1.8437,1.8504,0.0,0.0,0.0,0.0,0.0,0.0,0.0,0.0,0.0,0.0,0.0,0.0,0.0,0.0,0.0,0.0,0.0,0.0,0.0,0.0,2.0227,2.0227,2.0227,2.0227,2.008,1.98,1.98,1.9947,2.0153,1.992,1.98,1.98,1.98,1.9639,1.943,1.943,1.9533,1.98,1.98,1.9973,2.0267,2.0561,2.0481,2.0167,0.0,0.0,0.0,0.0,0.0,0.0,0.0,0.0,0.6984,0.7085,0.7098,0.0,0.0,0.0,0.0,0.0,0.0,0.0,0.774,0.7611,0.7597,0.774,0.7611,0.7577,0.7658,0.776,0.7889,0.7988,0.7988,0.7988,0.7988,0.7988,0.7988,0.8038,0.8973,0.9486,0.9694,1.0426,1.151,1.2671,1.242,1.3027,1.4082,0.0,0.0,0.0,0.0,0.0,0.0,0.0,0.0,0.0,1.3173,1.3307,1.344,1.3935,1.4082,1.4082,1.4082,1.4242,1.4469,1.4763,1.541,1.6259,1.7689,1.7796,1.8009,1.9492,1.9359,1.8998,1.9092,0.0,0.0,0.0,0.0,0.0,0.0,0.0,0.0,0.0,0.0,0.0,0.0,0.0,0.0,0.0,0.0,0.0,0.0,0.0,0.0,0.0,1.9933,1.9933,1.9933,1.9933,1.9786,1.9492,1.9492,1.9546,1.9626,1.9533,1.9492,1.9492,1.9492,1.9452,1.943,1.943,1.9533,1.9773,1.9573,1.98,2.0214,2.0107,2.0134,2.014,0.0,0.0,0.0,0.0,0.0,0.0,0.0,0.0,0.6997,0.7085,0.7098,0.7098,0.0,0.0,0.0,0.0,0.0,0.0,0.7889,0.7767,0.7719,0.7807,0.7617,0.7509,0.7509,0.7651,0.7773,0.7868,0.7934,0.7988,0.7988,0.7988,0.7988,0.8038,0.941,0.9843,0.9706,1.0817,1.1831,1.2654,1.2385,1.3027,1.4082,0.0,0.0,0.0,0.0,0.0,0.0,0.0,0.0,0.0,1.316,1.3307,1.3333,1.3921,1.4082,1.4082,1.4082,1.4295,1.4643,1.5177,1.5965,1.7018,1.8263,1.8691,1.9105,0.0,1.9907,1.9613,1.984,0.0,0.0,0.0,0.0,0.0,0.0,0.0,0.0,0.0,0.0,0.0,0.0,0.0,0.0,0.0,0.0,0.0,0.0,0.0,0.0,0.0,1.9626,1.9626,1.9626,1.9626,1.9546,1.943,1.943,1.943,1.943,1.943,1.943,1.943,1.943,1.943,1.943,1.943,1.9533,1.9786,1.9613,1.976,2.0054,2.0,2.0013,2.004,0.0,0.0,0.632,0.632,0.0,0.0,0.0,0.0,0.7098,0.7098,0.7098,0.7098,0.0,0.0,0.0,0.0,0.0,0.0,0.0,0.7909,0.7821,0.7794,0.7509,0.7398,0.7398,0.7502,0.7577,0.7577,0.7875,0.7968,0.7968,0.7982,0.8088,0.8237,0.946,0.9981,1.0014,1.09,1.1855,1.275,1.2416,1.3027,1.4082,1.4082,0.0,0.0,0.0,0.0,0.0,0.0,0.0,0.0,1.3293,1.3387,1.3333,1.3921,1.4082,1.4095,1.4122,1.4335,1.4776,1.5638,1.6633,1.7769,1.9149,2.004,2.0708,2.0975,0.0,2.008,2.0615,0.0,0.0,0.0,0.0,0.0,0.0,0.0,0.0,0.0,0.0,0.0,0.0,0.0,0.0,0.0,0.0,0.0,0.0,0.0,0.0,0.0,1.9332,1.9345,1.943,1.943,1.943,0.0,1.943,1.943,1.943,1.943,1.943,1.943,1.943,1.943,1.943,1.943,1.9533,1.98,1.9773,1.9773,1.9826,2.0067,1.9987,1.976,0.0,0.0,0.6463,0.6463,0.0,0.0,0.0,0.0,0.0,0.7098,0.7098,0.0,0.0,0.0,0.0,0.0,0.0,0.0,0.0,0.7961,0.7889,0.7658,0.7353,0.7146,0.7146,0.7339,0.7421,0.7421,0.7719,0.7862,0.7862,0.7934,0.8577,0.9608,0.9854,1.0337,1.0983,1.1211,1.1724,1.2404,1.2345,1.3027,1.4082,1.4082,1.4041,0.0,0.0,0.0,0.0,0.0,0.0,0.0,1.316,1.3267,1.3333,1.3921,1.4082,1.4135,1.4362,1.4643,1.5137,1.6246,1.7716,1.9095,1.9586,2.0027,2.0347,2.0414,2.0641,2.0869,0.0,0.0,0.0,0.0,0.0,0.0,0.0,0.0,0.0,0.0,0.0,0.0,0.0,0.0,0.0,0.0,0.0,0.0,0.0,0.0,0.0,1.9011,1.9025,1.9132,1.9417,1.943,1.943,0.0,1.943,1.943,1.943,1.943,1.943,1.943,1.943,1.943,1.943,1.943,1.9533,1.9773,1.9546,1.9599,1.9773,1.9613,1.9519,1.9466,0.0,0.0,0.0,0.0,0.0,0.0,0.0,0.0,0.0,0.0,0.0,0.0,0.0,0.0,0.0,0.0,0.7801,0.0,0.0,0.7988,0.786,0.7611,0.7373,0.7217,0.7098,0.7217,0.7258,0.7258,0.7563,0.7746,0.7814,0.8603,0.8973,0.9122,1.0337,1.0416,0.963,1.0777,1.1378,1.1509,1.2066,1.3027,1.4082,1.4082,1.4001,1.3881,1.3881,0.0,0.0,0.0,0.0,0.0,0.0,0.0,1.3467,1.3961,1.4082,1.4122,1.4269,1.4629,1.5357,1.6767,0.0,1.9439,1.9733,2.0027,2.0167,2.0167,2.0481,0.0,0.0,0.0,0.0,0.0,0.0,0.0,0.0,0.0,0.0,0.0,0.0,0.0,0.0,0.0,0.0,0.0,0.0,0.0,0.0,1.8357,1.841,1.8704,1.8718,1.8851,1.9158,1.9011,1.9011,1.9158,1.9011,1.8945,1.8958,1.9296,1.9292,1.9158,1.9305,1.9292,1.9172,1.9305,1.9452,1.9573,1.9426,1.9466,1.9573,1.9426,1.943,1.943,0.0,0.0,0.0,0.0,0.0,0.0,0.0,0.0,0.0,0.0,0.0,0.0,0.0,0.0,0.7461,0.0,0.0,0.0,0.0,0.0,0.0,0.7611,0.7428,0.7272,0.7098,0.7098,0.7098,0.7098,0.7448,0.7658,0.778,0.9071,0.9312,0.8775,1.0681,1.0337,0.8425,1.0473,1.104,1.0796,1.1875,1.2899,1.3815,1.3997,1.3935,1.368,1.368,1.352,1.3387,1.3533,0.0,0.0,0.0,0.0,1.3666,1.4001,1.4082,1.4095,1.4148,1.4713,1.5611,1.7114,1.833,0.0,1.9573,1.984,1.9967,2.0067,0.0,0.0,0.0,0.0,0.0,0.0,0.0,0.0,0.0,0.0,0.0,0.0,0.0,0.0,0.0,0.0,0.0,0.0,0.0,0.0,1.8317,1.8103,1.8103,1.841,1.841,1.8557,1.8851,1.8611,1.8611,1.8838,1.8611,1.849,1.8504,1.8998,1.9078,1.8865,1.9105,1.9105,1.8945,1.9185,1.9377,1.943,1.943,1.943,1.943,1.943,1.943,1.943,0.0,0.0,0.0,0.0,0.0,0.0,0.0,0.0,0.0,0.0,0.7098,0.7098,0.0,0.0,0.0,0.7597,0.7848,0.7968,0.7988,0.0,0.0,0.7604,0.7326,0.7119,0.7098,0.7098,0.7098,0.7098,0.7448,0.7611,0.7631,0.8056,0.9361,1.1365,1.0583,1.0603,1.1179,1.1271,1.1177,1.11,1.1942,1.2419,1.2632,1.3688,1.4055,1.4028,1.4028,1.4001,1.3935,1.368,1.3573,0.0,0.0,0.0,1.3666,1.4001,1.4082,1.4135,1.4389,1.5257,1.6321,0.0,1.7716,1.8315,0.0,0.0,1.9172,0.0,0.0,0.0,0.0,0.0,0.0,0.0,0.0,0.0,0.0,0.0,0.0,0.0,0.0,0.0,0.0,0.0,0.0,0.0,0.0,0.0,1.7716,1.7662,1.7782,1.8035,1.8049,1.8195,1.8544,1.8504,1.8504,1.8544,1.8504,1.849,1.849,1.8571,1.8584,1.8557,1.8584,1.8731,1.8931,1.8971,1.9132,1.943,1.943,1.943,1.943,1.943,1.943,1.943,0.0,0.0,0.0,0.0,0.0,0.0,0.0,0.0,0.0,0.0,0.0,0.7098,0.0,0.0,0.0,0.7584,0.7719,0.7862,0.7982,0.776,0.7597,0.7597,0.726,0.7098,0.7098,0.7098,0.7098,0.7098,0.7448,0.7966,0.866,0.8188,0.8627,0.9756,1.0681,1.0466,0.9602,1.0771,1.0788,1.0117,1.1695,1.2279,1.2419,1.3646,1.4082,1.4082,1.4082,1.4082,1.4068,1.3935,1.3895,1.3895,1.3895,0.0,0.0,0.0,1.4082,1.4148,1.4442,1.5017,1.5732,0.0,1.686,1.7448,1.8036,0.0,0.0,0.0,0.0,0.0,0.0,0.0,0.0,0.0,0.0,0.0,0.0,0.0,0.0,0.0,0.0,0.0,0.0,0.0,0.0,0.0,0.0,1.7662,1.7407,1.7393,1.7447,1.7542,1.7542,1.7769,1.8237,1.8063,1.7983,1.7983,1.7983,1.7983,1.7983,1.7983,1.8076,1.825,1.8424,1.8557,1.8691,1.8851,1.9092,1.943,1.943,1.943,1.943,1.943,1.943,1.943,0.0,0.0,0.0,0.0,0.0,0.0,0.0,0.0,0.0,0.0,0.0,0.0,0.0,0.0,0.0,0.0,0.7577,0.7692,0.7867,0.7719,0.7584,0.7543,0.7285,0.7098,0.7098,0.7098,0.7098,0.7098,0.7407,0.8063,0.8979,0.8292,0.7955,0.8088,1.0386,1.0259,0.8478,1.0146,1.036,0.9741,1.0978,1.1595,1.1949,1.29,1.345,1.3762,1.3797,1.4038,1.4295,1.4215,1.4202,1.4188,1.4108,1.4082,0.0,0.0,0.0,1.4135,1.4349,0.0,1.4977,1.5484,1.5992,1.654,0.0,0.0,0.0,0.0,0.0,0.0,0.0,0.0,0.0,0.0,0.0,0.0,0.0,0.0,0.0,0.0,0.0,0.0,0.0,0.0,0.0,0.0,0.0,1.7434,1.7206,1.7125,1.7085,1.7085,1.7166,1.7368,1.7809,1.7662,1.7582,1.7582,1.7582,1.7582,1.7582,1.7582,1.7702,1.7889,1.8156,1.8303,1.8397,1.8691,1.8985,1.9265,1.939,1.943,1.943,1.943,1.943,1.943,0.0,0.0,0.0,0.0,0.0,0.0,0.0,0.0,0.0,0.0,0.0,0.7098,0.7098,0.7272,0.7412,0.7426,0.7516,0.7604,0.7617,0.7611,0.7536,0.7433,0.7224,0.0,0.7098,0.7098,0.7098,0.7098,0.7305,0.7501,0.7698,0.7753,0.7902,0.8038,0.946,1.0043,0.9862,0.9682,1.0205,1.1039,0.9651,0.9705,1.0722,1.0892,1.1772,1.2865,1.3025,1.3853,1.4914,1.4589,1.4496,1.4442,1.4175,1.4082,1.4082,0.0,0.0,0.0,1.4108,1.4322,0.0,1.4981,1.5244,1.5685,0.0,0.0,0.0,0.0,0.0,0.0,0.0,0.0,0.0,0.0,0.0,0.0,0.0,0.0,0.0,0.0,0.0,0.0,0.0,0.0,0.0,0.0,0.0,1.7219,1.7206,1.6887,1.6727,1.6727,1.7058,1.7219,1.7246,1.7501,1.7582,1.7582,1.7582,1.7582,1.7582,1.7582,1.7595,1.7609,1.7622,1.7796,1.8035,1.8384,1.8691,1.8971,1.9252,1.943,1.943,1.943,1.943,1.943,0.0,0.0,0.0,0.0,0.0,0.0,0.0,0.0,0.0,0.0,0.0,0.0,0.0,0.7278,0.746,0.7509,0.774,0.7841,0.774,0.7651,0.7529,0.7426,0.7224,0.7098,0.7098,0.7098,0.7098,0.7098,0.7292,0.7448,0.7604,0.7746,0.7896,0.8038,0.941,0.9509,0.881,1.0287,1.0688,1.0341,1.0397,1.068,1.114,1.1945,1.2518,1.3069,1.3955,1.4591,1.4995,1.4843,0.0,0.0,0.0,1.4362,1.4322,1.4135,1.4082,1.4082,0.0,0.0,0.0,1.4603,1.4763,1.5017,0.0,0.0,0.0,0.0,0.0,0.0,0.0,0.0,0.0,0.0,0.0,0.0,0.0,0.0,0.0,0.0,0.0,0.0,0.0,0.0,0.0,0.0,0.0,0.0,1.6656,1.6486,1.6433,1.6433,1.6576,1.6723,1.686,1.6967,1.7021,1.7021,1.7259,1.7353,1.7367,1.7502,1.7582,1.7582,1.7582,1.7756,1.8009,1.837,1.8664,1.8958,1.9252,1.943,1.943,1.943,1.943,1.943,0.0,0.0,0.0,0.0,0.0,0.7098,0.7098,0.7098,0.7098,0.7098,0.0,0.0,0.0,0.0,0.7489,0.759,0.7821,0.7896,0.7746,0.7699,0.7584,0.7426,0.7272,0.7146,0.7098,0.7146,0.7146,0.7098,0.7292,0.7448,0.7604,0.7699,0.7848,0.8038,0.8864,0.9068,0.8761,1.0368,1.0801,1.0403,1.0622,1.0685,1.0731,1.1585,1.217,1.2745,1.4139,1.4924,0.0,0.0,0.0,0.0,0.0,1.4456,1.4335,1.4148,1.4082,1.4082,1.4082,1.4082,0.0,0.0,1.4376,1.4509,1.499,0.0,0.0,0.0,0.0,0.0,0.0,0.0,0.0,0.0,0.0,0.0,0.0,0.0,0.0,0.0,0.0,0.0,0.0,0.0,0.0,0.0,0.0,0.0,1.6348,1.6179,1.6166,1.6321,1.6321,1.642,1.67,1.67,1.67,1.6714,1.6901,1.7099,1.7206,1.7393,1.7488,1.7582,1.7582,1.7702,1.7916,1.833,1.8597,1.8811,1.9212,1.943,1.943,1.943,1.943,1.943,0.0,0.0,0.7098,0.7098,0.7098,0.7105,0.7105,0.7105,0.7112,0.7112,0.0,0.0,0.0,0.0,0.0,0.7611,0.774,0.776,0.7617,0.7733,0.7678,0.7439,0.7426,0.7305,0.7105,0.7292,0.7292,0.7098,0.7292,0.7448,0.7597,0.7597,0.7753,0.7975,0.7875,0.8668,0.9976,0.9839,1.0469,1.1397,1.0072,0.9444,0.9338,0.9703,1.0573,1.1884,1.336,1.4711,0.0,1.5511,0.0,0.0,0.0,1.4335,1.4095,1.4095,1.4095,1.4082,0.0,0.0,0.0,0.0,0.0,0.0,1.4442,0.0,0.0,0.0,0.0,0.0,0.0,0.0,0.0,0.0,0.0,0.0,0.0,0.0,0.0,0.0,0.0,0.0,0.0,0.0,0.0,0.0,0.0,1.6321,1.6308,1.5979,1.5965,1.6246,1.6308,1.6393,1.6673,1.6673,1.6673,1.6673,1.6687,1.6847,1.7192,1.7192,1.7367,1.7582,1.7582,1.7582,1.7635,1.8223,1.8477,1.8544,1.9132,1.9417,1.943,1.943,1.943,1.943,0.0,0.6997,0.7098,0.7098,0.7231,0.7305,0.7305,0.74,0.7475,0.0,0.0,0.0,0.7536,0.7665,0.7794,0.786,0.7901,0.7867,0.776,0.7787,0.7726,0.7543,0.7536,0.7461,0.7312,0.7353,0.7292,0.7098,0.7139,0.7339,0.7597,0.7597,0.7699,0.7868,0.869,0.9316,0.9839,0.9836,1.056,1.1704,1.0391,0.9841,0.9801,0.99,1.0745,0.0,0.0,1.5045,1.6139,0.0,1.6032,1.5925,0.0,1.4803,1.4402,1.4402,1.4255,1.4082,1.4082,0.0,0.0,0.0,0.0,0.0,1.4188,1.4429,0.0,0.0,0.0,0.0,0.0,0.0,0.0,0.0,0.0,0.0,0.0,0.0,0.0,0.0,0.0,0.0,0.0,0.0,0.0,0.0,1.6326,1.6179,1.5965,1.5872,1.5824,1.5952,1.5952,1.5992,1.6072,1.6072,1.6072,1.6072,1.6286,1.654,1.6834,1.7099,1.7367,1.7582,1.7582,1.7582,1.7609,1.8009,1.829,1.8531,1.8905,1.9185,1.943,1.943,1.943,1.943,0.697,0.7038,0.7119,0.7224,0.7312,0.7439,0.7455,0.7543,0.7597,0.0,0.0,0.0,0.7773,0.7855,0.7894,0.7982,0.7988,0.7948,0.7916,0.7909,0.7841,0.7692,0.7685,0.7617,0.7468,0.7522,0.7482,0.7333,0.7348,0.7516,0.7685,0.7631,0.7909,0.8523,0.8579,0.9575,1.1091,1.0106,1.0562,1.1853,1.1072,1.0529,1.0162,1.0758,1.1498,0.0,0.0,0.0,1.6433,1.6362,1.6112,0.0,0.0,0.0,1.4683,0.0,1.4402,1.4242,1.4122,1.4082,1.4082,1.4082,0.0,0.0,1.4082,1.4215,1.4376,0.0,0.0,0.0,0.0,0.0,0.0,0.0,0.0,0.0,0.0,0.0,0.0,0.0,0.0,0.0,0.0,0.0,0.0,1.6099,1.6086,1.6005,1.5798,1.5784,1.5784,1.5784,1.5784,1.5784,1.5784,1.5784,1.5784,1.5784,1.6005,1.6313,1.6714,1.6887,1.7194,1.7582,1.7582,1.7582,1.7609,1.7862,1.8223,1.8531,1.8945,1.9212,1.943,1.943,1.943,1.943,0.0,0.7098,0.7146,0.7346,0.7433,0.7448,0.7597,0.7638,0.7651,0.0,0.776,0.7889,0.7975,0.7988,0.7988,0.7988,0.7988,0.7988,0.7988,0.7988,0.7928,0.7841,0.7834,0.7767,0.7624,0.7733,0.7726,0.7597,0.7692,0.776,0.7807,0.7651,0.8211,0.9251,0.809,0.9431,1.2473,1.0656,1.0669,1.1861,1.1745,1.1086,1.0365,0.0,1.2355,1.2956,1.5607,1.6627,1.666,1.6366,1.5899,0.0,0.0,0.0,0.0,0.0,1.4589,1.4509,1.4255,1.4188,1.4188,0.0,0.0,0.0,1.4135,1.4135,1.4188,0.0,0.0,0.0,0.0,0.0,0.0,0.0,0.0,0.0,0.0,0.0,0.0,0.0,0.0,0.0,0.0,1.5758,1.5784,1.5784,1.5784,1.5784,1.5784,1.5784,1.5784,1.5784,1.5784,1.5784,1.5784,1.5784,1.5784,1.5784,1.5784,1.6126,1.666,1.666,1.6981,1.7542,1.7542,1.7555,1.7609,1.7956,1.825,1.8544,1.9105,1.939,1.943,1.943,1.943,1.943,0.7098,0.7098,0.7146,0.7346,0.7475,0.7604,0.7746,0.7875,0.7901,0.7901,0.7928,0.7955,0.7988,0.7988,0.7988,0.7988,0.7988,0.7988,0.7988,0.7988,0.7975,0.7948,0.7948,0.7874,0.7773,0.7685,0.7631,0.7597,0.738,0.7409,0.7807,0.7543,0.7634,0.8008,0.8535,0.9173,0.9985,1.1748,1.212,1.1487,1.0706,1.0302,1.0264,1.0617,1.1544,1.2874,1.4791,1.6024,1.666,1.6366,1.6032,1.5704,0.0,0.0,0.0,1.5244,0.0,0.0,0.0,0.0,0.0,0.0,0.0,0.0,1.4482,1.4442,1.4322,0.0,0.0,0.0,0.0,0.0,0.0,0.0,0.0,0.0,0.0,0.0,0.0,0.0,0.0,0.0,0.0,1.5698,1.5784,1.5784,1.5784,1.5784,1.5784,1.5784,1.5784,1.5784,1.5784,1.5784,1.5784,1.5784,1.5784,1.5784,1.5784,1.6019,1.6353,1.6353,1.6723,1.7286,1.7286,1.742,1.7622,1.8183,1.8437,1.8531,1.8878,1.9158,1.943,1.943,1.943,1.9457,0.7098,0.7204,0.7305,0.7461,0.7604,0.7753,0.7902,0.7941,0.8015,0.8147,0.8153,0.8126,0.7995,0.7988,0.7988,0.7988,0.7988,0.7988,0.7988,0.7988,0.7988,0.7988,0.7988,0.7955,0.788,0.7855,0.7821,0.7821,0.7617,0.7617,0.7807,0.759,0.7806,0.8383,0.8792,0.9731,1.0994,1.1863,1.233,1.2371,1.1366,0.0,1.1309,1.0757,1.1554,1.3152,1.4703,1.5919,1.666,1.6366,1.6072,0.0,0.0,1.5725,1.5578,0.0,1.5297,1.515,0.0,0.0,0.0,1.5008,0.0,0.0,0.0,1.4522,1.4402,0.0,0.0,0.0,0.0,0.0,0.0,0.0,0.0,0.0,0.0,0.0,0.0,0.0,0.0,0.0,0.0,1.5311,1.5458,1.5605,1.5618,1.5671,1.5771,1.5784,1.5784,1.5784,1.5784,1.5784,1.5784,1.5784,1.5784,1.5784,1.5784,1.5979,1.6321,1.6321,1.6563,1.6941,1.7139,1.7286,1.7474,1.8183,1.849,1.8531,1.8971,1.9239,1.943,1.943,1.943,1.9444,0.7098,0.7265,0.7467,0.757,0.7719,0.7862,0.7968,0.7988,0.8035,0.8208,0.8255,0.8214,0.8008,0.8015,0.8056,0.811,0.8035,0.8029,0.811,0.8035,0.7988,0.7988,0.7988,0.7988,0.7988,0.7961,0.7961,0.7988,0.7934,0.7853,0.7807,0.7867,0.8236,0.8799,0.8888,1.0137,1.2093,1.1334,1.1631,1.257,0.0,1.1935,1.2383,1.1102,1.185,1.372,1.5106,1.6023,1.658,1.6286,1.6032,1.5784,1.5784,1.5784,0.0,0.0,0.0,0.0,0.0,0.0,0.0,0.0,0.0,1.5057,0.0,0.0,0.0,0.0,0.0,0.0,0.0,0.0,0.0,0.0,0.0,0.0,0.0,0.0,0.0,0.0,0.0,0.0,0.0,1.4941,1.5102,1.5297,1.5311,1.5444,1.5725,1.5704,1.5765,1.5784,1.5784,1.5784,1.5784,1.5784,1.5784,1.5784,1.5784,1.5952,1.6192,1.6192,1.6353,1.6633,1.6941,1.7152,1.7259,1.8063,1.841,1.8464,1.9118,1.943,1.943,1.943,1.943,1.9386,0.7125,0.7265,0.7467,0.757,0.7719,0.7862,0.7968,0.7988,0.7995,0.8015,0.8187,0.8214,0.8008,0.816,0.835,0.8615,0.8217,0.8157,0.8608,0.8211,0.7988,0.7988,0.7988,0.7988,0.7988,0.7909,0.7902,0.7988,0.778,0.7706,0.7807,0.8575,0.8497,0.7797,0.8671,0.9315,0.9688,0.9888,0.9984,0.0,1.0112,1.1005,0.0,1.0905,1.211,1.4605,1.5806,1.6281,1.6273,0.0,1.5811,1.5784,0.0,1.5784,1.5771,1.5744,0.0,0.0,0.0,0.0,0.0,0.0,1.5725,0.0,0.0,0.0,0.0,0.0,0.0,0.0,0.0,0.0,0.0,0.0,0.0,0.0,0.0,0.0,0.0,0.0,0.0,0.0,0.0,0.0,1.5022,1.5062,1.5062,1.5137,1.5431,1.5444,1.5565,1.5771,1.5784,1.5784,1.5784,1.5784,1.5784,1.5784,1.5784,1.5798,1.5885,1.5885,1.6046,1.6339,1.6633,1.6901,1.7246,1.7836,1.8049,1.8129,1.9038,1.943,1.943,1.943,1.943,1.9497,0.7305,0.7461,0.7645,0.7712,0.7841,0.7914,0.7982,0.8187,0.8269,0.8187,0.8377,0.8533,0.8507,0.854,0.8615,0.8825,0.8506,0.8343,0.0,0.8194,0.7988,0.7988,0.7988,0.7988,0.7988,0.7928,0.7928,0.7988,0.7828,0.8039,0.8659,0.8963,0.8882,0.8505,0.9597,0.9912,0.9604,0.0,0.9686,0.0,0.0,0.0,0.0,1.0724,1.2051,1.4562,1.4911,1.5575,1.6233,0.0,1.5784,0.0,0.0,0.0,0.0,0.0,0.0,0.0,0.0,0.0,0.0,0.0,0.0,0.0,1.5458,0.0,1.5044,0.0,0.0,0.0,0.0,0.0,0.0,0.0,0.0,0.0,0.0,0.0,0.0,0.0,0.0,0.0,0.0,0.0,0.0,0.0,0.0,1.491,1.5378,1.5391,1.5524,1.5771,1.5784,1.5784,1.5784,1.5784,1.5784,1.5784,1.5784,1.5784,1.5784,1.5784,1.5899,1.6046,1.65,1.678,1.6954,1.7676,1.7995,1.8049,1.8651,1.8958,1.9132,1.9305,1.943,1.9399,0.7516,0.7665,0.7814,0.7814,0.7887,0.7988,0.7988,0.8221,0.8336,0.8333,0.8492,0.8723,0.8865,0.8913,0.8988,0.9168,0.8927,0.8682,0.0,0.0,0.8076,0.7995,0.7988,0.7988,0.7988,0.7988,0.7988,0.7988,0.788,0.8206,0.8839,0.9071,0.898,0.8668,0.984,0.9965,0.9244,0.0,0.9242,0.941,0.8775,0.9903,1.1863,1.1766,1.2822,1.4363,1.4532,1.5253,1.6112,1.5899,1.5784,0.0,1.5784,0.0,0.0,0.0,0.0,0.0,1.5784,0.0,0.0,0.0,0.0,0.0,0.0,0.0,0.0,0.0,0.0,0.0,0.0,0.0,0.0,0.0,0.0,0.0,0.0,0.0,0.0,0.0,0.0,0.0,0.0,0.0,0.0,0.0,0.0,0.0,1.5244,1.5284,1.5444,1.5771,1.5784,1.5784,1.5784,1.5784,1.5784,1.5784,1.5784,1.5784,1.5784,1.5784,1.5872,1.5979,1.6486,1.6754,1.6887,1.7622,1.7862,1.7889,1.825,1.8544,1.8838,1.9132,1.9292,1.943,0.7801,0.7801,0.7814,0.7814,0.7887,0.7988,0.7988,0.7995,0.8106,0.8248,0.8397,0.8601,0.8851,0.9191,0.9537,0.9916,0.0,0.9354,0.9347,0.0,0.8343,0.0,0.0,0.7988,0.0,0.7988,0.7988,0.7988,0.7982,0.7882,0.7691,0.8784,0.8652,0.751,0.8798,0.8785,0.7869,0.8019,0.8031,0.8187,0.941,1.073,1.2193,0.0,1.4914,1.4088,1.5309,0.0,0.0,1.5784,1.5784,0.0,0.0,0.0,0.0,0.0,0.0,0.0,0.0,0.0,0.0,1.5784,0.0,0.0,0.0,0.0,1.5391,0.0,0.0,0.0,0.0,0.0,0.0,1.3573,0.0,0.0,0.0,0.0,0.0,0.0,0.0,0.0,0.0,0.0,0.0,0.0,0.0,0.0,1.4995,1.5022,1.5244,1.5758,1.5784,1.5784,1.5784,1.5784,1.5784,1.5784,1.5784,1.5784,1.5784,1.5784,1.5979,1.6273,1.658,1.6874,1.7206,1.7475,1.7595,1.7622,1.7916,1.8223,1.8544,1.8824,1.9118,1.947,0.7914,0.7914,0.7914,0.7914,0.7955,0.8022,0.8174,0.8269,0.8533,0.0,0.9279,0.0,0.0,1.0324,1.0331,0.0,0.0,0.9652,0.9316,0.8859,0.0,0.0,0.0,0.7988,0.0,0.0,0.7988,0.7988,0.7887,0.8222,0.887,0.9091,0.948,1.0119,1.0482,1.0124,0.0,0.0,0.0,0.0,0.0,1.2328,1.2086,0.0,0.0,1.4076,1.5343,1.5784,0.0,1.5784,1.5784,1.5784,1.5784,1.5784,1.5784,1.5784,1.5784,0.0,0.0,0.0,1.6072,1.5872,0.0,0.0,0.0,0.0,0.0,0.0,0.0,0.0,0.0,0.0,0.0,1.3666,0.0,0.0,0.0,0.0,0.0,0.0,0.0,0.0,0.0,0.0,0.0,0.0,0.0,0.0,0.0,1.5008,1.5231,1.5758,1.5784,1.5784,1.5784,1.5784,1.5784,1.5784,1.5784,1.5784,1.5784,1.5784,1.5992,1.6286,1.658,1.6874,1.7219,1.7514,1.7582,1.7609,1.7916,1.8223,1.8531,1.8811,1.9118,1.9439,0.7988,0.7988,0.7988,0.7988,0.7988,0.8092,0.8248,0.0,0.0,0.0,0.9829,0.0,1.1077,0.0,1.088,0.0,1.0568,1.0046,0.9344,0.9103,0.0,0.8347,0.8221,0.0,0.0,0.0,0.0,0.0,0.7894,0.8202,0.8908,0.9189,0.9853,1.0773,1.0772,1.047,0.99,0.9485,0.9262,0.0,0.0,1.2668,0.0,0.0,1.4555,1.4698,0.0,1.5784,1.5784,1.5784,1.5784,1.5784,1.5784,1.5784,1.5784,1.5784,1.5784,1.5784,1.5784,1.6046,0.0,1.5899,1.6046,0.0,1.5899,0.0,0.0,0.0,0.0,0.0,0.0,0.0,0.0,1.3973,1.3586,0.0,0.0,1.2945,0.0,0.0,0.0,0.0,0.0,0.0,0.0,0.0,0.0,0.0,0.0,0.0,1.5231,1.5758,1.5784,1.5784,1.5784,1.5784,1.5784,1.5784,1.5784,1.5784,1.5784,1.5939,1.6152,1.6446,1.674,1.7034,1.7367,1.7502,1.7582,1.7609,1.7929,1.8169,1.8531,1.8811,1.9172,1.9586,0.7988,0.7995,0.8002,0.8002,0.8002,0.0,0.0,0.0,0.9074,0.0,1.0046,1.0548,1.1214,1.1268,1.1192,1.1241,1.1043,1.0521,0.949,0.9551,0.0,0.0,0.8431,0.8425,0.8333,0.0,0.0,0.0,0.0,0.7963,0.7918,0.9148,0.9669,0.96,0.9733,0.0,0.974,0.8561,0.8038,0.8237,1.0925,1.195,1.2193,1.4806,1.5784,1.5784,1.5784,1.5784,1.5784,1.5784,1.5784,1.5784,1.5784,1.5784,1.5784,1.5784,1.5784,1.5784,1.5784,1.6046,1.6206,1.5899,0.0,0.0,0.0,0.0,1.5784,0.0,0.0,0.0,0.0,0.0,0.0,0.0,0.0,0.0,0.0,0.0,0.0,0.0,0.0,0.0,0.0,0.0,0.0,0.0,0.0,0.0,0.0,0.0,1.5231,1.5758,1.5784,1.5784,1.5784,1.5784,1.5784,1.5784,1.5784,1.5784,1.5858,1.6139,1.6433,1.674,1.7072,1.7367,1.7582,1.7582,1.7595,1.7635,1.7889,1.8263,1.8571,1.8838,1.9305,1.984,0.7988,0.8133,0.8214,0.0,0.8214,0.8296,0.0,0.0,0.0,0.0,1.0656,1.1234,1.1769,1.1728,1.1572,1.1355,1.1192,0.0,0.0,0.0,0.0,0.9117,0.8811,0.8581,0.8431,0.8289,0.0,0.7988,0.0,0.8506,0.9437,0.868,0.938,1.124,1.0236,0.9839,0.9926,0.9641,0.8924,0.8336,1.193,1.2813,0.0,0.0,1.5784,1.5784,1.5784,1.5784,1.5784,1.5784,1.5784,1.5784,1.5784,1.5784,1.5784,1.5784,1.5784,1.5784,1.5784,1.6046,1.6206,1.5899,1.6046,1.6192,0.0,0.0,0.0,0.0,0.0,0.0,0.0,0.0,0.0,0.0,0.0,0.0,0.0,0.0,0.0,1.36,0.0,0.0,0.0,0.0,0.0,0.0,0.0,0.0,0.0,0.0,0.0,1.5758,1.5784,1.5784,1.5784,1.5784,1.5784,1.5784,1.5784,1.5939,1.6166,1.6246,1.6603,1.7085,1.7166,1.7367,1.7582,1.7582,1.7716,1.7902,1.8263,1.8691,1.9158,1.9225,1.9479,1.9813,0.8126,0.0,0.0,0.8452,0.0,0.0,0.8879,0.9178,0.0,1.031,1.0846,0.0,1.1728,1.1748,1.1647,1.1409,1.1192,0.0,1.0215,0.0,0.0,0.9401,0.9076,0.8804,0.8587,0.8377,0.0,0.7988,0.0,0.0,0.9114,0.8875,0.9608,1.1014,0.0,0.9949,0.9953,0.9361,0.9015,0.9114,1.1891,0.0,0.0,1.5045,1.5784,1.5784,1.5784,1.5784,1.5784,1.5784,1.5784,1.5784,1.5784,1.5784,1.5784,1.5784,1.5784,1.5784,1.5784,1.6046,1.6206,1.5899,1.6046,1.6192,1.5899,1.5784,1.5784,0.0,0.0,0.0,0.0,0.0,0.0,0.0,0.0,0.0,0.0,0.0,0.0,0.0,0.0,0.0,0.0,0.0,0.0,0.0,0.0,0.0,0.0,0.0,0.0,1.5758,1.5952,1.5965,1.5784,1.5965,1.5965,1.5784,1.5784,1.5979,1.6273,1.6406,1.6764,1.7206,1.734,1.7487,1.7582,1.7582,1.7769,1.8035,1.8517,1.8958,1.943,1.943,1.9546,1.9813,0.0,0.0,0.0,0.0,0.0,0.0,0.0,0.9415,0.0,1.0263,0.0,1.1219,1.1375,1.1491,1.1497,1.1348,0.0,1.0651,1.0112,1.0229,1.0046,0.9523,0.935,0.9042,0.875,0.8452,0.8214,0.0,0.0,0.8088,0.8287,0.9262,0.9854,1.0002,0.0,0.0,0.0,0.8577,0.8775,1.0092,1.1414,1.2716,1.4016,1.5296,1.5784,1.5784,1.5784,1.5784,1.5784,1.5784,1.5784,1.5784,1.5784,1.5784,1.5784,1.5784,1.5784,1.5784,1.5784,1.6019,1.6152,1.5885,1.6019,1.6152,1.5885,1.5784,1.5784,1.5784,1.5784,1.5784,0.0,0.0,0.0,0.0,0.0,0.0,0.0,0.0,0.0,0.0,0.0,0.0,0.0,0.0,0.0,0.0,0.0,0.0,0.0,0.0,0.0,1.5758,1.6086,0.0,1.5904,0.0,1.6139,1.6005,1.5878,1.6059,1.6442,1.6647,1.6927,1.7273,1.7475,1.7582,1.7582,1.7582,1.7796,1.8115,1.8758,1.9132,1.943,1.943,1.9533,1.9773,0.0,0.0,0.0,0.0,0.0,0.9462,0.9836,1.012,1.0378,1.0616,1.0948,1.1219,1.1375,1.1301,1.1185,1.0968,1.0907,0.0,0.0,0.0,0.0,1.0127,0.9618,0.9205,0.8851,0.8601,0.8309,0.0,0.0,0.8577,0.9608,0.8775,0.8924,1.0002,0.0,0.0,0.9903,0.8577,0.0,1.0092,1.1414,1.2716,1.4016,1.5296,1.5784,1.5784,1.5784,1.5784,1.5784,1.5784,1.5784,1.5784,1.5784,1.5784,1.5784,1.5784,1.5784,1.5784,1.5784,1.5824,1.5851,1.5798,1.5824,1.5885,1.5798,1.5784,1.5784,1.5784,1.5784,1.5784,1.5784,0.0,0.0,0.0,0.0,0.0,0.0,0.0,0.0,0.0,0.0,0.0,0.0,0.0,0.0,0.0,0.0,0.0,0.0,0.0,0.0,0.0,1.5885,0.0,0.0,0.0,1.6246,1.6965,1.642,1.6473,1.7045,1.7099,1.7286,1.7515,1.7555,1.7582,1.7582,1.7582,1.7903,1.8477,1.9065,1.9319,1.943,1.943,1.9457,1.9511,0.0,0.0,0.0,0.0,0.0,0.0,0.0,1.0419,0.0,1.0602,1.0724,1.0846,1.0914,1.1002,1.1023,1.0887,1.0806,1.0799,1.0724,1.0446,1.0283,1.0283,0.97,0.0,0.9055,0.8676,0.8377,0.816,0.0,0.0,1.0002,0.9361,0.9756,1.0974,0.0,0.9608,0.0,0.0,0.0,1.1121,1.2425,1.374,1.4949,1.5581,1.5784,1.5784,1.5784,1.5784,1.5784,1.5784,1.5784,1.5784,1.5784,1.5784,1.5784,1.5784,1.5784,1.5784,1.5784,1.5784,1.5784,1.5784,1.5784,1.5784,1.5784,1.5784,1.5784,1.5784,1.5784,1.5784,1.5784,1.5712,0.0,0.0,0.0,0.0,0.0,0.0,0.0,0.0,0.0,0.0,0.0,0.0,0.0,0.0,0.0,0.0,0.0,0.0,0.0,0.0,0.0,0.0,0.0,0.0,0.0,1.6914,1.6633,1.6727,1.7206,1.7206,1.7367,1.7582,1.7582,1.7582,1.7609,1.7929,1.8317,1.8758,1.9199,1.943,1.943,1.943,1.943,1.9444,0.0,0.8947,0.0,0.0,0.972,0.0,1.0283,1.0548,1.069,1.0602,1.0561,1.0555,1.0582,1.0772,1.0833,1.0833,1.0792,1.0717,1.0717,1.0446,1.0283,1.0283,0.97,0.9306,0.9214,0.8763,0.8411,0.0,0.0,0.0,0.0,1.0288,0.0,0.0,0.0,0.0,0.0,0.0,1.117,1.2425,1.3488,1.4651,1.5784,1.5784,1.5784,1.5784,1.5784,1.5784,1.5784,1.5784,1.5784,1.5784,1.5784,1.5784,1.5784,1.5784,1.5784,1.5784,1.5784,1.5784,1.5784,1.5784,1.5784,1.5784,1.5784,1.5784,1.5784,1.5784,1.5784,1.5784,1.5784,1.5784,0.0,0.0,0.0,0.0,0.0,0.0,0.0,0.0,0.0,0.0,0.0,0.0,0.0,0.0,0.0,1.4683,1.5075,1.5271,0.0,0.0,0.0,1.6273,1.6509,0.0,1.674,0.0,1.686,1.6954,1.73,1.73,1.742,1.7582,1.7649,1.7716,1.7822,1.8357,1.8718,1.8958,1.9252,1.943,1.943,1.9439,1.9466,1.9506,0.0,0.0,0.0,0.0,0.0,0.0,1.0446,1.0616,1.0765,1.082,1.0785,1.0751,1.0826,1.0806,1.0744,1.0744,1.0731,1.0717,1.0717,1.0446,1.0283,1.0283,0.97,0.9306,0.9214,0.8763,0.8411,0.0,0.0,0.0,0.0,0.0,0.0,0.0,0.0,0.0,0.0,1.1658,1.2474,1.3728,1.3824,1.4651,1.5784,1.5784,1.5784,1.5784,1.5784,1.5784,1.5784,1.5784,1.5784,1.5784,1.5784,1.5784,1.5784,1.5784,1.5784,1.5784,1.5784,1.5784,1.5784,1.5784,1.5784,1.5784,1.5784,1.5784,1.5784,1.5784,1.5784,1.5784,1.5784,1.5784,1.5784,0.0,0.0,0.0,0.0,0.0,0.0,0.0,0.0,0.0,0.0,0.0,0.0,0.0,0.0,1.4763,1.5324,1.5378,1.5524,1.5771,0.0,1.6259,1.7112,1.6616,0.0,1.7862,1.7368,1.7313,1.7542,1.7542,1.7555,1.7595,1.7876,1.8156,1.8424,1.8744,1.8905,1.8958,1.9252,1.943,1.9457,1.9666,1.976,1.98,0.0,0.0,0.0,0.0,0.0,0.0,0.0,1.0683,1.0744,1.0806,1.0758,1.0744,1.0739,1.0758,1.0717,1.0717,1.0717,1.0717,1.0717,1.0446,1.0283,1.0283,0.97,0.9354,0.935,0.8757,0.8452,0.0,0.0,0.0,0.0,0.0,0.0,0.0,0.0,1.1414,1.195,1.2764,1.3392,1.3968,1.4758,1.5343,1.5784,1.5784,1.5784,1.5784,1.5784,1.5784,1.5784,1.5784,1.5784,1.5784,1.5784,1.5784,1.5784,1.5784,1.5784,1.5784,1.5784,1.5784,1.5784,1.5784,1.5784,1.5784,1.5784,1.5784,1.5784,1.5784,1.5784,1.5784,1.5784,1.5784,1.5784,0.0,0.0,0.0,0.0,0.0,0.0,0.0,0.0,0.0,0.0,0.0,0.0,0.0,0.0,0.0,1.5378,1.5565,0.0,1.5784,0.0,1.6353,1.6874,1.6871,1.7128,1.7769,1.7528,1.7527,1.7582,1.7582,1.7689,1.7862,1.7942,1.8262,1.8758,1.8878,1.9025,1.9199,1.9377,1.9479,1.9639,1.976,1.9907,2.008,0.9937,0.0,1.0053,0.0,1.0412,1.048,1.069,1.0717,1.0717,1.0717,1.0717,1.0717,1.0717,1.0717,1.0717,1.0717,1.0717,1.0717,1.0717,1.0446,1.0283,1.0283,0.97,0.0,0.9381,0.8832,0.8526,0.8479,0.8577,0.0,0.0,0.0,0.0,0.0,1.2328,1.2474,1.2571,1.3884,1.4459,1.4555,1.5439,1.5784,1.5784,1.5784,1.5784,1.5784,1.5784,1.5784,1.5784,1.5784,1.5784,1.5784,1.5784,1.5784,1.5784,1.5784,1.5784,1.5784,1.5784,1.5784,1.5784,1.5784,1.5784,1.5784,1.5784,1.5784,1.5784,1.5784,1.5784,1.5784,1.5784,1.5784,1.5784,1.5784,0.0,0.0,0.0,0.0,0.0,0.0,1.5471,1.5378,1.5048,0.0,0.0,0.0,0.0,0.0,0.0,0.0,0.0,0.0,0.0,0.0,0.0,1.7058,1.734,1.7582,1.7582,1.7582,1.7582,1.7675,1.7889,1.8129,1.8209,1.8528,1.9052,1.9052,1.9185,1.943,1.9466,1.9626,1.9826,2.0,2.0187,2.0374,1.0215,1.0276,1.0371,1.0663,1.0717,1.0717,1.0717,1.0717,1.0717,1.0717,1.0717,1.0717,1.0717,1.0717,1.0717,1.0717,1.0717,1.0717,1.0717,1.0446,1.0283,0.0,0.0,0.9381,0.9381,0.894,0.8635,0.8479,0.0,0.0,1.1901,0.0,1.3151,1.195,1.3295,1.3872,1.3968,1.5248,1.5784,1.5784,1.5784,1.5784,1.5784,1.5784,1.5784,1.5784,1.5784,1.5784,1.5784,1.5784,1.5784,1.5784,1.5784,1.5784,1.5784,1.5784,1.5784,1.5784,1.5784,1.5784,1.5784,1.5784,1.5784,1.5784,1.5784,1.5784,1.5784,1.5784,1.5784,1.5784,1.5784,1.5784,1.5784,1.5784,0.0,0.0,0.0,0.0,0.0,0.0,1.5645,1.5605,1.5062,0.0,0.0,0.0,0.0,0.0,0.0,0.0,0.0,1.5784,1.6112,0.0,1.67,1.7058,1.734,1.7582,1.7582,1.7582,1.7595,1.7849,1.8196,1.8504,1.8784,1.9078,1.9359,1.9359,1.9417,1.9457,1.9679,1.98,1.9867,2.0454,2.0668,2.0708,1.0561,1.0582,1.0609,1.0704,1.0717,1.0717,1.0717,1.0717,1.0717,1.0717,1.0717,1.0717,1.0717,1.0717,1.0717,0.0,1.0717,1.0677,0.0,1.0385,1.0236,1.0127,0.9747,0.949,0.9381,0.9042,0.8791,0.8635,0.0,0.0,0.0,1.2328,1.2328,1.1901,1.2339,1.2522,1.2619,1.3932,1.4507,1.4555,1.5439,1.5784,1.5784,1.5784,1.5784,1.5784,1.5784,1.5784,1.5784,1.5784,1.5784,1.5784,1.5784,1.5784,1.5784,1.5784,1.5784,1.5784,1.5784,1.5784,1.5784,1.5784,1.5784,1.5784,1.5784,1.5784,1.5784,1.5784,1.5784,1.5784,1.5784,1.5784,1.5784,1.5784,1.5784,0.0,0.0,0.0,0.0,0.0,1.5765,1.5704,0.0,1.5631,0.0,0.0,0.0,0.0,0.0,0.0,0.0,0.0,1.642,0.0,1.7058,1.7353,1.7541,1.7582,1.7582,1.7689,1.7849,1.821,1.8504,1.8784,1.8878,1.9092,1.943,1.943,1.943,1.9457,1.9693,1.992,2.0147,2.0535,2.0802,2.0989,1.0717,1.0717,1.0717,1.0717,1.0717,1.0717,1.0717,1.0717,1.0717,1.0717,1.0717,1.0717,1.0717,1.0717,0.0,1.0717,1.0717,1.0677,1.0582,1.0392,1.0236,1.0141,0.9795,0.9537,0.9388,0.0,0.0,0.871,0.9748,1.0373,1.055,1.1617,1.1806,1.1274,1.1776,1.2022,1.211,1.3389,1.392,1.4016,1.5296,1.5784,1.5784,1.5784,1.5784,1.5784,1.5784,1.5784,1.5784,1.5784,1.5784,1.5784,1.5784,1.5784,1.5784,1.5784,1.5784,1.5784,1.5784,1.5784,1.5784,1.5784,1.5784,1.5784,1.5784,1.5912,1.5965,1.5845,1.5784,1.5784,1.5784,1.5784,1.5784,1.5784,1.5784,1.5784,1.5784,0.0,0.0,0.0,0.0,0.0,0.0,1.5784,0.0,0.0,0.0,0.0,0.0,0.0,0.0,1.6308,1.6553,0.0,1.7192,1.7487,1.7635,1.7756,1.7862,1.8023,1.8223,1.8517,1.8744,1.8931,1.9038,1.9199,1.943,1.943,1.943,1.947,1.9813,2.0067,2.0281,2.0695,2.0949,2.1109,1.0717,1.0717,0.0,0.0,1.0717,0.0,1.0717,1.0717,1.0717,1.0717,1.0717,1.0717,1.0717,1.0717,1.0717,1.0717,0.0,0.0,0.0,1.0439,1.0276,1.0263,0.9856,0.9551,0.9388,0.9303,0.9071,0.8817,0.9926,0.9812,0.8641,1.1187,1.1629,1.0281,1.1532,1.2084,1.2154,1.3273,1.3848,1.4016,1.5296,1.5784,1.5784,1.5784,1.5784,1.5784,1.5784,1.5784,1.5784,1.5784,1.5784,1.5784,1.5784,1.5784,1.5784,1.5784,1.5784,1.5832,1.5811,1.5811,1.5824,1.5838,1.5838,1.5838,1.5838,1.6086,1.6192,1.5912,1.5798,1.5784,1.5784,1.5784,1.5784,1.5784,1.5784,1.5784,1.5784,0.0,0.0,0.0,0.0,0.0,0.0,1.5784,1.5784,0.0,0.0,0.0,0.0,0.0,1.5992,1.6348,1.658,1.6874,1.7233,1.7501,1.7742,1.7995,1.837,1.8517,1.8531,1.8824,1.8958,1.8971,1.9239,1.943,1.943,1.943,1.943,1.9426,2.0,2.0167,2.0247,2.0895,2.1109,2.1109,0.0,0.0,1.0717,1.0717,1.0717,1.0717,1.0717,1.0717,1.0717,1.0717,1.0717,1.0717,1.0717,1.0717,1.0717,1.0717,1.0717,1.067,1.0555,1.0378,1.0229,1.0107,0.989,0.9646,0.9388,0.9347,0.9624,1.0251,1.0523,1.088,1.1462,1.2125,1.1653,1.0372,1.0681,1.0748,1.0759,1.2054,1.3122,1.4016,1.5296,1.5784,1.5784,1.5784,1.5784,1.5784,1.5784,1.5784,1.5784,1.5784,1.5784,1.5784,1.5784,1.5784,1.5784,1.5784,1.5784,1.5872,1.6112,1.6166,1.6219,1.6446,1.65,1.65,1.65,1.638,1.6308,1.6179,1.5992,1.5784,1.5784,1.5784,1.5784,1.5784,1.5784,1.5784,1.5784,1.5784,0.0,0.0,1.5784,1.5784,1.5784,1.5784,1.5925,0.0,0.0,0.0,0.0,1.6166,1.6299,1.6593,1.6938,1.7233,1.7475,1.7542,1.7742,1.7995,1.8571,1.8824,1.8824,1.9132,1.9265,1.9265,1.939,1.943,1.943,1.943,1.943,1.9426,2.0,2.0167,2.0247,2.0895,2.1109,2.1109,1.0717,1.0717,1.0717,1.0717,1.0717,1.0717,1.0717,1.0717,1.0717,1.0717,1.0717,1.0717,1.0717,1.0717,1.0717,1.0717,1.0717,1.0656,1.05,1.0358,1.0209,0.9997,0.9842,0.9713,0.949,0.9415,0.9532,0.9892,0.9892,1.0176,1.0731,1.0763,1.0392,0.9633,0.9633,0.9939,1.0613,1.1699,1.2936,1.4182,1.5347,1.5784,1.5784,1.5784,1.5784,1.5784,1.5784,1.5784,1.5784,1.5784,1.5784,1.5784,1.5784,1.5784,1.5811,1.5992,1.6032,1.6099,1.6393,1.6473,1.6513,1.666,1.6807,1.6874,1.674,1.6687,1.6683,1.65,1.6233,1.6032,1.6032,1.5925,1.5784,1.5784,1.5784,1.5784,1.5784,1.5784,0.0,1.5784,1.5784,1.5784,1.5784,1.5952,1.6046,1.6072,0.0,0.0,1.6308,1.6393,1.6607,1.6901,1.7246,1.7608,1.7996,1.813,1.8277,1.8395,1.8905,1.9132,1.9132,1.9292,1.943,1.943,1.943,1.943,1.943,1.943,1.943,1.9426,2.0,2.0167,2.0294,2.0748,2.0909,2.0895,1.0717,1.0717,1.0717,1.0717,1.0717,1.0717,1.0717,1.0717,1.0717,1.0717,1.0717,1.0717,1.0717,1.0717,1.0717,1.0717,1.0717,1.0656,1.05,1.0358,1.0209,0.9997,0.9842,0.9741,0.9578,0.9422,0.9225,0.8974,0.8974,0.8906,0.8777,0.8886,0.8975,0.9068,0.9068,0.9954,1.1592,1.2322,1.3374,1.4691,1.5547,1.5872,1.5784,1.5784,1.5784,1.5784,1.5784,1.5784,1.5784,1.5784,1.5784,1.5784,1.5784,1.5811,1.5952,1.6246,1.6415,1.6509,1.67,1.6807,1.6834,1.6834,1.7034,1.7206,1.6901,1.6994,1.7125,1.682,1.65,1.6321,1.6321,1.6032,1.5784,1.5784,1.5784,1.5784,1.5784,0.0,1.5784,1.5784,1.5824,1.5899,1.5899,1.6166,1.6246,1.6046,1.6219,1.6353,0.0,1.6687,1.6967,1.7326,1.7515,1.7929,1.8477,1.8784,1.8918,1.8931,1.9225,1.943,1.943,1.943,1.943,1.943,1.943,1.943,1.943,1.943,1.943,1.9426,1.996,2.0127,2.0267,2.0561,2.0708,2.0708,1.0717,1.0717,1.0717,1.0717,1.0717,1.0717,1.0717,1.0717,1.0717,1.0717,1.0717,1.0717,1.0717,1.0717,1.0717,1.0717,1.0717,1.0656,1.05,1.0358,1.0209,0.9997,0.9842,0.9693,0.9422,0.9323,0.9221,0.9173,0.9173,0.9166,0.9139,0.8981,0.9574,1.074,1.074,1.2096,1.4346,1.4527,1.5127,1.6015,1.6171,1.6059,1.5784,1.5784,1.5784,1.5784,1.5784,1.5784,1.5784,1.5784,1.5784,1.5784,1.5784,1.6005,1.6259,1.6553,1.682,1.7072,1.7125,1.7313,1.7448,1.7448,1.7475,1.7502,1.7462,1.734,1.7192,1.7139,1.6697,1.6321,1.6321,1.6032,1.5784,1.5784,1.5784,1.5784,1.5784,0.0,1.5784,1.5784,1.6046,1.6206,1.6206,1.6473,1.6727,1.6978,1.6754,1.6754,1.7045,1.7288,1.7582,1.7876,1.7943,1.8143,1.849,1.8784,1.8918,1.8931,1.9225,1.943,1.943,1.943,1.943,1.943,1.943,1.943,1.943,1.943,1.943,1.9457,1.9733,2.0013,2.0267,2.0561,2.0828,2.1042,1.0717,1.0717,1.0717,1.0717,1.0717,1.0717,1.0717,1.0717,1.0717,1.0717,1.0717,1.0717,1.0717,1.0717,1.0717,1.0717,1.0717,1.0656,1.05,1.0358,1.0175,0.9876,0.9856,0.972,0.951,0.9435,0.9361,0.933,0.933,0.9289,0.9207,0.9083,0.978,1.1109,1.1109,1.2621,1.5235,1.5042,1.5678,1.6764,1.6455,1.6192,1.6072,1.6072,1.5965,1.5824,1.6192,1.6192,1.6086,1.6246,1.6299,1.6299,1.6299,1.6393,1.6567,1.686,1.7206,1.7434,1.7434,1.7527,1.7582,1.7582,1.7702,1.7836,1.7836,1.7729,1.7635,1.7635,1.7154,1.679,1.679,1.638,1.6126,1.6273,1.5984,0.0,0.0,1.6072,1.6072,1.6072,1.6326,1.6513,1.6513,1.6767,1.7058,1.7192,1.7168,1.7315,1.7622,1.7756,1.8036,1.849,1.8664,1.8824,1.8958,1.9092,1.9158,1.9158,1.9305,1.943,1.943,1.9533,1.9519,1.943,1.9533,1.9506,1.943,1.943,1.943,1.947,1.9853,2.0107,2.0267,2.0561,2.0762,2.0855,1.0717,1.0717,1.0717,1.0717,1.0717,1.0717,1.0717,1.0717,1.0717,1.0717,1.0717,1.0717,1.0717,1.0717,1.0717,1.0717,1.0717,1.0643,1.0453,1.0337,1.0161,0.9883,0.9808,0.972,0.9612,0.9612,0.9551,0.9435,0.9435,0.9374,0.9316,0.9575,1.0364,1.1663,1.1991,1.3534,1.589,1.5684,1.6199,1.7166,1.671,1.6433,1.638,1.638,1.6233,1.6037,1.646,1.65,1.6393,1.6553,1.6647,1.67,1.67,1.6807,1.6954,1.7233,1.7554,1.7796,1.7796,1.7796,1.7796,1.7796,1.7969,1.8102,1.8102,1.8102,1.8102,1.8102,1.7675,1.73,1.73,1.6817,1.642,1.658,0.0,0.0,0.0,1.6326,1.638,1.638,1.6633,1.6834,1.6901,1.7181,1.7434,1.7514,1.7662,1.7903,1.8143,1.8155,1.8435,1.9011,1.9252,1.943,1.943,1.943,1.943,1.943,1.943,1.9399,1.9466,1.9626,1.9653,1.9573,1.9666,1.9613,1.9466,1.9457,1.947,1.9506,1.996,2.0214,2.0361,2.0588,2.0722,2.0748,1.0717,1.0717,1.0717,1.0717,1.0717,1.0717,1.0717,1.0717,1.0717,1.0717,1.0717,1.0717,1.0717,1.0717,1.0717,1.0717,1.0717,1.0602,1.0317,1.0283,1.0209,0.9977,0.9774,0.9618,0.9612,0.9612,0.9605,0.9591,0.9591,0.9585,0.9571,1.0638,1.1921,1.3347,1.4548,1.5956,1.7424,1.7397,1.7343,1.7192,1.7152,1.6978,1.6673,1.6673,1.666,1.6607,1.638,1.646,1.6633,1.6393,1.6486,1.67,1.67,1.7074,1.7515,1.7542,1.7969,1.8424,1.8424,1.8424,1.8424,1.8424,1.8437,1.8464,1.8464,1.8464,1.8464,1.8464,1.7969,1.7555,1.7555,1.7074,1.6593,1.6339,0.0,0.0,1.6313,1.65,1.6673,1.6673,1.6941,1.7273,1.7488,1.7796,1.809,1.837,1.841,1.8437,1.8464,1.8718,1.9011,1.9319,1.9417,1.943,1.943,1.943,1.943,1.943,1.943,1.9506,1.976,1.9506,1.9679,2.0134,1.9626,1.9546,1.9746,1.9479,1.9533,1.9773,1.9813,2.016,2.0641,2.0668,2.0842,2.1069,1.2084,1.1439,1.1049,1.2091,1.1439,1.0717,1.0717,1.0717,1.0717,1.0717,1.0717,1.0717,1.0717,1.0717,1.0717,1.0717,1.0717,1.067,1.0561,1.0385,1.0168,0.9856,1.0755,1.0748,0.9741,0.9741,0.9741,0.9741,0.9741,1.0165,1.1122,1.1554,1.2899,1.5032,1.5487,1.6382,1.7582,1.7582,1.7515,1.7447,1.7273,1.7139,1.7032,1.7032,1.686,1.674,1.6994,1.7034,1.7072,1.7288,1.7448,1.7516,1.7756,1.7969,1.8183,1.8357,1.8584,1.8798,1.8985,1.8771,1.849,1.849,1.8624,1.8758,1.8758,1.8758,1.8758,1.8758,1.8437,1.8143,1.8143,1.7796,1.7488,1.7382,0.0,1.7058,1.7074,1.7181,1.7315,1.7515,1.7796,1.8023,1.813,1.825,1.845,1.8731,1.8758,1.8838,1.9025,1.9145,1.9252,1.9417,1.943,1.943,1.943,1.943,1.9452,1.9639,1.9639,1.9786,2.0067,2.0147,2.0201,2.0227,2.0187,2.0134,2.0054,1.9947,1.9973,2.008,2.0267,2.0481,2.0695,2.0882,2.1015,2.1109,1.3062,1.28,1.2742,1.3905,1.3128,1.2347,1.2347,1.2347,1.2347,1.2347,1.1828,1.1696,1.2281,1.1828,1.1505,1.1505,1.2025,1.2068,1.149,1.1637,1.12,0.9829,1.0838,1.1201,1.0543,1.0536,1.0778,1.1314,1.1314,1.185,1.284,1.3245,1.438,1.6101,1.6527,1.7118,1.7729,1.7729,1.7675,1.7569,1.742,1.734,1.734,1.734,1.7154,1.7034,1.7435,1.7515,1.7488,1.7849,1.8049,1.8223,1.8424,1.8624,1.8824,1.9118,1.9265,1.9372,1.9586,1.9345,1.8998,1.8811,1.8985,1.9172,1.9078,1.9065,1.9065,1.9065,1.8838,1.8624,1.8624,1.837,1.8143,1.8009,1.7782,1.7661,1.7716,1.7809,1.7943,1.8156,1.837,1.8531,1.8624,1.8624,1.8744,1.9038,1.9065,1.9158,1.9417,1.943,1.943,1.943,1.943,1.947,1.9506,1.9412,1.9506,1.98,1.98,2.0,2.0374,2.0494,2.0521,2.0508,2.0535,2.0468,2.0361,2.0267,2.0294,2.0388,2.0601,2.0735,2.0842,2.1042,2.1109,2.1109,1.3325,1.4754,1.5913,1.5913,1.5913,1.5913,1.5913,1.5913,1.5913,1.5913,1.4362,1.397,1.5719,1.4362,1.3325,1.3325,1.4874,1.5113,1.3238,1.4309,1.3438,1.0004,0.9822,1.0596,1.2157,1.2217,1.2988,1.4599,1.4599,1.4599,1.4658,1.5892,1.6517,1.6562,1.7927,1.833,1.7995,1.7995,1.7862,1.7595,1.7582,1.7582,1.7595,1.7595,1.7595,1.7595,1.7595,1.7796,1.7995,1.7995,1.825,1.849,1.8504,1.8905,1.9484,1.972,2.0,2.0167,2.0167,2.0167,2.0094,1.9519,1.9586,1.972,1.9439,1.943,1.943,1.943,1.9132,1.8931,1.8931,1.8691,1.8397,1.8049,1.8303,1.8397,1.8035,1.8303,1.849,1.8504,1.8504,1.8611,1.8905,1.8931,1.9052,1.9345,1.943,1.943,1.943,1.943,1.943,1.943,1.943,1.9506,1.98,1.9519,1.9519,1.9813,1.9813,2.012,2.0668,2.0374,2.0561,2.1082,2.0494,2.0401,2.0655,2.0361,2.0414,2.0681,2.0681,2.0855,2.1109,2.1109,2.1109,2.1109,1.6689,1.6366,1.6302,1.7538,1.6689,1.5913,1.5913,1.5913,1.5913,1.5913,1.5459,1.5329,1.5848,1.5459,1.5135,1.5135,1.5589,1.5559,1.4688,1.4978,1.4627,1.3246,1.3168,1.3407,1.3885,1.3885,1.4123,1.4599,1.4599,1.5192,1.6315,1.6646,1.7341,1.821,1.8599,1.8637,1.8343,1.8075,1.8116,1.8196,1.7996,1.8036,1.8223,1.8223,1.8223,1.8223,1.8223,1.8277,1.8384,1.8597,1.8718,1.8865,1.9279,1.9533,1.9733,2.0013,2.016,2.0167,2.0167,2.0388,2.0401,1.9813,1.9733,1.972,1.9439,1.9533,1.9613,1.947,1.9466,1.9479,1.9279,1.9172,1.9011,1.8704,1.8744,1.8771,1.8677,1.8744,1.8878,1.9078,1.9105,1.9145,1.9225,1.9239,1.9265,1.9417,1.9559,1.976,1.996,1.9973,1.988,1.9679,1.9666,1.972,1.98,1.972,1.992,2.0414,2.0414,2.0615,2.0975,2.0882,2.0949,2.1096,2.0922,2.0895,2.0975,2.0882,2.0895,2.0975,2.0975,2.1029,2.1109,2.1109,2.1109,2.1109,1.8308,1.818,1.8308,1.9355,1.864,1.7988,1.7988,1.7988,1.7988,1.7988,1.7345,1.7205,1.7859,1.7345,1.6947,1.6947,1.6947,1.7052,1.7417,1.6735,1.6453,1.6663,1.5957,1.5548,1.5548,1.5548,1.5843,1.6503,1.6503,1.6973,1.7923,1.7923,1.8371,1.9092,1.9092,1.8931,1.8651,1.8422,1.8437,1.8477,1.829,1.833,1.849,1.849,1.849,1.8504,1.8624,1.8664,1.8704,1.8998,1.9172,1.9332,1.9693,1.996,2.0174,2.0361,2.0494,2.0575,2.0575,2.0708,2.0735,2.0267,2.0147,2.0067,1.9773,1.984,1.992,1.9746,1.9853,1.992,1.9746,1.9706,1.9653,1.9466,1.9381,1.9381,1.9381,1.9381,1.9466,1.9533,1.9533,1.9492,1.943,1.9466,1.9586,1.9706,1.9867,2.0054,2.0167,2.0167,2.0147,1.9973,1.9973,2.0027,2.0147,2.0147,2.0321,2.0681,2.0681,2.0828,2.1109,2.1109,2.1109,2.1109,2.1109,2.1109,2.1109,2.1109,2.1109,2.1109,2.1109,2.1109,2.1109,2.1109,2.1109,2.1109,1.8704,2.0005,2.1109,2.1109,2.1109,2.1109,2.1109,2.1109,2.1109,2.1109,1.9737,1.9355,2.0919,1.9674,1.8704,1.8704,1.8704,1.9296,2.0633,1.9074,1.8604,1.9754,1.813,1.7208,1.7208,1.7232,1.796,1.947,1.9439,1.9439,1.947,1.947,1.9399,1.943,1.943,1.9212,1.8958,1.8931,1.8784,1.8571,1.8544,1.8544,1.8571,1.8571,1.8571,1.8597,1.8865,1.8985,1.9038,1.9319,1.9599,1.984,1.984,2.0227,2.0681,2.0708,2.0909,2.1109,2.1109,2.1109,2.1042,2.0775,2.0722,2.0628,2.0307,2.0193,2.0267,2.0241,2.0193,2.0267,2.0241,2.0167,2.0167,2.0167,2.0167,2.0167,2.0167,2.0167,2.0134,1.9867,1.984,1.9733,1.9466,1.9679,1.996,2.0193,2.0207,2.0281,2.0307,2.0307,2.0294,2.0267,2.0207,2.0401,2.0668,2.0681,2.0695,2.0722,2.0722,2.0855,2.1109,2.1109,2.1109,2.1109,2.1109,2.1109,2.1109,2.1109,2.1109,2.1109,2.1109,2.1172,2.1299,2.1172,2.1172,2.1299,2.0526,2.0843,2.1109,2.1109,2.1109,2.1109,2.1109,2.1109,2.1109,2.1109,2.0779,2.0652,2.1046,2.0779,2.0526,2.0526,2.0526,2.0598,2.0695,2.0082,1.9732,1.9813,1.9213,1.8881,1.8881,1.9103,1.9338,1.9706,1.9933,1.9933,1.9706,1.9706,1.9586,1.943,1.943,1.939,1.9252,1.9025,1.9025,1.9158,1.8918,1.8971,1.9172,1.9172,1.9172,1.9185,1.9252,1.9412,1.9626,1.9679,1.9893,2.0134,2.0134,2.0388,2.0722,2.0949,2.1056,2.1109,2.1109,2.1109,2.1096,2.1029,2.1015,2.0882,2.0286,2.0414,2.0508,2.0281,2.0414,2.0508,2.0281,2.0167,2.0167,2.0167,2.0167,2.0167,2.0167,2.0167,2.0153,2.0147,2.0134,2.0107,2.0054,2.0107,2.0267,2.0561,2.0575,2.0681,2.0909,2.0922,2.0815,2.0588,2.0575,2.0615,2.0681,2.0681,2.0788,2.1015,2.1015,2.1042,2.1109,2.1109,2.1109,2.1109,2.1109,2.1109,2.1109,2.1109,2.1109,2.1109,2.1109,2.1915,2.2904,2.1601,2.1915,2.2904,2.1109,2.1109,2.1109,2.1109,2.1109,2.1109,2.1109,2.1109,2.1109,2.1109,2.1109,2.1109,2.1109,2.1109,2.1109,2.1109,2.1109,2.1042,2.0895,2.0615,2.0374,2.0227,1.98,1.9639,1.9773,1.9933,1.9933,1.98,2.0094,2.0147,2.0,2.0,1.992,1.9773,1.9639,1.9653,1.9746,1.9319,1.9305,1.9546,1.9252,1.9225,1.943,1.943,1.943,1.9444,1.9519,1.976,2.0,2.0,2.0201,2.0441,2.0441,2.0641,2.0909,2.1069,2.1109,2.1109,2.1109,2.1109,2.1109,2.1109,2.1109,2.1029,2.0722,2.0775,2.0842,2.0681,2.0775,2.0828,2.0681,2.0655,2.0655,2.0655,2.0655,2.0655,2.0655,2.0655,2.0601,2.0454,2.0441,2.0441,2.0441,2.0441,2.0561,2.0855,2.0882,2.0949,2.1096,2.1109,2.1042,2.0895,2.0882,2.0882,2.0882,2.0882,2.0962,2.1109,2.1109,2.1109,2.1109,2.1109,2.1109,2.1109,2.1109,2.1109,2.1109,2.1109,2.1109,2.1109,2.1109,2.1664,2.2404,2.2341,2.3311,2.4409,2.1109,2.1109,2.1109,2.1109,2.1109,2.1109,2.1109,2.1109,2.1109,2.1109,2.1109,2.1109,2.1109,2.1109,2.1109,2.1109,2.1109,2.1109,2.1109,2.0842,2.0681,2.0681,2.016,1.9987,2.0227,2.0281,2.0187,1.9947,2.0241,2.0361,2.0307,2.0307,2.0281,2.0167,1.9987,2.0013,2.0201,1.972,1.9626,1.9773,1.9533,1.947,1.943,1.943,1.9457,1.9466,1.972,2.0027,2.0307,2.0307,2.0508,2.0735,2.0695,2.0869,2.1109,2.1109,2.1109,2.1109,2.1109,2.1109,2.1109,2.1109,2.1109,2.1109,2.1109,2.1109,2.1109,2.1109,2.1109,2.1109,2.1109,2.1109,2.1109,2.1109,2.1109,2.1109,2.1109,2.1109,2.1015,2.0775,2.0748,2.0748,2.0748,2.0748,2.0855,2.1096,2.1109,2.1109,2.1109,2.1109,2.1109,2.1109,2.1109,2.1109,2.1109,2.1162,2.1189,2.1189,2.1229,2.1229,2.1189,2.1136,2.1136,2.1189,2.1136,2.1109,2.1109,2.1109,2.1109,2.1109,2.1109,2.1411,2.2153,2.3807,2.5085,2.5558,2.1109,2.1109,2.1109,2.1109,2.1109,2.1109,2.1109,2.1109,2.1109,2.1109,2.1109,2.1109,2.1109,2.1109,2.1109,2.1109,2.1109,2.1109,2.1109,2.0842,2.0681,2.0681,2.0347,2.0127,2.0167,2.0481,2.0601,2.0561,2.0842,2.0869,2.0615,2.0615,2.0481,2.0167,2.0127,2.0201,2.0227,2.0147,2.0,1.98,1.976,1.9586,1.943,1.943,1.9519,1.9746,1.9786,2.0147,2.0615,2.0615,2.0815,2.1002,2.0762,2.0869,2.1109,2.1109,2.1109,2.1109,2.1109,2.1109,2.1109,2.1109,2.1109,2.1109,2.1109,2.1109,2.1109,2.1109,2.1109,2.1109,2.1109,2.1109,2.1109,2.1109,2.1109,2.1109,2.1109,2.1109,2.1096,2.1056,2.1056,2.1056,2.1056,2.1056,2.1069,2.1109,2.1109,2.1109,2.1109,2.1109,2.1109,2.1109,2.1109,2.1109,2.1109,2.1363,2.1561,2.1561,2.175,2.1737,2.1547,2.1229,2.1256,2.1547,2.1216,2.1109,2.1109,2.1109,2.1109,2.1109,2.1109,2.2827,2.5558,2.7134,2.7013,2.5741,2.1109,2.1109,2.1109,2.1109,2.1109,2.1109,2.1109,2.1109,2.1109,2.1109,2.1109,2.1109,2.1109,2.1109,2.1109,2.1109,2.1109,2.1109,2.1109,2.0989,2.0922,2.0922,2.0641,2.0561,2.0722,2.0695,2.0762,2.0922,2.1042,2.1042,2.0922,2.0922,2.0842,2.0722,2.0548,2.0575,2.0695,2.0313,2.0254,2.0281,2.0107,1.996,1.9853,1.9853,1.9933,2.0067,2.0227,2.0561,2.0922,2.0922,2.1002,2.1082,2.0962,2.1002,2.1109,2.1109,2.1109,2.1109,2.1109,2.1109,2.1109,2.1109,2.1109,2.1109,2.1109,2.1109,2.1109,2.1109,2.1109,2.1109,2.1109,2.1109,2.1109,2.1109,2.1109,2.1109,2.1109,2.1109,2.1109,2.1109,2.1109,2.1109,2.1109,2.1109,2.1109,2.1109,2.1109,2.1109,2.1109,2.1109,2.1109,2.1109,2.1109,2.1109,2.1109,2.1403,2.1614,2.1614,2.1844,2.1924,2.179,2.1657,2.167,2.1777,2.1483,2.1363,2.1349,2.1176,2.1109,2.1109,2.1109,2.3124,2.6106,2.6832,2.7751,2.8367]}]]